[[{"header":{"parameterUnit":"m.s-1","parameterCategory":1,"la1":30.6,"la2":29.2853,"lo1":-89.7004,"lo2":-87.6739,"dy":0.0162,"dx":0.0183,"nx":112,"ny":82,"refTime":"2023-07-05T06:00:00:Z","depth":0,"parameterNumber":2,"parameterNumberName":"U-component_of_WINDS"},"data":[0.0,0.0,0.0,0.0,0.0,0.0,0.0,0.0,0.0,0.0,0.0,0.0,0.0,0.0,0.0,0.0,0.0,0.0,0.0,0.0,0.0,0.0,0.0,0.0,0.0,0.0,0.0,0.0,0.0,0.0,0.0,0.0,0.0,0.0,0.0,0.0,0.0,0.0,0.0,0.0,0.0,0.0,0.0,0.0,0.0,0.0,0.0,0.0,0.0,0.0,0.0,0.0,0.0,0.0,0.0,0.0,0.0,0.0,0.0,0.0,0.0,0.0,0.0,0.0,0.0,0.0,0.0,0.0,0.0,0.0,0.0,0.0,0.0,0.0,0.0,0.0,0.0,0.0,0.0,0.0,0.0,0.0,0.0,0.0,0.0,0.0,0.0,0.0,0.0,0.0,-2.3622,-2.4305,-2.4795,-2.5071,-2.5071,-2.5071,-2.4562,-2.3434,0.0,0.0,0.0,0.0,0.0,0.0,0.0,0.0,0.0,0.0,0.0,0.0,0.0,0.0,0.0,0.0,0.0,0.0,0.0,0.0,0.0,0.0,0.0,0.0,0.0,0.0,0.0,0.0,0.0,0.0,0.0,0.0,0.0,0.0,0.0,0.0,0.0,0.0,0.0,0.0,0.0,0.0,0.0,0.0,0.0,0.0,0.0,0.0,0.0,0.0,0.0,0.0,0.0,0.0,0.0,0.0,0.0,0.0,0.0,0.0,0.0,0.0,0.0,0.0,0.0,0.0,0.0,0.0,0.0,0.0,0.0,0.0,0.0,0.0,0.0,0.0,0.0,0.0,0.0,0.0,0.0,0.0,0.0,0.0,0.0,0.0,0.0,0.0,0.0,0.0,0.0,0.0,0.0,0.0,0.0,0.0,0.0,0.0,0.0,0.0,0.0,0.0,0.0,0.0,-2.4958,-2.6009,-2.6197,-2.6248,-2.6248,-2.6248,-2.577,-2.46,0.0,0.0,0.0,0.0,0.0,0.0,0.0,0.0,0.0,0.0,0.0,0.0,0.0,0.0,0.0,0.0,0.0,0.0,0.0,0.0,0.0,0.0,0.0,0.0,0.0,0.0,0.0,0.0,0.0,0.0,0.0,0.0,0.0,0.0,0.0,0.0,0.0,0.0,0.0,0.0,0.0,0.0,0.0,0.0,0.0,0.0,0.0,0.0,0.0,0.0,0.0,0.0,0.0,0.0,0.0,0.0,0.0,0.0,0.0,0.0,0.0,0.0,0.0,0.0,0.0,0.0,0.0,0.0,0.0,0.0,0.0,0.0,0.0,0.0,0.0,0.0,0.0,0.0,0.0,0.0,0.0,0.0,0.0,0.0,0.0,0.0,0.0,0.0,0.0,0.0,0.0,0.0,0.0,0.0,0.0,0.0,0.0,0.0,0.0,0.0,0.0,0.0,0.0,-2.4474,-2.5247,-2.6373,-2.6499,-2.6499,-2.6499,-2.6499,-2.6021,-2.4863,-2.4299,0.0,0.0,0.0,0.0,0.0,0.0,0.0,0.0,0.0,0.0,0.0,0.0,0.0,0.0,0.0,0.0,0.0,0.0,0.0,0.0,0.0,0.0,0.0,0.0,0.0,0.0,0.0,0.0,0.0,0.0,0.0,0.0,0.0,0.0,0.0,0.0,0.0,0.0,0.0,0.0,0.0,0.0,0.0,0.0,0.0,0.0,0.0,0.0,0.0,0.0,0.0,0.0,0.0,0.0,0.0,0.0,0.0,0.0,0.0,0.0,0.0,0.0,0.0,0.0,0.0,0.0,0.0,0.0,0.0,0.0,0.0,0.0,0.0,0.0,0.0,0.0,0.0,0.0,0.0,0.0,0.0,0.0,0.0,0.0,0.0,0.0,0.0,0.0,0.0,0.0,0.0,0.0,0.0,0.0,0.0,0.0,0.0,0.0,0.0,0.0,0.0,0.0,-2.5034,-2.5523,-2.6411,-2.6499,-2.6499,-2.6499,-2.6499,-2.6021,-2.4863,-2.4788,0.0,0.0,0.0,0.0,0.0,0.0,0.0,0.0,0.0,0.0,0.0,0.0,0.0,0.0,0.0,0.0,0.0,0.0,0.0,0.0,0.0,0.0,0.0,0.0,0.0,0.0,0.0,0.0,0.0,0.0,0.0,0.0,0.0,0.0,0.0,0.0,0.0,0.0,0.0,0.0,0.0,0.0,0.0,0.0,0.0,0.0,0.0,0.0,0.0,0.0,0.0,0.0,0.0,0.0,0.0,0.0,0.0,0.0,0.0,0.0,0.0,0.0,0.0,0.0,0.0,0.0,0.0,0.0,0.0,0.0,0.0,0.0,0.0,0.0,0.0,0.0,0.0,0.0,0.0,0.0,0.0,0.0,0.0,0.0,0.0,0.0,0.0,0.0,0.0,0.0,0.0,0.0,0.0,0.0,0.0,0.0,0.0,0.0,0.0,0.0,0.0,0.0,-2.5786,-2.6411,-2.6487,-2.6499,-2.6499,-2.6499,-2.6499,-2.6021,-2.4863,-2.4788,0.0,0.0,0.0,0.0,0.0,0.0,0.0,0.0,0.0,0.0,0.0,0.0,0.0,0.0,0.0,0.0,0.0,0.0,0.0,0.0,0.0,0.0,0.0,0.0,0.0,0.0,0.0,0.0,0.0,0.0,0.0,0.0,0.0,0.0,0.0,0.0,0.0,0.0,0.0,0.0,0.0,0.0,0.0,0.0,0.0,0.0,0.0,0.0,0.0,0.0,0.0,0.0,0.0,0.0,0.0,0.0,0.0,0.0,0.0,0.0,0.0,0.0,0.0,0.0,0.0,0.0,0.0,0.0,0.0,0.0,0.0,0.0,0.0,0.0,0.0,0.0,0.0,0.0,0.0,0.0,0.0,0.0,0.0,0.0,0.0,0.0,0.0,0.0,0.0,0.0,0.0,0.0,0.0,0.0,0.0,0.0,0.0,0.0,0.0,0.0,0.0,0.0,-2.5493,-2.6097,0.0,-2.6499,-2.6499,-2.6499,-2.6499,-2.6021,-2.4863,0.0,0.0,0.0,0.0,0.0,0.0,0.0,0.0,0.0,0.0,0.0,0.0,0.0,0.0,0.0,0.0,0.0,0.0,0.0,0.0,0.0,0.0,0.0,0.0,0.0,0.0,0.0,0.0,0.0,0.0,0.0,0.0,0.0,0.0,0.0,0.0,0.0,0.0,0.0,0.0,0.0,0.0,0.0,0.0,0.0,0.0,0.0,0.0,0.0,0.0,0.0,0.0,0.0,0.0,0.0,0.0,0.0,0.0,0.0,0.0,0.0,0.0,0.0,0.0,0.0,0.0,0.0,0.0,0.0,0.0,0.0,0.0,0.0,0.0,0.0,0.0,0.0,0.0,0.0,0.0,0.0,0.0,0.0,0.0,0.0,0.0,0.0,0.0,0.0,0.0,0.0,0.0,0.0,0.0,0.0,0.0,0.0,0.0,0.0,0.0,0.0,0.0,-2.5338,-2.5984,-2.654,0.0,-2.7014,-2.7014,-2.7014,-2.7014,-2.6549,-2.541,0.0,0.0,0.0,0.0,0.0,0.0,0.0,0.0,0.0,0.0,0.0,0.0,0.0,0.0,0.0,0.0,0.0,0.0,0.0,0.0,0.0,0.0,0.0,0.0,0.0,0.0,0.0,0.0,0.0,0.0,0.0,0.0,0.0,0.0,0.0,0.0,0.0,0.0,0.0,0.0,0.0,0.0,0.0,0.0,0.0,0.0,0.0,0.0,0.0,0.0,0.0,0.0,0.0,0.0,0.0,0.0,0.0,0.0,0.0,0.0,0.0,0.0,0.0,0.0,0.0,0.0,0.0,0.0,0.0,0.0,0.0,0.0,0.0,0.0,0.0,0.0,0.0,0.0,0.0,0.0,0.0,0.0,0.0,0.0,0.0,0.0,0.0,0.0,0.0,0.0,0.0,0.0,0.0,0.0,0.0,0.0,0.0,0.0,0.0,0.0,0.0,0.0,-2.6603,-2.7526,-2.8109,-2.8109,-2.8109,-2.8109,-2.8109,-2.8109,-2.7632,0.0,0.0,0.0,0.0,0.0,0.0,0.0,0.0,0.0,0.0,0.0,0.0,0.0,0.0,0.0,0.0,0.0,0.0,0.0,0.0,0.0,0.0,0.0,0.0,0.0,0.0,0.0,0.0,0.0,0.0,0.0,0.0,0.0,0.0,0.0,0.0,0.0,0.0,0.0,0.0,0.0,0.0,0.0,0.0,0.0,0.0,0.0,0.0,0.0,0.0,0.0,0.0,0.0,0.0,0.0,0.0,0.0,0.0,0.0,0.0,0.0,0.0,0.0,0.0,0.0,0.0,0.0,0.0,0.0,0.0,0.0,0.0,0.0,0.0,0.0,0.0,0.0,0.0,0.0,0.0,0.0,0.0,0.0,0.0,0.0,0.0,0.0,0.0,0.0,0.0,0.0,0.0,0.0,0.0,0.0,0.0,0.0,0.0,0.0,0.0,0.0,0.0,0.0,-2.653,-2.7454,-2.8109,-2.8109,-2.8109,-2.8109,-2.8109,-2.8109,-2.7457,-2.595,0.0,0.0,0.0,0.0,0.0,0.0,0.0,0.0,0.0,0.0,0.0,0.0,0.0,0.0,0.0,0.0,0.0,0.0,0.0,0.0,0.0,0.0,0.0,0.0,0.0,0.0,0.0,0.0,0.0,0.0,0.0,0.0,0.0,0.0,0.0,0.0,0.0,0.0,0.0,0.0,0.0,0.0,0.0,0.0,0.0,0.0,0.0,0.0,0.0,0.0,0.0,0.0,0.0,0.0,0.0,0.0,0.0,0.0,0.0,0.0,0.0,0.0,0.0,0.0,0.0,0.0,0.0,0.0,0.0,0.0,0.0,0.0,0.0,0.0,0.0,0.0,0.0,0.0,0.0,0.0,0.0,0.0,0.0,0.0,0.0,0.0,0.0,0.0,0.0,0.0,0.0,0.0,0.0,0.0,0.0,0.0,0.0,0.0,0.0,0.0,0.0,0.0,-2.6788,-2.7959,-2.8775,-2.8775,-2.8775,-2.8775,-2.8775,-2.8775,-2.8247,-2.7005,0.0,0.0,0.0,0.0,0.0,0.0,0.0,0.0,0.0,0.0,0.0,0.0,0.0,0.0,0.0,0.0,0.0,0.0,0.0,0.0,0.0,0.0,0.0,0.0,0.0,0.0,0.0,0.0,0.0,0.0,0.0,0.0,0.0,0.0,0.0,0.0,0.0,0.0,0.0,0.0,0.0,0.0,0.0,0.0,0.0,0.0,0.0,0.0,0.0,0.0,0.0,0.0,0.0,0.0,0.0,0.0,0.0,0.0,0.0,0.0,0.0,0.0,0.0,0.0,0.0,0.0,0.0,0.0,0.0,0.0,0.0,0.0,0.0,0.0,0.0,0.0,0.0,0.0,0.0,0.0,0.0,0.0,0.0,0.0,0.0,0.0,0.0,0.0,0.0,0.0,0.0,0.0,0.0,0.0,0.0,0.0,0.0,0.0,0.0,0.0,0.0,0.0,-2.7253,-2.875,-2.9792,-2.9792,-2.9792,-2.9792,-2.9792,-2.9792,-2.9528,-2.885,0.0,0.0,0.0,0.0,0.0,0.0,0.0,0.0,0.0,0.0,0.0,0.0,0.0,0.0,0.0,0.0,0.0,0.0,0.0,0.0,0.0,0.0,0.0,0.0,0.0,0.0,0.0,0.0,0.0,0.0,0.0,0.0,0.0,0.0,0.0,0.0,0.0,0.0,0.0,0.0,0.0,0.0,0.0,0.0,0.0,0.0,0.0,0.0,0.0,0.0,0.0,0.0,0.0,0.0,0.0,0.0,0.0,0.0,0.0,0.0,-2.4123,0.0,0.0,0.0,0.0,0.0,0.0,0.0,0.0,0.0,0.0,0.0,0.0,0.0,0.0,0.0,0.0,0.0,0.0,0.0,0.0,0.0,0.0,0.0,0.0,0.0,0.0,0.0,0.0,0.0,0.0,0.0,0.0,0.0,0.0,0.0,0.0,0.0,0.0,0.0,0.0,0.0,-2.7304,-2.875,-2.9792,-2.9792,-2.9792,-2.9792,-2.9792,-2.9792,-2.9365,-2.8348,-2.836,0.0,0.0,0.0,0.0,0.0,0.0,0.0,0.0,0.0,0.0,0.0,0.0,0.0,0.0,0.0,0.0,0.0,0.0,0.0,0.0,0.0,0.0,0.0,0.0,0.0,0.0,0.0,0.0,0.0,0.0,0.0,0.0,0.0,0.0,0.0,0.0,0.0,0.0,0.0,0.0,0.0,0.0,0.0,0.0,0.0,0.0,0.0,0.0,0.0,0.0,0.0,0.0,0.0,0.0,0.0,0.0,0.0,0.0,0.0,0.0,-2.4874,0.0,0.0,0.0,0.0,0.0,0.0,0.0,0.0,0.0,0.0,0.0,0.0,0.0,0.0,0.0,0.0,0.0,0.0,0.0,0.0,0.0,0.0,0.0,0.0,0.0,0.0,0.0,0.0,0.0,0.0,0.0,0.0,0.0,0.0,0.0,0.0,0.0,0.0,0.0,0.0,-2.6927,-2.8586,-2.9792,-2.9792,-2.9792,-2.9792,-2.9792,-2.9792,-2.9541,-2.895,-2.8674,0.0,0.0,0.0,0.0,0.0,0.0,0.0,0.0,0.0,0.0,0.0,0.0,0.0,0.0,0.0,0.0,0.0,0.0,0.0,0.0,0.0,0.0,0.0,0.0,0.0,0.0,0.0,0.0,0.0,0.0,0.0,0.0,0.0,0.0,0.0,0.0,0.0,0.0,0.0,0.0,0.0,0.0,0.0,0.0,0.0,0.0,0.0,0.0,0.0,0.0,0.0,0.0,0.0,-2.7294,-2.7426,-2.6743,-2.7216,-2.7689,-2.8097,-2.7299,-2.7067,-2.7142,0.0,0.0,0.0,0.0,0.0,0.0,0.0,0.0,0.0,0.0,0.0,0.0,0.0,0.0,0.0,0.0,0.0,0.0,0.0,0.0,0.0,0.0,0.0,0.0,0.0,-2.7412,-2.7595,0.0,0.0,0.0,0.0,0.0,0.0,0.0,0.0,0.0,0.0,0.0,0.0,-2.6751,-2.8536,-2.9792,-2.9792,-2.9792,-2.9792,-2.9792,-2.9792,-2.9792,-2.974,-2.8875,-2.8273,0.0,0.0,0.0,0.0,0.0,0.0,0.0,0.0,0.0,0.0,0.0,0.0,0.0,0.0,0.0,0.0,0.0,0.0,0.0,0.0,0.0,0.0,0.0,0.0,0.0,0.0,0.0,0.0,0.0,0.0,0.0,0.0,-2.7789,-2.7942,0.0,0.0,0.0,0.0,0.0,0.0,0.0,0.0,0.0,0.0,0.0,0.0,0.0,-2.6758,-2.7268,-2.7346,-2.7628,-2.8093,-2.8726,-2.9235,-2.9562,-2.964,-2.9719,-2.9784,-2.9663,0.0,-2.8336,-2.7677,0.0,0.0,0.0,0.0,0.0,0.0,0.0,0.0,0.0,0.0,0.0,0.0,0.0,0.0,0.0,0.0,0.0,0.0,0.0,0.0,0.0,0.0,-2.8511,-2.8586,-2.9038,-2.944,0.0,-2.7869,-2.6587,-2.6892,-2.6663,0.0,0.0,0.0,0.0,0.0,0.0,0.0,-2.777,-2.9001,-2.9792,-2.9792,-2.9792,-2.9792,-2.9792,-2.9792,-2.9702,-2.947,-2.9513,-2.9063,-2.7878,-2.7751,0.0,0.0,0.0,0.0,0.0,0.0,0.0,0.0,0.0,0.0,0.0,0.0,0.0,0.0,0.0,0.0,0.0,0.0,0.0,0.0,0.0,0.0,0.0,0.0,0.0,0.0,0.0,0.0,0.0,-2.767,-2.8049,-2.7991,-2.7333,-2.6846,0.0,0.0,0.0,0.0,0.0,0.0,0.0,0.0,0.0,-2.8615,-2.8405,-2.8782,-2.9905,-2.9918,-3.0205,-3.0803,-3.1065,-3.1326,-3.1575,-3.1575,-3.1575,-3.1575,-3.1575,-3.1312,-3.0758,-2.8939,-2.8205,-2.8087,0.0,0.0,0.0,0.0,-2.6765,-2.6627,-2.7861,-2.8111,0.0,-2.8009,0.0,0.0,0.0,0.0,0.0,0.0,0.0,0.0,0.0,0.0,-2.8624,-2.9264,-2.9616,-2.9792,-2.9792,-2.9026,-2.821,0.0,-2.7341,-2.6587,-2.536,0.0,0.0,0.0,0.0,-2.7557,-2.8047,-2.9101,-2.9792,-2.9792,-2.9792,-2.9792,-2.9792,-2.9792,-2.9753,-2.965,-2.974,-2.9489,-2.8748,-2.8015,-2.7163,0.0,0.0,0.0,0.0,0.0,0.0,0.0,0.0,0.0,0.0,0.0,0.0,0.0,0.0,0.0,0.0,0.0,0.0,0.0,0.0,0.0,0.0,0.0,0.0,0.0,0.0,0.0,0.0,-2.7864,-2.836,-2.8012,-2.7871,-2.7705,0.0,0.0,0.0,0.0,0.0,0.0,-2.861,-2.8754,-2.9294,-3.0293,-3.0332,-3.0876,-3.2006,-3.2019,-3.228,-3.2685,-3.2685,-3.2777,-3.2921,-3.2921,-3.2921,-3.2921,-3.2921,-3.2829,-3.2529,-3.0469,-2.9868,-3.0089,-2.9336,-2.9209,-2.9384,-2.9019,-2.8723,-2.8612,-2.9466,-2.9585,-2.9287,-2.9178,0.0,-2.8058,-2.7845,0.0,0.0,0.0,0.0,-2.7959,-2.9026,-2.9151,-2.9164,-3.0005,-3.0206,-3.0206,-3.0206,-3.0093,-2.9716,0.0,-2.821,-2.7444,-2.5925,0.0,0.0,0.0,0.0,-2.8473,-2.8888,-2.9679,-3.0206,-3.0206,-3.0206,-3.0206,-3.0206,-3.0206,-3.0143,-2.9927,-2.9966,-2.98,-2.9431,-2.8408,-2.7704,-2.7446,0.0,0.0,0.0,0.0,0.0,0.0,0.0,0.0,0.0,0.0,0.0,0.0,0.0,0.0,0.0,0.0,0.0,0.0,0.0,0.0,0.0,0.0,0.0,0.0,0.0,0.0,0.0,0.0,0.0,-2.8183,-2.8258,0.0,0.0,0.0,0.0,-2.852,-2.9424,-3.0241,-3.0828,-3.1326,-3.1901,-3.2502,-3.2515,-3.2568,-3.2646,-3.2646,-3.2659,-3.2685,-3.2685,-3.2986,-3.3548,-3.3548,-3.3548,-3.3548,-3.3548,-3.3221,-3.2685,-3.2529,-3.2292,-3.196,-3.1894,-3.1235,-3.0345,-3.1273,-3.0957,-3.0216,-3.1206,-3.1438,-3.11,-3.0082,-2.9013,-2.8097,-2.8072,-2.772,0.0,0.0,-2.8461,-2.9063,-3.0231,-3.0871,-3.1235,-3.1298,-3.1311,-3.1311,-3.1311,-3.0922,-3.0407,0.0,-2.9679,-2.9302,-2.8147,0.0,-2.8185,-2.8612,-2.8787,-2.9414,-3.1022,-3.1273,-3.1311,-3.1311,-3.1311,-3.1311,-3.1311,-3.1311,-3.1004,-3.0303,-3.0451,-3.0201,-2.9443,-2.933,-2.8656,-2.7322,-2.7385,0.0,0.0,0.0,0.0,0.0,0.0,0.0,0.0,0.0,0.0,0.0,0.0,0.0,0.0,0.0,0.0,0.0,0.0,0.0,0.0,0.0,0.0,0.0,0.0,0.0,0.0,0.0,0.0,-2.9052,-2.9305,0.0,-2.9784,-3.0276,-3.0644,-3.0853,-3.1402,-3.1875,-3.2071,-3.228,-3.2659,-3.3247,-3.36,-3.3979,-3.4358,-3.4711,-3.4894,-3.4894,-3.4894,-3.4999,-3.5208,-3.5208,-3.5208,-3.5208,-3.5208,-3.509,-3.4894,-3.4894,-3.3942,-3.2502,-3.2502,-3.2214,-3.1861,-3.198,-3.1756,-3.1442,-3.1504,-3.148,-3.1336,-3.0947,-3.0545,-3.0218,-3.0218,-3.008,-2.9967,-3.0168,-3.0357,-3.0608,-3.1009,-3.1248,-3.1386,-3.1386,-3.1386,-3.1386,-3.1386,-3.1248,-3.106,-3.0859,-3.0545,-3.008,-2.9315,-2.9767,-3.0043,-2.9553,-3.0068,-3.0721,-3.1311,-3.1386,-3.1386,-3.1386,-3.1386,-3.1386,-3.1386,-3.1386,-3.1311,-3.1029,-3.1069,-3.086,-3.0309,-3.0072,-2.9542,-2.8609,-2.8543,-2.7418,0.0,0.0,0.0,0.0,0.0,0.0,0.0,0.0,0.0,0.0,0.0,0.0,0.0,0.0,0.0,0.0,0.0,0.0,0.0,0.0,0.0,0.0,0.0,0.0,0.0,0.0,-2.9848,-2.9867,-3.054,-3.1033,-3.1193,-3.1752,-3.2162,-3.2266,-3.2909,-3.326,-3.326,-3.3639,-3.4031,-3.4424,-3.4789,-3.5168,-3.5574,-3.5926,-3.6109,-3.6109,-3.6109,-3.6109,-3.6109,-3.6109,-3.6109,-3.6109,-3.6109,-3.6109,-3.6109,-3.6109,-3.5208,-3.3822,-3.3639,-3.3493,-3.3303,-3.2823,-3.2554,-3.2403,-3.2088,-3.1838,-3.1675,-3.1675,-3.1537,-3.1386,-3.1386,-3.1386,-3.1386,-3.1386,-3.1524,-3.1675,-3.1675,-3.1813,-3.1951,-3.1951,-3.1951,-3.1951,-3.1951,-3.1951,-3.1951,-3.1951,-3.1373,-3.0758,-3.0394,-3.0922,-3.1125,-3.0311,-3.1025,-3.1641,-3.1505,-3.1766,-3.1951,-3.1951,-3.1951,-3.1951,-3.1951,-3.1612,-3.1474,-3.165,-3.1323,-3.1101,-3.1001,-3.0307,-2.9711,-2.9258,-2.8867,-2.7643,-2.5648,0.0,0.0,0.0,0.0,0.0,0.0,0.0,0.0,0.0,0.0,0.0,0.0,0.0,0.0,0.0,0.0,0.0,0.0,0.0,0.0,0.0,0.0,0.0,-2.9585,-3.0712,-3.1406,-3.056,-3.1807,-3.2515,-3.1941,-3.2437,-3.2777,-3.279,-3.3822,-3.445,-3.445,-3.5495,-3.6109,-3.6109,-3.6123,-3.6136,-3.6162,-3.6175,-3.6188,-3.6214,-3.6214,-3.6214,-3.6214,-3.6214,-3.6201,-3.6188,-3.6188,-3.6175,-3.6162,-3.6162,-3.6162,-3.6109,-3.5547,-3.5025,-3.4546,-3.3939,-3.3492,-3.3174,-3.3106,-3.2742,-3.2265,-3.224,-3.1876,-3.1436,-3.1436,-3.1436,-3.1436,-3.1436,-3.1825,-3.224,-3.224,-3.2654,-3.3124,-3.3124,-3.3124,-3.3124,-3.3124,-3.3124,-3.3124,-3.3124,-3.219,-3.1436,-3.1436,-3.1436,-3.1342,-3.1025,-3.1697,0.0,-3.1782,-3.2542,-3.3111,-3.3074,-3.3074,-3.3074,-3.3074,-3.2014,-3.1637,-3.2202,-3.126,-3.0922,-3.1424,-3.0037,-2.9271,-2.9258,-2.8251,-2.7411,-2.6733,0.0,0.0,0.0,0.0,0.0,0.0,0.0,0.0,0.0,0.0,0.0,0.0,0.0,0.0,0.0,0.0,0.0,0.0,0.0,0.0,0.0,0.0,-3.1406,-3.0962,-3.1781,-3.2344,-3.2083,-3.283,-3.343,-3.3666,-3.4228,-3.4737,-3.5142,-3.5456,-3.5639,-3.5639,-3.5926,-3.6109,-3.6109,-3.6528,-3.6972,-3.7403,-3.7795,-3.8214,-3.8645,-3.8645,-3.8645,-3.8645,-3.8645,-3.841,-3.7991,-3.7991,-3.7769,-3.7416,-3.7416,-3.7416,-3.7312,-3.6142,-3.5577,-3.5419,-3.4913,-3.454,-3.4211,-3.3809,-3.3571,-3.337,-3.2968,-3.2729,-3.2616,-3.2616,-3.2616,-3.2616,-3.2616,-3.2717,-3.2842,-3.2842,-3.2998,-3.3124,-3.3124,-3.3124,-3.3124,-3.3124,-3.3124,-3.3124,-3.3124,-3.2872,-3.2616,-3.2616,-3.2616,-3.2608,-3.25,-3.2696,0.0,-3.2726,-3.2935,-3.2767,-3.1938,-3.1851,-3.1851,-3.1851,-3.1562,-3.18,-3.278,-3.2566,-3.2339,-3.2148,-3.1509,-3.0787,-3.0077,-2.8883,-2.8143,0.0,0.0,0.0,0.0,0.0,0.0,0.0,0.0,0.0,0.0,0.0,0.0,0.0,0.0,0.0,0.0,0.0,0.0,0.0,0.0,0.0,0.0,-3.2153,-3.2447,-3.2684,-3.2909,-3.3156,-3.3378,-3.394,-3.4515,-3.5064,-3.543,-3.5757,-3.6083,-3.6332,-3.6593,-3.6841,-3.7077,-3.7312,-3.756,-3.7913,-3.8266,-3.8619,-3.8932,-3.9259,-3.9612,-3.9612,-3.9612,-3.9612,-3.9612,-3.9416,0.0,-3.9089,-3.8906,-3.8619,-3.8619,-3.8572,0.0,0.0,0.0,0.0,0.0,-3.4816,-3.4675,-3.4349,-3.4248,-3.4186,-3.3872,-3.3771,-3.3771,-3.3771,-3.3771,-3.3771,-3.3771,-3.3771,-3.3771,-3.3771,-3.3771,-3.3771,-3.3771,-3.3583,-3.342,-3.342,-3.3244,-3.3124,-3.3124,-3.3124,0.0,-3.3124,-3.3124,-3.296,-3.258,-3.2865,-3.2948,-3.2567,-3.2877,-3.2872,-3.2164,-3.2102,-3.2102,-3.2102,-3.1662,0.0,0.0,0.0,-3.2197,-3.1742,-3.1549,0.0,0.0,0.0,-2.8915,-2.9061,0.0,0.0,0.0,-2.6927,-2.6566,0.0,0.0,0.0,0.0,0.0,0.0,0.0,0.0,0.0,0.0,0.0,0.0,0.0,0.0,0.0,0.0,-3.3265,-3.3875,-3.4424,-3.4136,-3.4058,-3.4541,-3.5064,-3.56,-3.6149,-3.6201,-3.6253,-3.6384,-3.6894,-3.7469,-3.807,0.0,0.0,0.0,0.0,-3.9638,-3.9703,-3.9703,-3.973,-3.9795,-3.9795,-3.9795,-3.9795,-3.9795,-3.9756,-3.9703,-3.9703,-3.9664,-3.9612,-3.9612,-3.9407,-3.8984,-3.7335,-3.6553,-3.621,-3.5226,-3.4901,-3.4901,-3.4793,0.0,0.0,-3.4738,-3.468,-3.468,-3.468,-3.468,-3.468,-3.468,-3.468,-3.468,-3.468,-3.468,-3.468,-3.468,-3.4349,-3.3985,-3.3985,-3.3608,-3.3269,-3.3269,-3.3269,-3.3244,-3.3181,-3.3162,-3.2827,-3.1997,-3.2567,-3.2802,-3.1984,-3.2592,-3.3074,-3.2905,0.0,0.0,-3.2923,-3.1964,-3.1876,-3.3048,-3.2127,-3.1369,-3.1038,-3.0996,-3.0538,-2.9622,-2.961,-2.9839,-3.0266,-3.0266,-3.0242,-3.0122,-2.7681,-2.689,0.0,0.0,0.0,0.0,0.0,0.0,0.0,0.0,0.0,0.0,0.0,0.0,0.0,0.0,0.0,-3.3122,-3.3859,-3.445,-3.5038,-3.5417,-3.5652,-3.5757,-3.5874,-3.6175,-3.6776,-3.6828,-3.7207,-3.8135,-3.8318,-3.8645,-3.9246,-3.9377,0.0,-3.9612,-3.9612,-3.9821,-4.0252,-4.0265,-4.0501,-4.0984,0.0,0.0,-4.0984,-4.0984,-4.0723,-4.0265,-4.0265,-4.0017,-3.9612,-3.9612,-3.9297,-3.8759,-3.7798,-3.6975,-3.6382,-3.6128,-3.6091,-3.5981,-3.5495,-3.5345,-3.527,-3.4818,-3.468,-3.468,-3.468,-3.468,0.0,-3.468,-3.468,-3.468,-3.468,-3.468,-3.468,-3.468,-3.4638,-3.4562,-3.4562,-3.4474,-3.4399,-3.4399,-3.4399,-3.4261,-3.3822,-3.337,-3.3048,-3.2877,-3.2986,-3.3036,-3.2865,-3.2986,-3.2729,-3.1813,-3.1712,-3.1712,-3.1712,-3.1512,-3.1876,-3.3048,-3.2696,-3.2388,-3.2357,-3.2198,-3.1902,-3.1489,-3.1489,-3.1438,-3.1404,-3.1404,-3.1187,-3.0699,-2.9749,-2.9417,0.0,0.0,0.0,0.0,0.0,0.0,0.0,0.0,0.0,0.0,0.0,-3.2083,0.0,0.0,-3.276,-3.4177,-3.4643,-3.5155,-3.6031,-3.6384,-3.6554,-3.6554,-3.6554,-3.6789,-3.7403,-3.7691,-3.8096,-3.8671,-3.8985,-3.9416,-3.9978,-4.0017,-4.0148,-4.0448,-4.0461,-4.0592,-4.0867,-4.0867,-4.1023,-4.1311,-4.1311,-4.1311,-4.1311,-4.1311,-4.1154,-4.0867,-4.0867,-4.071,-4.0412,-4.0166,-3.9739,-3.9197,-3.8486,-3.7671,-3.682,-3.682,-3.6644,-3.6367,-3.6044,-3.5956,-3.5918,-3.5629,-3.5542,-3.5542,-3.5542,-3.5542,-3.5542,-3.5542,-3.5542,-3.5542,-3.5542,-3.5542,-3.5542,-3.5542,-3.5328,-3.5094,-3.5094,-3.4868,-3.468,-3.468,-3.468,-3.4625,-3.4361,-3.4085,-3.3709,-3.3156,-3.3124,-3.3124,-3.3124,-3.3124,-3.2898,-3.229,-3.2227,-3.2227,-3.2227,-3.2227,-3.2478,-3.3043,-3.2982,-3.2853,-3.2723,-3.2593,-3.2419,-3.2213,-3.2081,-3.1937,-3.1849,-3.1761,-3.1573,-3.1308,-3.1043,-3.0591,0.0,0.0,0.0,0.0,0.0,0.0,0.0,0.0,-3.3111,-3.218,-3.2458,-3.2915,-3.3106,-3.3317,-3.3842,-3.5119,-3.5482,-3.5953,-3.6881,-3.7103,-3.7168,-3.7168,-3.7168,-3.7377,-3.7861,-3.8397,-3.8762,-3.888,-3.9429,-4.0004,-4.0566,-4.0592,-4.0814,-4.1298,-4.1311,-4.1311,-4.1311,-4.1311,-4.1311,-4.1311,-4.1311,-4.1311,-4.1311,-4.1311,-4.1311,-4.1311,-4.1261,-4.1211,-4.1161,-4.0707,-4.0235,-3.9725,-3.9272,-3.8454,-3.75,-3.7387,-3.6998,-3.6568,-3.6568,-3.6505,-3.6405,-3.6405,-3.6405,-3.6405,-3.6405,-3.6405,-3.6405,-3.6405,-3.6405,-3.6405,-3.6405,-3.6405,-3.6405,-3.6405,-3.6031,-3.5658,-3.5658,-3.5353,-3.5039,-3.5039,-3.5039,-3.5002,-3.4901,-3.4876,-3.455,-3.3545,-3.3395,-3.3395,-3.3395,-3.3395,-3.3395,-3.3395,-3.3307,-3.3194,-3.3124,-3.3124,-3.3124,-3.3124,-3.3124,-3.2982,-3.281,-3.2766,-3.268,-3.2475,-3.2257,-3.2125,-3.2081,-3.1937,-3.1805,-3.1761,-3.1761,-3.1259,-3.28,-3.3139,0.0,-3.4873,-3.5153,-3.5122,0.0,0.0,-3.3994,-3.2823,-3.3067,-3.3527,-3.351,-3.4361,-3.5119,-3.526,-3.6149,-3.6854,-3.6985,-3.7469,-3.7808,-3.7808,-3.7808,-3.7835,-3.79,-3.8397,-3.8932,-3.9468,-4.0017,-4.0592,-4.118,-4.1219,-4.1246,-4.1311,-4.1311,-4.1311,-4.1311,-4.1311,-4.1311,-4.1311,-4.1311,-4.1311,-4.1311,-4.1311,-4.1311,-4.1261,-4.1047,-4.0933,-4.0933,-4.0593,-4.03,-4.0033,-3.9982,-3.9462,-3.8617,-3.8103,-3.7563,-3.7098,-3.7098,-3.682,-3.6405,-3.6405,-3.6405,-3.6405,-3.6405,-3.6405,-3.6405,-3.6405,-3.6405,-3.6405,-3.6405,-3.6405,-3.6405,-3.6405,-3.6367,-3.6317,-3.6317,-3.6267,-3.6229,-3.6229,-3.6229,-3.6019,-3.5495,-3.5408,-3.5207,-3.4625,-3.4537,-3.4537,-3.4537,-3.4537,-3.4537,-3.4537,-3.4098,-3.3608,-3.3162,-3.3124,-3.3124,-3.3124,-3.3124,-3.3081,-3.3081,-3.3081,-3.2939,-3.268,-3.2636,-3.2506,-3.2344,-3.2344,-3.2213,-3.1994,-3.1994,-3.1789,-3.4183,0.0,0.0,0.0,-3.5963,-3.6129,-3.5607,-3.5629,-3.5526,-3.481,-3.4777,-3.4914,-3.5208,-3.5284,-3.5521,0.0,-3.6684,-3.7129,-3.7482,-3.7743,-3.79,-3.79,-3.79,-3.8031,-3.8344,-3.8893,-3.9468,-4.003,-4.0618,-4.105,-4.1311,-4.1311,-4.1311,-4.1311,-4.1311,-4.1311,-4.1311,-4.1311,-4.1311,-4.1311,-4.1311,-4.1311,-4.1311,-4.1311,-4.1311,-4.1261,-4.1047,-4.0883,-4.0883,-4.044,-4.0185,-4.007,-3.9929,-3.9649,-3.9283,-3.8718,-3.8153,-3.7663,-3.7663,-3.7299,-3.6883,-3.6883,-3.6669,-3.6405,-3.6405,-3.6405,-3.6405,-3.6405,-3.6405,-3.6405,-3.6405,-3.6405,-3.6405,-3.6405,-3.6405,-3.6405,-3.6405,-3.6405,-3.6405,-3.6405,-3.6405,-3.6329,-3.6056,-3.6019,-3.5943,-3.5705,-3.5127,-3.468,-3.468,-3.468,-3.468,-3.468,-3.4512,-3.4286,-3.406,-3.4035,-3.4035,-3.4035,-3.3734,-3.3558,-3.3558,-3.3257,-3.3038,-3.2939,-3.2766,-3.2593,-3.24,-3.2257,-3.2038,-3.1849,-3.1849,-3.1761,-3.4863,0.0,0.0,-3.6246,-3.6889,-3.7169,-3.658,-3.6752,-3.6903,-3.6415,-3.6186,-3.6114,-3.6442,-3.6142,-3.6151,-3.6886,-3.7142,-3.7403,-3.7848,-3.79,-3.79,-3.79,-3.8031,-3.8344,-3.8906,-3.9351,-3.9834,-4.037,-4.0971,-4.1311,-4.1311,-4.1311,-4.1311,-4.1311,-4.1311,-4.1311,-4.1311,-4.1311,-4.1311,-4.1311,-4.1311,-4.1311,-4.1311,-4.1311,-4.1311,-4.1261,-4.0946,-4.0795,-4.0744,-4.0236,-3.9981,-3.9981,-3.9788,-3.9697,-3.9647,-3.9245,-3.873,-3.8253,-3.8253,-3.7877,-3.7387,-3.7236,-3.6958,-3.6606,-3.6455,-3.6405,-3.6405,-3.6405,-3.6405,-3.6405,-3.6405,-3.6405,-3.6405,-3.6405,-3.6405,-3.6405,-3.6405,-3.6405,-3.6405,-3.6405,-3.6405,-3.6405,-3.6405,-3.6405,-3.6405,-3.6405,-3.568,-3.5177,-3.5177,-3.5177,-3.5115,-3.4919,-3.4906,-3.4843,-3.4693,-3.468,-3.468,-3.468,-3.4349,-3.4123,-3.4123,-3.3746,-3.3533,-3.3533,-3.3346,-3.3108,-3.2828,-3.2609,-3.2347,-3.1969,-3.1937,-3.1849,0.0,0.0,-3.5379,-3.7334,-3.808,-3.832,-3.8156,-3.813,-3.7904,-3.706,-3.6866,-3.6802,-3.6552,-3.6969,-3.7279,-3.7041,-3.7495,-3.7887,-3.79,-3.79,-3.79,-3.79,-3.837,-3.8919,0.0,-3.9599,-3.9834,-4.037,-4.0971,-4.1311,-4.1311,-4.1311,-4.1311,-4.1311,-4.1311,-4.1311,-4.1311,-4.1311,-4.1311,-4.1311,-4.1311,-4.1311,-4.1311,-4.1311,-4.1311,-4.1261,-4.0757,-4.0504,-4.0453,-3.9942,-3.9697,-3.9697,-3.9697,-3.9697,-3.9697,-3.9672,-3.932,-3.8894,-3.8894,-3.8467,-3.7889,-3.7362,-3.7174,-3.7061,-3.6568,-3.6405,-3.6405,-3.6405,-3.6405,-3.6405,-3.6405,-3.6405,-3.6405,-3.6405,-3.6405,-3.6405,-3.6405,-3.6405,-3.6405,-3.6405,-3.6405,-3.6405,-3.6405,-3.6405,-3.6405,-3.6405,-3.638,-3.6355,-3.6355,-3.6355,-3.6107,-3.5533,-3.547,-3.5257,-3.4718,-3.468,-3.468,-3.468,-3.4655,-3.47,-3.47,-3.4675,-3.4675,-3.4675,-3.463,-3.4367,-3.3828,-3.3828,-3.3421,-3.2667,-3.2475,-3.2257,-3.4618,-3.5855,-3.7119,-3.8,-3.8642,-3.9053,-3.9023,-3.901,-3.8922,-3.8634,-3.7773,-3.7171,-3.7455,-3.7095,-3.6814,-3.7133,-3.7606,-3.79,-3.79,-3.79,-3.79,-3.79,-3.8383,0.0,0.0,0.0,0.0,-4.0971,-4.1206,-4.1311,-4.1311,-4.1311,-4.1311,-4.1311,-4.1311,-4.1311,-4.1311,-4.1311,-4.1311,-4.1311,-4.1311,-4.1311,-4.1311,-4.1311,-4.1211,-4.0997,-4.0656,-4.0402,-4.0185,-3.9839,-3.9697,-3.9697,-3.9697,-3.9697,-3.9697,-3.9697,-3.9584,-3.9421,-3.9421,-3.9044,-3.8555,-3.8416,-3.804,-3.7701,-3.7513,-3.7199,-3.6958,-3.6958,-3.6681,-3.6405,-3.6405,-3.6405,-3.6405,-3.6405,-3.6405,-3.6405,-3.6405,-3.6405,-3.6405,-3.6405,-3.6405,-3.6405,-3.6405,-3.6405,-3.6405,-3.6405,-3.6405,-3.6405,-3.6405,-3.6405,-3.6329,-3.6107,-3.6094,-3.6006,-3.5818,-3.5805,-3.5805,-3.5805,-3.5466,-3.5219,-3.5219,-3.4868,-3.468,-3.468,-3.468,-3.4547,-3.4237,-3.4237,-3.399,-3.3555,-3.3478,-3.331,-3.5564,-3.6844,-3.7903,-3.8562,-3.9095,-3.9388,-3.9388,-3.9388,-3.9388,-3.9388,-3.8462,-3.7696,-3.7953,-3.7192,-3.6634,-3.6927,-3.7148,-3.7338,-3.7547,-3.7586,-3.773,-3.8148,-3.8697,-3.9259,0.0,0.0,0.0,-4.1285,-4.1311,-4.1311,-4.1311,-4.1311,-4.1311,-4.1311,-4.1311,-4.1311,-4.1311,-4.1311,-4.1311,-4.1311,-4.1311,-4.1311,-4.1311,-4.1311,-4.1211,-4.1047,-4.0656,-4.0389,-4.0236,-3.9839,-3.9697,-3.9697,-3.9697,-3.9697,-3.9697,-3.9697,-3.9697,-3.9697,-3.9697,-3.9459,-3.9132,-3.8931,-3.8617,-3.8278,-3.8065,-3.7764,-3.7475,-3.7475,-3.7224,-3.6996,-3.6996,-3.6996,-3.6945,-3.6744,-3.6707,-3.6644,-3.6455,-3.6405,-3.6405,-3.6405,-3.6405,-3.6405,-3.6405,-3.6405,-3.6405,-3.6405,-3.6405,-3.6405,-3.6405,-3.6405,-3.6405,-3.6405,-3.6405,-3.6405,-3.6405,-3.6405,-3.6405,-3.6405,-3.6031,-3.583,-3.583,-3.5491,-3.5316,-3.5316,-3.5316,-3.5123,-3.4799,-3.4799,-3.4595,-3.4247,-3.4168,-3.4031,-3.7182,-3.7688,-3.7823,-3.9059,-3.9388,-3.9388,-3.9388,-3.9388,-3.9394,-3.9298,-3.8781,-3.8204,0.0,0.0,-3.6642,-3.6402,-3.625,-3.6358,-3.6972,-3.705,-3.7469,0.0,0.0,0.0,0.0,0.0,0.0,-4.1311,0.0,-4.1311,-4.1311,-4.1311,-4.1311,-4.1311,-4.1311,-4.1311,-4.1311,-4.1311,-4.1311,-4.1311,-4.1311,-4.1311,-4.1311,-4.1311,-4.1261,-4.1211,-4.0707,-4.0504,-4.0402,-3.9903,-3.9697,-3.9697,-3.9697,-3.9697,-3.9697,-3.9697,-3.9697,-3.9697,-3.9697,-3.9697,-3.9609,-3.9082,-3.8957,-3.8806,-3.8266,-3.8078,-3.8052,-3.8052,-3.8027,-3.8002,-3.8002,-3.8002,-3.7877,-3.7349,-3.7224,-3.7086,-3.6606,-3.6493,-3.6493,-3.6493,-3.6493,-3.648,-3.6455,-3.6455,-3.6443,-3.6417,-3.6405,-3.6405,-3.6405,-3.6405,-3.6405,-3.6405,-3.6405,-3.6405,-3.6405,-3.6405,-3.6405,-3.6405,-3.6405,-3.6405,-3.6405,-3.6405,-3.6405,-3.6405,-3.6405,-3.6107,-3.5545,-3.5545,-3.527,-3.4756,-3.4599,-3.452,-3.7462,-3.8172,-3.8955,-3.9298,-3.9388,-3.9388,-3.9388,-3.9388,-3.914,-3.8138,-3.7419,-3.6649,0.0,0.0,0.0,-3.5834,-3.6373,0.0,-3.7586,-3.7678,0.0,-3.8632,0.0,-3.9821,-4.0357,-4.0971,0.0,0.0,-4.1311,-4.1311,-4.1311,-4.1311,-4.1311,-4.1311,-4.1311,-4.1311,-4.1311,-4.1311,-4.1311,-4.1311,-4.1311,-4.1311,-4.1311,-4.1311,-4.106,-4.0707,-4.0555,-4.0249,-3.989,-3.9749,-3.9697,-3.9697,-3.9697,-3.9697,-3.9697,-3.9697,-3.9697,-3.9697,-3.9697,-3.9697,-3.9672,-3.9534,-3.9484,-3.9459,-3.9308,-3.8981,-3.8655,-3.8655,-3.8341,-3.8002,-3.8002,-3.8002,-3.7977,-3.7839,-3.7801,-3.7764,-3.7613,-3.7588,-3.7588,-3.7588,-3.7588,-3.7462,-3.7048,-3.6973,-3.6835,-3.6468,-3.6405,-3.6405,-3.6405,-3.6405,-3.6405,-3.6405,-3.6405,-3.6405,-3.6405,-3.6405,-3.6405,-3.6405,-3.6405,-3.6405,-3.6405,-3.6405,-3.6405,-3.6405,-3.6405,-3.6329,-3.6157,-3.6157,-3.6081,-3.5943,-3.5897,-3.5769,-3.8242,-3.8876,-3.9517,-3.9409,-3.9388,-3.9275,-3.8676,-3.8527,-3.8167,-3.6851,-3.6058,0.0,0.0,0.0,0.0,0.0,0.0,0.0,-3.7159,-3.7685,-3.8344,0.0,-3.9403,0.0,-4.0736,-4.1115,-4.1311,0.0,-4.1311,-4.1311,-4.1311,-4.1311,-4.1311,-4.1311,-4.1311,-4.1311,-4.1311,-4.1311,-4.1311,-4.1311,-4.1311,-4.1311,-4.1311,-4.1311,-4.106,-4.0643,0.0,-4.0249,-3.989,-3.9736,-3.9697,-3.9697,-3.9697,-3.9697,-3.9697,-3.9697,-3.9697,-3.9697,-3.9697,-3.9697,-3.9697,-3.9697,-3.9697,-3.9697,-3.9697,-3.9484,-3.9233,-3.9233,-3.8994,-3.8755,-3.8755,-3.8755,-3.868,-3.8442,-3.8379,-3.8316,-3.8065,-3.8002,-3.8002,-3.8002,-3.8002,-3.7902,-3.76,-3.755,-3.7437,-3.7123,-3.7086,-3.7086,-3.7086,-3.6707,-3.6405,-3.6405,-3.6405,-3.6405,-3.6405,-3.6405,-3.6405,-3.6405,-3.6405,-3.6405,-3.6405,-3.6405,-3.6405,-3.6405,-3.6405,-3.6405,-3.6405,-3.6405,-3.6405,-3.6405,-3.6405,-3.6323,-3.9253,-3.9589,-3.9661,-3.9481,-3.9409,-3.9065,-3.7719,-3.7404,-3.7,-3.5534,0.0,-3.4324,-3.4113,0.0,-3.4663,-3.4212,0.0,-3.7425,-3.6545,-3.7621,-3.8774,-3.9498,-3.9612,-4.0056,-4.1206,-4.1311,-4.1311,-4.1311,-4.1311,-4.1311,-4.1311,-4.1311,-4.1311,-4.1311,-4.1311,-4.1311,-4.1311,-4.1311,-4.1311,-4.1311,-4.1311,-4.1311,-4.1311,-4.1311,-4.1161,-4.0846,0.0,0.0,-4.0032,-3.9788,-3.9697,-3.9697,-3.9697,-3.9697,-3.9697,-3.9697,-3.9697,-3.9697,-3.9697,-3.9697,-3.9697,-3.9697,-3.9697,-3.9697,-3.9697,-3.9697,-3.9697,-3.9697,-3.9697,-3.9697,-3.9697,-3.9697,-3.9572,-3.9094,-3.9032,-3.8843,-3.8341,-3.8228,-3.8228,-3.8228,-3.8228,-3.8203,-3.814,-3.8115,-3.809,-3.8015,-3.8002,-3.8002,-3.8002,-3.7174,-3.6631,-3.6631,-3.6631,-3.6593,-3.6518,-3.6518,-3.648,-3.6417,-3.6405,-3.6405,-3.6405,-3.6405,-3.6405,-3.6405,-3.6405,-3.6405,-3.6405,-3.6405,-3.6405,-3.6405,-3.6405,-3.6405,-3.9864,-3.9803,-3.9681,-3.9661,-3.9517,-3.9065,-3.7719,-3.7404,0.0,0.0,-3.3739,-3.3335,-3.2213,-3.2451,0.0,-3.4692,0.0,0.0,0.0,0.0,-3.9217,0.0,0.0,0.0,0.0,0.0,0.0,0.0,0.0,0.0,-4.1311,-4.1311,-4.1311,-4.1311,-4.1311,-4.1311,-4.1311,-4.1311,-4.1311,-4.1311,-4.1311,-4.1311,-4.1311,-4.1311,-4.101,-4.0555,-4.0504,0.0,-3.9788,-3.9749,-3.9697,-3.9697,-3.9697,-3.9697,-3.9697,-3.9697,-3.9697,-3.9697,-3.9697,-3.9697,-3.9697,-3.9697,-3.9697,-3.9697,-3.9697,-3.9697,-3.9697,-3.9697,-3.9697,-3.9697,-3.9697,-3.9697,-3.9672,-3.9572,-3.9546,-3.9521,-3.9421,-3.9396,-3.9396,-3.9396,-3.9396,-3.9258,-3.8793,-3.8718,-3.8555,-3.8078,-3.8002,-3.8002,-3.8002,-3.7839,-3.7713,-3.7713,-3.7713,-3.7538,-3.7073,-3.7048,-3.6895,-3.6443,-3.6405,-3.6405,-3.6405,-3.6405,-3.6405,-3.6405,-3.6405,-3.6405,-3.6405,-3.6405,-3.6405,-3.6405,-3.6405,-3.6405,-4.0031,-3.9996,-3.998,-3.9753,-3.9625,-3.8992,-3.69,0.0,0.0,0.0,-3.2452,-3.2243,-3.1615,0.0,0.0,0.0,0.0,0.0,0.0,0.0,0.0,0.0,0.0,0.0,0.0,0.0,0.0,0.0,0.0,0.0,-4.1311,-4.1311,-4.1311,-4.1311,-4.1311,-4.1311,-4.1311,-4.1311,-4.1311,-4.1311,-4.1311,-4.1311,-4.1311,-4.1311,-4.101,-4.0504,-4.0504,0.0,-3.9697,-3.9697,-3.9697,-3.9697,-3.9697,-3.9697,-3.9697,-3.9697,-3.9697,-3.9697,-3.9697,-3.9697,-3.9697,-3.9697,-3.9697,-3.9697,-3.9697,-3.9697,-3.9697,-3.9697,-3.9697,-3.9697,-3.9697,-3.9697,-3.9697,-3.9697,-3.9697,-3.9697,-3.9697,-3.9697,-3.9697,-3.9697,-3.9697,-3.9609,-3.9346,-3.9295,-3.9207,-3.8931,-3.8881,-3.8881,-3.8881,-3.8881,-3.8655,-3.8065,-3.8002,-3.7902,-3.7638,-3.7613,-3.75,-3.7236,-3.6996,-3.6832,-3.6832,-3.6568,-3.6405,-3.6405,-3.6405,-3.6405,-3.6405,-3.6405,-3.6405,-3.6405,-3.6405,-3.6405,-4.0126,-4.0207,-4.0191,-3.9839,-3.9732,-3.8968,-3.6136,-3.5504,0.0,0.0,-3.1511,-3.1511,-3.1511,0.0,0.0,0.0,0.0,0.0,0.0,0.0,0.0,0.0,0.0,0.0,0.0,0.0,0.0,0.0,0.0,0.0,-4.1311,-4.1311,-4.1376,-4.1494,-4.1494,-4.1559,-4.1677,-4.1677,-4.1677,-4.1677,-4.1677,-4.1712,-4.1831,-4.1831,-4.1553,-4.1108,-4.092,0.0,0.0,-4.0032,-4.0032,-4.0032,-4.0032,-4.0032,-3.9981,-3.9788,-3.9697,-3.9697,-3.9697,-3.9697,-3.9697,-3.9697,-3.9697,-3.9697,-3.9697,-3.9697,-3.9697,-3.9697,-3.9697,-3.9697,-3.9697,-3.9697,-3.9697,-3.9697,-3.9697,-3.9697,-3.9697,-3.9697,-3.9697,-3.9697,-3.9697,-3.9697,-3.9697,-3.9697,-3.9697,-3.9697,-3.9697,-3.9697,-3.9697,-3.9697,-3.9358,-3.8467,-3.8366,-3.8316,-3.8203,-3.8191,-3.814,-3.8015,-3.76,-3.7362,-3.7362,-3.6883,-3.6581,-3.6581,-3.6468,-3.6405,-3.6405,-3.6405,-3.6405,-3.6405,-3.6405,-3.6405,-4.0301,-4.0366,-4.0242,-4.0031,-3.9839,-3.8968,-3.6136,0.0,0.0,-3.2049,-3.1511,-3.1511,-3.1511,-3.16,0.0,0.0,0.0,0.0,0.0,0.0,0.0,0.0,0.0,0.0,0.0,0.0,0.0,0.0,0.0,0.0,0.0,-4.1311,-4.1546,-4.212,-4.2146,-4.2343,-4.2866,-4.2866,-4.2866,-4.2866,-4.2866,-4.3092,-4.3499,-4.3499,-4.3405,-4.317,-4.2266,0.0,0.0,-4.1082,-4.1082,-4.1082,-4.1082,-4.1082,-4.0932,-4.0032,-3.9697,-3.9697,-3.9697,-3.9697,-3.9697,-3.9697,-3.9697,-3.9697,-3.9697,-3.9697,-3.9697,-3.9697,-3.9697,-3.9697,-3.9697,-3.9697,-3.9697,-3.9697,-3.9697,-3.9697,-3.9697,-3.9697,-3.9697,-3.9697,-3.9697,-3.9697,-3.9697,-3.9697,-3.9697,-3.9697,-3.9697,-3.9697,-3.9697,-3.9697,-3.9647,-3.9546,-3.9534,-3.9333,-3.8881,-3.8844,-3.8567,-3.804,-3.7952,-3.7939,-3.7939,-3.74,-3.7111,-3.7111,-3.6669,-3.6405,-3.6405,-3.6405,-3.6405,-3.6405,-3.6405,-3.6405,-4.0355,-4.047,-4.0366,-4.0242,-3.9547,-3.8348,-3.617,0.0,0.0,-3.1913,-3.1511,-3.1511,-3.1511,-3.1511,-3.1675,0.0,0.0,0.0,0.0,0.0,0.0,0.0,0.0,0.0,0.0,0.0,0.0,0.0,0.0,0.0,0.0,-4.2299,-4.2229,-4.3132,-4.3466,-4.3761,-4.4001,-4.4633,-4.4633,-4.3988,-4.4683,-4.4853,-4.4664,-4.4664,-4.4255,-4.3504,-4.3074,0.0,0.0,-4.2146,-4.2146,-4.2146,-4.2146,-4.2146,-4.211,-4.173,-4.1581,-4.1581,-4.1581,-4.1145,-4.0706,-4.1332,-4.1145,-4.0503,-3.989,-3.9697,-3.9697,-3.9697,-3.9697,-3.9697,-3.9697,-3.9697,-3.9697,-3.9697,-3.9697,-3.9697,-3.9697,-3.9697,-3.9697,-3.9697,-3.9697,-3.9697,-3.9697,-3.9697,-3.9697,-3.9697,-3.9697,-3.9697,-3.9697,-3.9697,-3.9697,-3.9697,-3.9697,-3.9597,-3.9383,-3.9371,-3.927,-3.9032,-3.8718,-3.853,-3.853,-3.7977,-3.7525,-3.7199,-3.6973,-3.6732,-3.6405,-3.6405,-3.6405,-3.6405,-3.6405,-3.6405,-4.0118,-4.037,-4.047,-4.0331,-3.9339,-3.7943,0.0,0.0,0.0,-3.1968,-3.1568,-3.1511,-3.1568,-3.1539,-3.1524,0.0,0.0,-3.3725,0.0,0.0,0.0,0.0,0.0,0.0,0.0,0.0,0.0,0.0,0.0,0.0,0.0,-4.3703,-4.3498,-4.4453,-4.5015,-4.5463,-4.5669,-4.644,-4.6293,-4.5317,-4.6111,-4.624,-4.5713,-4.5713,-4.5218,-4.441,0.0,0.0,0.0,-4.3211,-4.3211,-4.3211,-4.3211,-4.3211,-4.3211,-4.2937,-4.2792,-4.2792,-4.2792,-4.2306,-4.1815,-4.2536,-4.2306,-4.1518,-4.0857,-4.0618,-4.0465,-3.989,-3.9929,-4.0224,-4.0516,-4.0618,-4.0516,-4.0224,-4.0377,-4.0516,-4.0224,-4.0364,-4.0516,-4.0224,-4.0121,-4.0032,-3.9736,-3.9697,-3.9697,-3.9697,-3.9697,-3.9697,-3.9697,-3.9697,-3.9697,-3.9697,-3.9697,-3.9697,-3.9697,-3.9697,-3.9697,-3.9697,-3.9333,-3.912,-3.912,-3.8567,-3.8078,-3.7688,-3.7513,-3.7161,-3.6656,-3.6656,-3.6568,-3.6405,-3.6405,-3.6405,-3.9466,-4.0149,-4.047,-4.0331,-3.9339,-3.8008,0.0,0.0,0.0,-3.227,-3.1726,-3.1568,-3.1756,-3.1626,-3.1626,-3.194,-3.2399,-3.3457,-3.559,0.0,0.0,0.0,0.0,0.0,0.0,0.0,0.0,0.0,0.0,0.0,0.0,-4.5405,-4.5459,-4.6062,-4.6729,-4.7333,-4.7951,-4.7951,-4.7642,-4.7002,-4.7002,-4.6906,-4.6688,-4.6688,-4.6628,0.0,0.0,0.0,0.0,-4.4266,-4.4266,-4.4266,-4.4266,-4.4266,-4.4172,-4.3163,-4.2792,-4.2792,-4.2792,-4.2792,-4.2792,-4.2792,-4.2792,-4.2792,-4.2792,-4.2792,-4.2355,-4.0275,-4.0415,-4.1419,-4.2501,-4.2792,-4.2501,-4.1419,-4.2012,-4.2501,-4.1419,-4.1999,-4.2452,-4.1369,-4.1169,-4.0882,-3.989,-3.9697,-3.9697,-3.9697,-3.9697,-3.9697,-3.9697,-3.9697,-3.9697,-3.9697,-3.9697,-3.9697,-3.9697,-3.9697,-3.9697,-3.9697,-3.9685,-3.9685,-3.9685,-3.9157,-3.8906,-3.8906,-3.8291,-3.7726,-3.7174,-3.7174,-3.6945,-3.6405,-3.6405,-3.6405,-3.7592,-3.7934,-3.8026,-3.801,-3.7049,-3.5991,-3.5333,0.0,0.0,-3.2129,-3.1726,-3.1511,-3.1568,-3.1539,-3.1524,-3.1655,-3.1964,-3.2788,0.0,0.0,0.0,0.0,0.0,0.0,0.0,0.0,0.0,0.0,0.0,0.0,0.0,-4.7124,-4.7097,-4.6577,-4.7133,-4.7535,-4.7736,-4.8494,-4.8392,-4.7434,-4.8188,-4.8303,-4.7807,-4.7807,0.0,0.0,0.0,0.0,0.0,-4.5384,-4.5384,-4.5384,-4.5384,-4.5384,-4.5338,-4.5064,-4.4911,-4.4911,-4.4911,-4.442,-4.3937,-4.4666,-4.442,-4.3829,-4.3829,-4.3355,-4.2647,-4.2012,-4.2061,-4.2341,-4.2695,-4.2792,-4.2695,-4.2341,-4.2536,-4.2695,-4.2355,-4.2536,-4.2695,-4.2341,-4.2293,-4.2208,-4.1864,-4.1182,-4.0743,-4.0743,-4.0121,-3.9697,-3.9697,-3.9697,-3.9697,-3.9697,-3.9697,-3.9697,-3.9697,-3.9697,-3.9697,-3.9697,-3.9697,-3.9697,-3.9697,-3.9534,-3.9258,-3.8932,-3.8693,-3.8316,-3.7751,-3.7362,-3.6897,-3.6405,-3.6405,-3.6405,0.0,-3.675,-3.6922,-3.6922,-3.5982,0.0,0.0,0.0,0.0,-3.2191,-3.1811,-3.1511,-3.1597,-3.1597,-3.1655,-3.1754,-3.1953,-3.2629,-3.4227,0.0,0.0,0.0,0.0,0.0,0.0,0.0,0.0,0.0,0.0,0.0,0.0,-4.7698,-4.7629,-4.702,-4.7812,-4.8221,-4.8221,-4.8968,-4.8834,-4.7854,-4.8596,-4.8551,-4.7923,-4.7923,0.0,0.0,0.0,0.0,0.0,-4.5925,-4.588,-4.588,-4.588,-4.588,-4.588,-4.588,-4.588,-4.588,-4.588,-4.5444,-4.5003,-4.5685,-4.5444,-4.4897,-4.4897,-4.3937,-4.2985,-4.3748,-4.3701,-4.3464,-4.3857,-4.3951,-4.3857,-4.345,-4.3701,-4.3857,-4.345,-4.3701,-4.3857,-4.345,-4.3355,-4.3259,-4.2889,-4.19,-4.1219,-4.1219,-4.0364,-3.9697,-3.9697,-3.9697,-3.9697,-3.9697,-3.9697,-3.9697,-3.9697,-3.9697,-3.9697,-3.9697,-3.9697,-3.9697,-3.9697,-3.9697,-3.9534,-3.9195,-3.9182,-3.8906,-3.8329,-3.7563,-3.6897,-3.6405,-3.6405,-3.6405,0.0,0.0,0.0,0.0,0.0,0.0,0.0,0.0,0.0,0.0,0.0,-3.1568,-3.1756,-3.1799,-3.1898,-3.2135,-3.2237,-3.2986,0.0,0.0,0.0,0.0,0.0,0.0,0.0,0.0,0.0,0.0,0.0,0.0,0.0,-4.7309,-4.7309,-4.7309,-4.8491,-4.9179,-4.9179,-4.9179,-4.8865,-4.8222,-4.8222,-4.7893,-4.7309,-4.7309,0.0,0.0,0.0,0.0,0.0,-4.597,-4.588,-4.588,-4.588,-4.588,-4.588,-4.588,-4.588,-4.588,-4.588,-4.588,-4.588,-4.588,-4.588,-4.588,-4.588,-4.4573,-4.3416,-4.5353,-4.5187,-4.4652,-4.564,-4.588,-4.564,-4.4652,-4.5187,-4.564,-4.4652,-4.5201,-4.5595,-4.4606,-4.4406,-4.4125,-4.3177,-4.2146,-4.1419,-4.1319,-4.0453,-3.9788,-3.9697,-3.9697,-3.9697,-3.9697,-3.9697,-3.9697,-3.9697,-3.9697,-3.9697,-3.9697,-3.9697,-3.9697,-3.9697,-3.9697,-3.9697,-3.9697,-3.9697,-3.9396,-3.8806,-3.7751,-3.6935,-3.6405,-3.6405,-3.6405,-3.384,0.0,-3.4136,-3.4136,-3.3927,-3.3718,0.0,0.0,0.0,0.0,0.0,0.0,0.0,0.0,-3.1841,-3.2025,-3.2577,-3.3615,-3.5473,0.0,0.0,0.0,0.0,0.0,0.0,0.0,0.0,0.0,0.0,0.0,0.0,-4.7309,-4.7309,-4.7309,-4.7608,-4.7773,-4.7773,-4.7773,-4.7683,-4.7534,-4.7534,-4.7459,-4.7309,-4.7309,0.0,0.0,0.0,0.0,-4.6165,-4.597,-4.588,-4.588,-4.588,-4.588,-4.588,-4.588,-4.588,-4.588,-4.588,-4.588,-4.588,-4.588,-4.588,-4.588,-4.588,-4.5549,-4.5261,-4.5745,-4.573,-4.5595,-4.5835,-4.588,-4.5835,-4.5595,-4.573,-4.5835,-4.5595,-4.573,-4.5835,-4.5595,-4.5535,-4.5444,-4.5201,-4.428,-4.3307,-4.2536,-4.1518,-4.0554,-3.9788,-3.9697,-3.9697,-3.9697,-3.9697,-3.9697,-3.9697,-3.9697,-3.9697,-3.9697,-3.9697,-3.9697,-3.9697,-3.9697,-3.9697,-3.9697,-3.9697,-3.9207,-3.8203,-3.7939,-3.7312,-3.6405,-3.6405,-3.6405,-3.3388,-3.3309,-3.3309,-3.3309,-3.3309,-3.3309,0.0,0.0,0.0,0.0,0.0,0.0,0.0,0.0,0.0,-3.2172,-3.3419,0.0,0.0,0.0,0.0,0.0,0.0,0.0,0.0,0.0,0.0,0.0,0.0,0.0,0.0,-4.7309,-4.7309,-4.7309,-4.7309,-4.7309,-4.7309,-4.7309,-4.7309,-4.7309,-4.7309,-4.7309,-4.7309,-4.7309,-4.7207,0.0,0.0,0.0,-4.6358,-4.6135,-4.597,-4.588,-4.588,-4.588,-4.588,-4.588,-4.588,-4.588,-4.588,-4.588,-4.588,-4.588,-4.588,-4.588,-4.588,-4.588,-4.588,-4.588,-4.588,-4.588,-4.588,-4.588,-4.588,-4.588,-4.588,-4.588,-4.588,-4.588,-4.588,-4.588,-4.588,-4.588,-4.588,-4.5003,-4.4125,-4.3545,-4.2195,-4.0982,-4.0453,-3.9981,-3.9697,-3.9697,-3.9697,-3.9697,-3.9697,-3.9697,-3.9697,-3.9697,-3.9697,-3.9697,-3.9697,-3.9697,-3.9697,-3.9697,-3.9697,-3.9132,-3.8002,-3.8002,-3.7437,-3.6405,-3.6405,-3.6405,-3.345,-3.3424,-3.3535,-3.3356,-3.3309,-3.3282,-3.3256,0.0,0.0,0.0,0.0,0.0,0.0,0.0,0.0,0.0,0.0,0.0,0.0,0.0,0.0,0.0,0.0,0.0,0.0,0.0,0.0,0.0,0.0,0.0,0.0,-4.7309,-4.7309,-4.7309,-4.7309,-4.7309,-4.7309,-4.7309,-4.7309,-4.7309,-4.7309,-4.7309,-4.7309,-4.7309,-4.7309,0.0,0.0,0.0,-4.6594,-4.6314,-4.609,-4.588,-4.588,-4.588,-4.588,-4.588,-4.588,-4.588,-4.588,-4.588,-4.588,-4.588,-4.588,-4.588,-4.588,-4.588,-4.588,-4.588,-4.588,-4.588,-4.588,-4.588,-4.588,-4.588,-4.588,-4.588,-4.588,-4.588,-4.588,-4.588,-4.588,-4.588,-4.588,-4.5155,-4.4499,-4.4312,-4.2668,-4.1468,-4.1468,-4.0415,-3.9736,-3.9929,-3.9788,-3.9697,-3.9697,-3.9697,-3.9697,-3.9697,-3.9697,-3.9697,-3.9697,-3.9697,-3.9697,-3.9697,-3.9609,-3.9057,-3.8002,-3.7927,-3.7362,-3.6405,-3.6405,-3.6405,-3.345,-3.4053,-3.4584,-3.3556,-3.3309,-3.3229,-3.3005,0.0,0.0,0.0,0.0,0.0,0.0,0.0,0.0,0.0,0.0,0.0,0.0,0.0,0.0,0.0,0.0,0.0,0.0,0.0,0.0,0.0,0.0,0.0,0.0,0.0,-4.7309,-4.7309,-4.7309,-4.7309,-4.7309,-4.7309,-4.7309,-4.7309,-4.7309,-4.7309,-4.7309,-4.7309,-4.7309,0.0,0.0,-4.68,-4.6594,-4.6314,-4.609,-4.588,-4.588,-4.588,-4.588,-4.588,-4.588,-4.588,-4.588,-4.588,-4.588,-4.588,-4.588,-4.588,-4.588,-4.588,-4.588,-4.588,-4.588,-4.588,-4.588,-4.588,-4.588,-4.588,-4.588,-4.588,-4.588,-4.588,-4.588,-4.588,-4.588,-4.588,-4.588,-4.5745,-4.5338,-4.4452,-4.3307,-4.2536,-4.2536,-4.0908,-4.0032,-4.0882,-4.0224,-3.9697,-3.9697,-3.9697,-3.9697,-3.9697,-3.9697,-3.9697,-3.9697,-3.9697,-3.9697,-3.9697,-3.9233,-3.8668,-3.8002,-3.7538,-3.6985,-3.6405,-3.6405,-3.6405,-3.3513,-3.3686,-3.4152,-3.4235,-3.476,-3.5167,-3.4864,0.0,0.0,0.0,0.0,0.0,0.0,0.0,0.0,0.0,0.0,0.0,0.0,0.0,0.0,0.0,0.0,0.0,0.0,0.0,0.0,0.0,0.0,0.0,0.0,0.0,-4.7309,-4.7309,-4.7309,-4.7309,-4.7309,-4.7309,-4.7309,-4.7309,-4.7309,-4.7309,-4.7309,-4.7309,-4.7309,-4.7309,0.0,-4.6975,-4.6756,-4.6624,-4.6447,-4.6284,-4.6105,-4.6046,-4.6046,-4.5925,-4.588,-4.588,-4.588,-4.588,-4.588,-4.588,-4.588,-4.588,-4.588,-4.588,-4.588,-4.588,-4.588,-4.588,-4.588,-4.588,-4.588,-4.588,-4.588,-4.588,-4.588,-4.588,-4.588,-4.588,-4.588,-4.588,-4.588,-4.588,-4.573,-4.5247,-4.428,-4.3592,-4.3592,-4.1815,-4.0693,-4.1169,-4.0313,-3.9697,-3.9697,-3.9697,-3.9697,-3.9697,-3.9697,-3.9697,-3.9697,-3.9697,-3.9697,-3.9697,-3.9145,-3.858,-3.8002,-3.745,-3.6897,-3.6405,-3.6405,-3.6405,-3.3565,-3.3519,-3.3943,-3.4801,0.0,-3.6097,-3.6322,0.0,0.0,0.0,0.0,0.0,0.0,0.0,0.0,0.0,0.0,0.0,0.0,0.0,0.0,0.0,0.0,0.0,0.0,0.0,0.0,0.0,0.0,0.0,0.0,0.0,-4.7309,-4.7309,-4.7309,-4.7309,-4.7309,-4.7309,-4.7309,-4.7309,-4.7309,-4.7309,-4.7309,-4.7309,-4.7309,-4.7309,-4.7309,-4.7164,-4.6916,-4.6916,-4.68,-4.6594,-4.6358,-4.6254,-4.6165,-4.597,-4.588,-4.588,-4.588,-4.588,-4.588,-4.588,-4.588,-4.588,-4.588,-4.588,-4.588,-4.588,-4.588,-4.588,-4.588,-4.588,-4.588,-4.588,-4.588,-4.588,-4.588,-4.588,-4.588,-4.588,-4.588,-4.588,-4.588,-4.588,-4.588,-4.588,-4.5003,-4.4406,-4.4652,-4.2861,-4.1654,-4.19,-4.0794,-3.9981,-3.9749,-3.9697,-3.9697,-3.9697,-3.9697,-3.9697,-3.9697,-3.9697,-3.9697,-3.9697,-3.9019,-3.8442,-3.8002,-3.7324,-3.682,-3.6405,-3.6405,-3.6405,-3.3565,-3.412,-3.4942,-3.4849,-3.4187,0.0,-3.583,-3.5536,0.0,-3.5339,0.0,0.0,0.0,0.0,0.0,0.0,0.0,0.0,0.0,0.0,0.0,0.0,0.0,0.0,0.0,0.0,0.0,0.0,0.0,0.0,0.0,0.0,0.0,-4.7309,-4.7309,-4.7309,-4.7309,-4.7309,-4.7309,-4.7309,-4.7309,-4.7309,-4.7309,-4.7309,-4.7309,-4.7309,-4.7309,-4.7164,-4.6916,-4.6916,-4.68,-4.6594,-4.6594,-4.6403,-4.6165,-4.597,-4.588,-4.588,-4.588,-4.588,-4.588,-4.588,-4.588,-4.588,-4.588,-4.588,-4.588,-4.588,-4.588,-4.588,-4.588,-4.588,-4.588,-4.588,-4.588,-4.588,-4.588,-4.588,-4.588,-4.588,-4.588,-4.588,-4.588,-4.588,-4.588,-4.588,-4.5003,-4.4652,-4.564,-4.3998,-4.3019,-4.3984,-4.2279,-4.0693,-3.9788,-3.9697,-3.9697,-3.9697,-3.9697,-3.9697,-3.9697,-3.9697,-3.9697,-3.9697,-3.8617,-3.8052,-3.8002,-3.6935,-3.6455,-3.6405,-3.6405,-3.6405,-3.4059,-3.4691,-3.5498,-3.508,-3.4704,0.0,0.0,-3.7067,-3.6809,-3.6451,-3.6634,0.0,0.0,0.0,0.0,0.0,0.0,0.0,0.0,0.0,0.0,0.0,0.0,0.0,0.0,0.0,0.0,0.0,0.0,0.0,0.0,0.0,0.0,-4.7309,-4.7309,-4.7309,-4.7309,-4.7309,-4.7309,-4.7309,-4.7309,-4.7309,-4.7309,-4.7309,-4.7309,-4.7309,-4.7309,-4.7251,-4.7164,-4.7164,-4.7121,-4.7005,-4.6727,-4.6447,-4.6165,-4.597,-4.588,-4.588,-4.588,-4.588,-4.588,-4.588,-4.588,-4.588,-4.588,-4.588,-4.588,-4.588,-4.588,-4.588,-4.588,-4.588,-4.588,-4.588,-4.588,-4.588,-4.588,-4.588,-4.588,-4.588,-4.588,-4.588,-4.588,-4.588,-4.588,-4.588,-4.5535,-4.5444,-4.5835,-4.462,-4.3876,-4.4266,-4.2425,-4.0794,-3.9788,-3.9697,-3.9697,-3.9697,-3.9697,-3.9697,-3.9697,-3.9697,-3.9534,-3.9195,-3.8404,-3.7839,-3.75,-3.6782,-3.6405,-3.6405,-3.6405,-3.6405,-3.4825,-3.5134,-3.5665,0.0,0.0,0.0,-3.7552,-3.7809,-3.7626,-3.7673,-3.7906,0.0,0.0,0.0,0.0,0.0,0.0,0.0,0.0,0.0,0.0,0.0,0.0,0.0,0.0,0.0,0.0,0.0,0.0,0.0,0.0,0.0,0.0,0.0,-4.7309,-4.7309,-4.7309,-4.7309,-4.7309,-4.7309,-4.7309,-4.7309,-4.7309,-4.7309,-4.7309,-4.7309,-4.7309,-4.7309,-4.7309,-4.7309,-4.7309,-4.7251,-4.6858,-4.658,-4.6388,-4.6194,-4.6105,-4.6105,-4.6105,-4.6105,-4.6105,-4.6105,-4.6105,-4.6105,-4.6015,-4.6001,-4.597,-4.5925,-4.588,-4.588,-4.588,-4.588,-4.588,-4.588,-4.588,-4.588,-4.588,-4.588,-4.588,-4.588,-4.588,-4.588,-4.588,-4.588,-4.588,-4.588,-4.588,-4.588,-4.588,-4.5247,-4.4652,-4.4359,-4.3006,-4.1604,-4.0262,-4.0173,-4.0032,-3.9749,-3.9697,-3.9697,-3.9697,-3.9697,-3.9433,-3.8932,-3.8304,-3.7739,-3.7186,-3.6681,-3.6405,-3.6405,-3.6405,-3.6405,-3.584,-3.5419,-3.5412,0.0,0.0,0.0,0.0,-3.7284,-3.6974,0.0,0.0,0.0,0.0,0.0,0.0,0.0,0.0,0.0,0.0,0.0,0.0,0.0,0.0,0.0,0.0,0.0,0.0,0.0,0.0,0.0,0.0,0.0,0.0,0.0,-4.7309,-4.7309,-4.7309,-4.7309,-4.7309,-4.7309,-4.7309,-4.7309,-4.7309,-4.7309,-4.7309,-4.7309,-4.7309,-4.7309,-4.7309,-4.7309,-4.7309,-4.7266,-4.7019,-4.6916,-4.6887,-4.6668,-4.6594,-4.6594,-4.6594,-4.6594,-4.6594,-4.6594,-4.6594,-4.655,-4.6269,-4.621,-4.618,-4.597,-4.588,-4.588,-4.588,-4.588,-4.588,-4.588,-4.588,-4.588,-4.588,-4.588,-4.588,-4.588,-4.588,-4.588,-4.588,-4.588,-4.588,-4.588,-4.588,-4.588,-4.588,-4.588,-4.5489,-4.4406,-4.4312,-4.3436,-4.1369,-4.1219,-4.0794,-3.9788,-3.9749,-3.9749,-3.9697,-3.9697,-3.9433,-3.8919,-3.8304,-3.7739,-3.7174,-3.6669,-3.6405,-3.6405,-3.6405,-3.6405,-3.5161,-3.6114,0.0,0.0,0.0,0.0,0.0,0.0,0.0,0.0,0.0,0.0,0.0,0.0,0.0,0.0,0.0,0.0,0.0,0.0,0.0,0.0,0.0,0.0,0.0,0.0,0.0,0.0,0.0,0.0,0.0,0.0,0.0,0.0,-4.7309,-4.7309,-4.7309,-4.7309,-4.7309,-4.7309,-4.7309,-4.7309,-4.7309,-4.7309,-4.7309,-4.7309,-4.7309,-4.7309,-4.7309,-4.7309,-4.7309,-4.7266,-4.7019,-4.6916,-4.6887,-4.6668,-4.6594,-4.6594,-4.6594,-4.6594,-4.6594,-4.6594,-4.6594,-4.655,-4.6269,-4.621,-4.618,-4.597,-4.588,-4.588,-4.588,-4.588,-4.588,-4.588,-4.588,-4.588,-4.588,-4.588,-4.588,-4.588,-4.588,-4.588,-4.588,-4.588,-4.588,-4.588,-4.588,-4.588,-4.588,-4.588,-4.5489,-4.4406,-4.4312,-4.3782,-4.2439,-4.2341,-4.2208,-4.1914,-4.1878,-4.1246,-3.9736,-3.9697,-3.9245,-3.8278,-3.809,-3.755,-3.6656,-3.6493,-3.6405,-3.6405,-3.6405,-3.6405,-3.6727,0.0,0.0,0.0,0.0,0.0,0.0,0.0,0.0,0.0,0.0,0.0,0.0,0.0,0.0,0.0,0.0,0.0,0.0,0.0,0.0,0.0,0.0,0.0,0.0,0.0,0.0,0.0,0.0,0.0,0.0,0.0,0.0,0.0,-4.7309,-4.7309,-4.7309,-4.7309,-4.7309,-4.7309,-4.7309,-4.7309,-4.7309,-4.7309,-4.7309,-4.7309,-4.7309,-4.7309,-4.7309,-4.7309,-4.7309,-4.7266,-4.7121,-4.7062,-4.7019,-4.6902,-4.6858,-4.6858,-4.6858,-4.6858,-4.6858,-4.6858,-4.6858,-4.6815,-4.658,-4.6447,-4.6314,-4.6194,-4.6015,-4.5925,-4.6015,-4.597,-4.588,-4.588,-4.588,-4.588,-4.588,-4.588,-4.588,-4.588,-4.588,-4.588,-4.588,-4.588,-4.588,-4.588,-4.588,-4.588,-4.588,-4.588,-4.564,-4.5003,-4.4943,-4.4513,-4.3497,-4.3402,-4.3211,-4.284,-4.2792,-4.2257,-4.1008,-4.0298,-3.9359,-3.8027,-3.7789,-3.7249,-3.6405,-3.6405,-3.6405,-3.6405,-3.6405,-3.6405,-3.9302,0.0,0.0,0.0,0.0,0.0,0.0,0.0,0.0,0.0,0.0,0.0,0.0,0.0,0.0,0.0,0.0,0.0,0.0,0.0,0.0,0.0,0.0,0.0,0.0,0.0,0.0,0.0,0.0,0.0,0.0,0.0,0.0,-4.7309,-4.7309,-4.7309,-4.7309,-4.7309,-4.7309,0.0,-4.7309,-4.7309,-4.7309,-4.7309,-4.7309,-4.7309,-4.7309,-4.7309,-4.7309,-4.7309,-4.7309,-4.7309,-4.7309,-4.7309,-4.7309,-4.7309,-4.7309,-4.7309,-4.7309,-4.7309,-4.7309,-4.7309,-4.7309,-4.7251,-4.6975,-4.6756,-4.6639,-4.6594,-4.6284,-4.6015,-4.618,-4.6046,-4.5925,-4.588,-4.588,-4.588,-4.588,-4.588,-4.588,-4.588,-4.588,-4.588,-4.588,-4.588,-4.588,-4.588,-4.588,-4.588,-4.588,-4.588,-4.588,-4.588,-4.588,-4.5489,-4.4513,-4.4452,-4.4078,-4.3129,-4.3081,-4.3033,-4.2937,-4.1294,-3.9718,-3.8163,-3.7511,-3.6958,-3.6405,-3.6405,-3.6405,-3.6405,-3.6405,-3.6405,0.0,-3.8334,0.0,0.0,0.0,0.0,0.0,0.0,0.0,0.0,0.0,0.0,0.0,0.0,0.0,0.0,0.0,0.0,0.0,0.0,0.0,0.0,0.0,0.0,0.0,0.0,0.0,0.0,0.0,0.0,0.0,0.0,0.0,-4.7309,-4.7309,-4.7309,-4.7309,-4.7309,-4.7309,0.0,-4.7309,-4.7309,-4.7309,-4.7309,-4.7309,-4.7309,-4.7309,-4.7309,-4.7309,-4.7309,-4.7309,-4.7309,-4.7309,-4.7309,-4.7309,-4.7309,-4.7309,-4.7309,-4.7309,-4.7309,-4.7309,-4.7309,-4.7309,-4.7251,-4.6975,-4.6887,-4.68,-4.6639,-4.655,-4.6417,-4.6254,-4.6165,-4.609,-4.5925,-4.588,-4.588,-4.588,-4.588,-4.588,-4.588,-4.588,-4.588,-4.588,-4.588,-4.588,-4.588,-4.588,-4.588,-4.588,-4.588,-4.588,-4.588,-4.588,-4.579,-4.5595,-4.5535,-4.5444,-4.5261,-4.5201,-4.4865,-4.4031,-4.1668,-4.0047,-3.9293,-3.7886,-3.6958,-3.6405,-3.6405,-3.6405,-3.6405,-3.6405,-3.6405,0.0,0.0,0.0,0.0,0.0,0.0,0.0,0.0,0.0,0.0,0.0,0.0,0.0,0.0,0.0,0.0,0.0,0.0,0.0,0.0,0.0,0.0,0.0,0.0,0.0,0.0,0.0,0.0,0.0,0.0,0.0,-4.6471,-4.683,-4.683,-4.7145,-4.7309,-4.7309,-4.7309,-4.7309,-4.7309,-4.7309,-4.7309,-4.7309,-4.7309,-4.7309,-4.7309,-4.7309,-4.7309,-4.7309,-4.7309,-4.7309,-4.7309,-4.7309,-4.7309,-4.7309,-4.7309,-4.7309,-4.7309,-4.7309,-4.7309,-4.7309,-4.7309,-4.7309,-4.7266,-4.7121,-4.7019,-4.6916,-4.6946,-4.6771,-4.6594,-4.6521,-4.6388,-4.6165,-4.6046,-4.597,-4.588,-4.588,-4.588,-4.588,-4.588,-4.588,-4.588,-4.588,-4.588,-4.588,-4.588,-4.588,-4.588,-4.588,-4.588,-4.588,-4.588,-4.588,-4.588,-4.588,-4.588,-4.588,-4.588,-4.588,-4.564,-4.5095,-4.2735,-4.0844,-3.9616,-3.7763,-3.6694,-3.6405,-3.6405,-3.6405,-3.6405,-3.6405,-3.6405,0.0,0.0,0.0,0.0,0.0,0.0,0.0,0.0,0.0,0.0,0.0,0.0,0.0,0.0,0.0,0.0,0.0,0.0,0.0,0.0,0.0,0.0,0.0,0.0,0.0,0.0,0.0,0.0,0.0,0.0,-4.5125,-4.5768,-4.6142,-4.6142,-4.68,-4.713,-4.713,-4.7249,-4.7309,-4.7309,-4.7309,-4.7309,-4.7309,-4.7309,-4.7309,-4.7309,-4.7309,-4.7309,-4.7309,-4.7309,-4.7309,-4.7309,-4.7309,-4.7309,-4.7309,-4.7309,-4.7309,-4.7309,-4.7309,-4.7309,-4.7309,-4.7309,-4.7309,-4.7309,-4.7309,-4.7164,-4.7019,-4.7251,-4.7033,-4.6771,-4.6887,-4.6565,-4.6254,-4.621,-4.6046,-4.588,-4.588,-4.588,-4.588,-4.588,-4.588,-4.588,-4.588,-4.588,-4.588,-4.588,-4.588,-4.588,-4.588,-4.588,-4.588,-4.588,-4.588,-4.588,-4.588,-4.588,-4.588,-4.588,-4.588,-4.588,-4.588,-4.3702,-4.169,-3.9876,-3.7741,-3.6546,-3.6405,-3.6405,-3.6405,-3.6405,-3.6405,-3.6405,0.0,0.0,0.0,0.0,0.0,0.0,0.0,0.0,0.0,0.0,0.0,0.0,0.0,0.0,0.0,0.0,0.0,0.0,0.0,0.0,0.0,0.0,0.0,0.0,0.0,0.0,0.0,0.0,0.0,0.0,-4.4451,-4.5065,-4.5424,-4.5424,-4.6097,-4.6414,-4.6414,-4.7025,-4.7309,-4.7309,-4.7309,-4.7309,-4.7309,-4.7309,-4.7309,-4.7309,-4.7309,-4.7309,-4.7309,-4.7309,-4.7309,-4.7309,-4.7309,-4.7309,-4.7309,-4.7309,-4.7309,-4.7309,-4.7309,-4.7309,-4.7309,-4.7309,-4.7309,-4.7309,-4.7309,-4.7266,-4.7251,-4.7309,-4.7251,-4.7164,-4.6975,-4.6712,-4.6506,-4.6254,-4.6046,-4.588,-4.588,-4.588,-4.588,-4.588,-4.588,-4.588,-4.588,-4.588,-4.588,-4.588,-4.588,-4.588,-4.588,-4.588,-4.588,-4.588,-4.588,-4.588,-4.588,-4.588,-4.588,-4.588,-4.588,-4.588,-4.588,-4.3702,-4.2008,-4.0928,-3.8741,-3.7222,-3.6405,-3.6405,-3.6405,-3.6405,-3.6405,-3.6405,0.0,0.0,0.0,0.0,0.0,0.0,0.0,0.0,0.0,0.0,0.0,0.0,0.0,0.0,0.0,0.0,0.0,0.0,0.0,0.0,0.0,0.0,0.0,0.0,0.0,0.0,0.0,0.0,0.0,-4.3723,-4.3723,-4.4392,-4.4751,-4.4751,-4.5394,-4.5753,-4.5753,-4.6411,-4.6935,-4.7309,-4.7309,-4.7309,-4.7309,-4.7309,-4.7309,-4.7309,-4.7309,-4.7309,-4.7309,-4.7309,-4.7309,-4.7309,-4.7309,-4.7309,-4.7309,-4.7309,-4.7309,-4.7309,-4.7309,-4.7309,-4.7309,-4.7309,-4.7309,-4.7309,-4.7309,-4.7309,-4.7309,-4.7309,-4.7309,-4.7266,-4.7164,-4.6858,-4.655,-4.6447,-4.615,-4.588,-4.588,-4.588,-4.588,-4.588,-4.588,-4.588,-4.588,-4.588,-4.588,-4.588,-4.588,-4.588,-4.588,-4.588,-4.588,-4.588,-4.588,-4.588,-4.588,-4.588,-4.588,-4.588,-4.588,-4.588,-4.588,-4.4597,-4.3003,-4.1113,-3.8925,-3.7361,-3.6405,-3.6405,-3.6405,-3.6405,-3.6405,-3.6405,0.0,0.0,0.0,0.0,0.0,0.0,0.0,0.0,0.0,0.0,0.0,0.0,0.0,0.0,0.0,0.0,0.0,0.0,0.0,0.0,0.0,0.0,0.0,0.0,0.0,0.0,0.0,0.0,0.0,-4.329,-4.329,-4.3753,-4.4062,-4.4062,-4.4706,-4.505,-4.505,-4.5723,-4.6307,-4.68,-4.6965,-4.7055,-4.7055,-4.7234,-4.7309,-4.7309,-4.7309,-4.7309,-4.7309,-4.7309,-4.7309,-4.7309,-4.7309,-4.7309,-4.7309,-4.7309,-4.7309,-4.7309,-4.7309,-4.7309,-4.7309,-4.7309,-4.7309,-4.7309,-4.7309,-4.7309,-4.7309,-4.7309,-4.7309,-4.7309,-4.7309,-4.699,-4.6683,-4.6594,-4.6284,-4.597,-4.5925,-4.588,-4.588,-4.588,-4.588,-4.588,-4.588,-4.588,-4.588,-4.588,-4.588,-4.588,-4.588,-4.588,-4.588,-4.588,-4.588,-4.588,-4.588,-4.588,-4.588,-4.588,-4.588,-4.588,-4.588,-4.5242,-4.3824,-4.1494,-3.9438,-3.7768,-3.6405,-3.6405,-3.6405,-3.6405,-3.6405,-3.6405,0.0,0.0,0.0,0.0,0.0,0.0,0.0,0.0,0.0,0.0,0.0,0.0,0.0,0.0,0.0,0.0,0.0,0.0,0.0,0.0,0.0,0.0,0.0,0.0,0.0,0.0,0.0,0.0,0.0,-4.329,-4.329,-4.3319,-4.3349,-4.3349,-4.4018,-4.4362,-4.4362,-4.502,-4.5364,-4.5409,-4.6067,-4.6324,-4.6354,-4.7025,-4.7309,-4.7309,-4.7309,-4.7309,-4.7309,-4.7309,-4.7309,-4.7309,-4.7309,-4.7309,-4.7309,-4.7309,-4.7309,-4.7309,-4.7309,-4.7309,-4.7309,-4.7309,-4.7309,-4.7309,-4.7309,-4.7309,-4.7309,-4.7309,-4.7309,-4.7309,-4.7309,-4.7062,-4.6844,-4.6639,-4.6403,-4.6135,-4.5925,-4.588,-4.588,-4.588,-4.588,-4.588,-4.588,-4.588,-4.588,-4.588,-4.588,-4.588,-4.588,-4.588,-4.588,-4.588,-4.588,-4.588,-4.588,-4.588,-4.588,-4.588,-4.588,-4.588,-4.588,-4.5242,-4.4119,-4.2441,-4.0903,-3.8852,-3.6405,-3.6405,-3.6405,-3.6405,-3.6405,-3.6405,0.0,0.0,0.0,0.0,0.0,0.0,0.0,0.0,0.0,0.0,0.0,0.0,0.0,0.0,0.0,0.0,0.0,0.0,0.0,0.0,0.0,0.0,0.0,0.0,0.0,0.0,0.0,0.0,0.0,0.0,-4.329,-4.329,-4.329,-4.329,-4.3529,-4.3843,-4.4317,-4.4541,-4.487,-4.5289,-4.5544,-4.5663,-4.5678,-4.6367,-4.6681,-4.6696,-4.7115,-4.7309,-4.7309,-4.7309,-4.7309,-4.7309,-4.7309,-4.7309,-4.7309,-4.7309,-4.7309,-4.7309,-4.7309,-4.7309,-4.7309,-4.7309,-4.7309,-4.7309,-4.7309,-4.7309,-4.7309,-4.7309,-4.7309,-4.7309,-4.7309,-4.7121,-4.68,-4.6447,-4.618,-4.6015,-4.5925,-4.588,-4.588,-4.588,-4.588,-4.588,-4.588,-4.588,-4.588,-4.588,-4.588,-4.588,-4.588,-4.588,-4.588,-4.588,-4.588,-4.588,-4.588,-4.588,-4.588,-4.588,-4.588,-4.588,-4.588,-4.5648,-4.4595,-4.2545,-4.1948,-4.0246,-3.7315,-3.6675,-3.6405,-3.6405,-3.7002,-3.7315,-3.6834,0.0,0.0,0.0,0.0,0.0,0.0,0.0,0.0,0.0,0.0,0.0,0.0,0.0,0.0,0.0,0.0,0.0,0.0,0.0,0.0,0.0,0.0,0.0,0.0,0.0,0.0,0.0,0.0,0.0,-4.329,-4.329,-4.329,-4.329,-4.329,-4.3499,-4.3947,-4.3947,-4.4212,-4.4646,-4.487,-4.496,-4.499,-4.5663,-4.5978,-4.6007,-4.6441,-4.689,-4.7309,-4.7309,-4.7309,-4.7309,-4.7309,-4.7309,-4.7309,-4.7309,-4.7309,-4.7309,-4.7309,-4.7309,-4.7309,-4.7309,-4.7309,-4.7309,-4.7309,-4.7309,-4.7309,-4.7309,-4.7309,-4.7309,-4.7309,-4.7121,-4.6829,-4.6521,-4.6225,-4.6015,-4.6015,-4.5925,-4.588,-4.588,-4.588,-4.588,-4.588,-4.588,-4.588,-4.588,-4.588,-4.588,-4.588,-4.588,-4.588,-4.588,-4.588,-4.588,-4.588,-4.588,-4.588,-4.588,-4.588,-4.588,-4.588,-4.588,-4.5003,-4.3018,-4.2665,-4.1276,-3.872,-3.7795,-3.7335,-3.7335,-3.7978,-3.8115,0.0,0.0,0.0,0.0,0.0,0.0,0.0,0.0,0.0,0.0,0.0,0.0,0.0,0.0,0.0,0.0,0.0,0.0,0.0,0.0,0.0,0.0,0.0,0.0,0.0,0.0,0.0,0.0,0.0,-4.3329,-4.329,-4.3329,-4.3329,-4.329,-4.3329,-4.3329,-4.329,-4.329,-4.329,-4.3305,-4.3947,-4.4287,-4.4302,-4.496,-4.5274,-4.5274,-4.5289,-4.6037,-4.7249,-4.7264,-4.7294,-4.7309,-4.7309,-4.7309,-4.7309,-4.7309,-4.7309,-4.7309,-4.7309,-4.7309,-4.7309,-4.7309,-4.7309,-4.7309,-4.7309,-4.7309,-4.7309,-4.7309,-4.7309,-4.7309,-4.7309,-4.7121,-4.6916,-4.6916,-4.6565,-4.621,-4.621,-4.6046,-4.5925,-4.588,-4.588,-4.588,-4.588,-4.588,-4.588,-4.588,-4.588,-4.588,-4.588,-4.588,-4.588,-4.588,-4.588,-4.588,-4.588,-4.588,-4.588,-4.588,-4.588,-4.588,-4.588,-4.588,-4.5285,-4.4008,-4.3048,-4.1912,-4.0646,-3.9681,-3.921,-3.921,-3.921,-3.872,-3.56,0.0,0.0,0.0,0.0,0.0,0.0,0.0,0.0,0.0,0.0,0.0,0.0,0.0,0.0,0.0,0.0,0.0,0.0,0.0,0.0,0.0,0.0,0.0,0.0,0.0,0.0,0.0,-4.3849,-4.3927,-4.3329,-4.3849,-4.3888,-4.3329,-4.3849,-4.3888,-4.329,-4.329,-4.329,-4.329,-4.3484,-4.3559,-4.3589,-4.4287,-4.4586,-4.4601,-4.5095,-4.5514,-4.5888,-4.6396,-4.6875,-4.7309,-4.7309,-4.7309,-4.7309,-4.7309,-4.7309,-4.7309,-4.7309,-4.7309,-4.7309,-4.7309,-4.7309,-4.7309,-4.7309,-4.7309,-4.7309,-4.7309,-4.7309,-4.7309,-4.7309,-4.7121,-4.6916,-4.6916,-4.6712,-4.6506,-4.6506,-4.6462,-4.6284,-4.597,-4.588,-4.588,-4.588,-4.588,-4.588,-4.588,-4.588,-4.588,-4.588,-4.588,-4.588,-4.588,-4.588,-4.588,-4.588,-4.588,-4.588,-4.588,-4.588,-4.588,-4.588,-4.588,-4.5285,-4.4008,-4.3719,-4.2941,-4.1675,-4.0014,-3.921,-3.921,-3.921,-3.9077,0.0,0.0,0.0,0.0,0.0,0.0,-3.8531,-4.0138,0.0,0.0,0.0,0.0,0.0,0.0,0.0,0.0,0.0,0.0,0.0,0.0,0.0,0.0,0.0,0.0,0.0,0.0,0.0,-4.4495,-4.4818,-4.4721,-4.3849,-4.4548,-4.4624,-4.381,-4.4586,-4.4624,-4.381,-4.381,-4.381,-4.381,-4.3448,-4.3488,-4.3786,-4.3838,-4.3858,-4.3888,-4.4317,-4.4631,-4.4915,-4.5319,-4.6052,-4.692,-4.7189,-4.7309,-4.7309,-4.7309,-4.7309,-4.7309,-4.7309,-4.7309,-4.7309,-4.7309,-4.7309,-4.7309,-4.7309,-4.7309,-4.7309,-4.7309,-4.7309,-4.7309,-4.7309,-4.7164,-4.7062,-4.7062,-4.6887,-4.6712,-4.6712,-4.6683,-4.6506,-4.609,-4.6015,-4.6015,-4.5925,-4.588,-4.588,-4.588,-4.588,-4.588,-4.588,-4.588,-4.588,-4.588,-4.588,-4.588,-4.588,-4.588,-4.588,-4.588,-4.588,-4.588,-4.588,-4.5619,-4.501,-4.4008,-4.3718,-4.3079,-4.2092,-4.0958,-4.0417,-4.0374,-3.9563,-3.921,0.0,0.0,0.0,0.0,0.0,0.0,-3.8996,-3.974,-4.062,0.0,0.0,0.0,0.0,0.0,0.0,0.0,0.0,0.0,0.0,0.0,0.0,0.0,0.0,0.0,0.0,-4.6258,-4.6201,-4.5845,-4.5889,-4.5541,-4.4662,-4.5405,-4.5478,-4.4662,-4.5405,-4.5442,-4.4624,-4.4548,-4.451,-4.4472,-4.3786,-4.381,-4.4488,-4.3771,-4.3433,-4.3448,-4.3329,-4.3618,-4.4212,-4.4287,-4.511,-4.6339,-4.6965,-4.7234,-4.7309,-4.7309,-4.7309,-4.7309,-4.7309,-4.7309,-4.7309,-4.7309,-4.7309,-4.7309,-4.7309,-4.7309,-4.7309,-4.7309,-4.7309,-4.7309,-4.7309,-4.7309,-4.7309,-4.7309,-4.7121,-4.6931,-4.6931,-4.68,-4.6594,-4.6314,-4.621,-4.6135,-4.5925,-4.588,-4.588,-4.588,-4.588,-4.588,-4.588,-4.588,-4.588,-4.588,-4.588,-4.588,-4.588,-4.588,-4.588,-4.588,-4.588,-4.588,-4.588,-4.5242,-4.4603,-4.4008,-4.3268,-4.2629,-4.2092,-4.2092,-4.2092,-4.2051,-4.0114,-3.921,0.0,0.0,0.0,0.0,0.0,0.0,-3.6326,-3.7449,-3.8497,0.0,0.0,0.0,0.0,0.0,0.0,0.0,0.0,0.0,0.0,0.0,0.0,0.0,0.0,0.0,0.0,-4.6627,-4.6732,-4.5357,-4.5639,-4.5758,-4.5478,-4.6182,-4.6253,-4.5478,-4.6182,-4.6218,-4.5478,-4.4812,-4.451,-4.451,-4.4335,-4.4373,-4.4472,-4.4335,-4.4259,-4.422,-4.3591,-4.3364,-4.3529,-4.4092,-4.511,-4.6294,-4.6429,-4.683,-4.7309,-4.7309,-4.7309,-4.7309,-4.7309,-4.7309,-4.7309,-4.7309,-4.7309,-4.7309,-4.7309,-4.7309,-4.7309,-4.7309,-4.7309,-4.7309,-4.7309,-4.7309,-4.7309,-4.7309,-4.7251,-4.7207,-4.7207,-4.7164,-4.7033,-4.6594,-4.6358,-4.6135,-4.5925,-4.588,-4.588,-4.588,-4.588,-4.588,-4.588,-4.588,-4.588,-4.588,-4.588,-4.588,-4.588,-4.588,-4.588,-4.588,-4.588,-4.588,-4.588,-4.5242,-4.4603,-4.4008,-4.2861,-4.2208,-4.2092,-4.2092,-4.2092,-4.2051,-4.0114,-3.921,0.0,0.0,0.0,-3.56,0.0,0.0,0.0,-3.7364,-3.8125,0.0,0.0,0.0,0.0,0.0,0.0,0.0,0.0,0.0,0.0,0.0,0.0,0.0,0.0,0.0,0.0,-4.676,-4.696,-4.6405,-4.642,-4.6457,-4.6413,-4.705,-4.705,-4.6253,-4.7015,-4.7015,-4.6253,-4.5861,-4.5665,-4.5629,-4.5279,-4.5279,-4.5629,-4.5279,-4.4887,-4.4488,-4.4066,-4.3669,-4.3319,-4.3648,-4.4601,-4.5843,-4.6187,-4.6726,-4.7309,-4.7309,-4.7309,-4.7309,-4.7309,-4.7309,-4.7309,-4.7309,-4.7309,-4.7309,-4.7309,-4.7309,-4.7309,-4.7309,-4.7309,-4.7309,-4.7309,-4.7309,-4.7309,-4.7309,-4.7309,-4.7309,-4.7309,-4.7309,-4.7179,-4.6683,-4.6506,-4.6269,-4.597,-4.588,-4.588,-4.588,-4.588,-4.588,-4.588,-4.588,-4.588,-4.588,-4.588,-4.588,-4.588,-4.588,-4.588,-4.588,-4.588,-4.588,-4.588,-4.4951,-4.4008,-4.3065,-4.2426,-4.2092,-4.2092,-4.2092,-4.2092,-4.2051,-4.0589,-3.9899,0.0,0.0,0.0,0.0,0.0,-3.5921,0.0,0.0,0.0,0.0,0.0,0.0,0.0,0.0,0.0,0.0,0.0,0.0,0.0,0.0,0.0,0.0,0.0,0.0,0.0,-4.6058,-4.6507,-4.7339,-4.6996,-4.6872,-4.7109,-4.7688,-4.7737,-4.7033,-4.7671,-4.7671,-4.7033,-4.6896,-4.6811,-4.6777,-4.6198,-4.6218,-4.6777,-4.6182,-4.5572,-4.4909,-4.4624,-4.4143,-4.3512,-4.3369,-4.3992,-4.517,-4.5858,-4.6621,-4.7309,-4.7309,-4.7309,-4.7309,-4.7309,-4.7309,-4.7309,-4.7309,-4.7309,-4.7309,-4.7309,-4.7309,-4.7309,-4.7309,-4.7309,-4.7309,-4.7309,-4.7309,-4.7309,-4.7309,-4.7309,-4.7309,-4.7309,-4.7309,-4.7179,-4.6683,-4.6594,-4.6462,-4.597,-4.588,-4.588,-4.588,-4.588,-4.588,-4.588,-4.588,-4.588,-4.588,-4.588,-4.588,-4.588,-4.588,-4.588,-4.588,-4.588,-4.588,-4.588,-4.4676,-4.3398,-4.2121,-4.2092,-4.2092,-4.2092,-4.2092,-4.2092,-4.2092,-4.1057,-4.0603,0.0,0.0,0.0,0.0,-3.56,0.0,0.0,0.0,0.0,0.0,0.0,0.0,0.0,0.0,0.0,0.0,0.0,0.0,0.0,0.0,0.0,0.0,0.0,0.0,0.0,0.0,-4.457,-4.6481,-4.5984,-4.6039,-4.7035,-4.7765,-4.8065,-4.7853,-4.7968,-4.7968,-4.7853,-4.7152,-4.6811,-4.6811,-4.6708,-4.6708,-4.6811,-4.6708,-4.6638,-4.6448,-4.5079,-4.445,-4.4297,-4.3591,-4.3723,-4.4481,-4.5155,-4.6187,-4.7309,-4.7309,-4.7309,-4.7309,-4.7309,-4.7309,-4.7309,-4.7309,-4.7309,-4.7309,-4.7309,-4.7309,-4.7309,-4.7309,-4.7309,-4.7309,-4.7309,-4.7309,-4.7309,-4.7309,-4.7309,-4.7309,-4.7309,-4.7309,-4.7179,-4.6683,-4.6594,-4.6462,-4.597,-4.588,-4.588,-4.588,-4.588,-4.588,-4.588,-4.588,-4.588,-4.588,-4.588,-4.588,-4.588,-4.588,-4.588,-4.588,-4.588,-4.588,-4.588,-4.4676,-4.3398,-4.2121,-4.2092,-4.2092,-4.2092,-4.2092,-4.2092,-4.2092,-4.1057,-4.0603,0.0,0.0,0.0,0.0,0.0,0.0,-3.5802,0.0,-3.56,0.0,0.0,0.0,0.0,0.0,0.0,0.0,0.0,0.0,0.0,0.0,0.0,0.0,0.0,0.0,0.0,0.0,0.0,0.0,0.0,-4.5786,-4.6706,-4.7273,-4.7531,-4.7467,-4.7801,-4.8001,-4.8001,-4.7671,-4.7488,-4.7488,-4.7488,-4.7488,-4.7488,-4.7488,-4.722,-4.6777,-4.6131,-4.5337,-4.4472,-4.4143,-4.4125,-4.4347,-4.4616,-4.5544,-4.6785,-4.7174,-4.7309,-4.7309,-4.7309,-4.7309,-4.7309,-4.7309,-4.7309,-4.7309,-4.7309,-4.7309,-4.7309,-4.7309,-4.7309,-4.7309,-4.7309,-4.7309,-4.7309,-4.7309,-4.7309,-4.7309,-4.7309,-4.7164,-4.7019,-4.68,-4.6668,-4.655,-4.6328,-4.606,-4.588,-4.588,-4.588,-4.588,-4.588,-4.588,-4.588,-4.588,-4.588,-4.588,-4.588,-4.588,-4.588,-4.588,-4.588,-4.5561,-4.4821,-4.4269,-4.3398,-4.2121,-4.2092,-4.2092,-4.2092,-4.2092,-4.2092,-4.2092,-4.1675,-4.1479,-3.6778,0.0,0.0,0.0,0.0,0.0,0.0,0.0,0.0,0.0,0.0,0.0,0.0,0.0,0.0,0.0,0.0,0.0,0.0,0.0,0.0,0.0,0.0,0.0,0.0,0.0,0.0,-4.4705,-4.4828,-4.5248,-4.6161,-4.6859,-4.7174,-4.708,-4.7733,-4.8033,-4.8001,-4.8001,-4.8001,-4.8001,-4.8001,-4.8001,-4.8001,-4.8001,-4.7671,-4.7118,-4.6896,-4.6166,-4.5132,-4.4909,-4.4649,-4.4368,-4.4549,-4.5105,-4.5873,-4.6726,-4.7145,-4.7309,-4.7309,-4.7309,-4.7309,-4.7309,-4.7309,-4.7309,-4.7309,-4.7309,-4.7309,-4.7309,-4.7309,-4.7309,-4.7309,-4.7309,-4.7309,-4.7309,-4.7309,-4.7309,-4.7309,-4.7164,-4.6975,-4.6916,-4.68,-4.6668,-4.6594,-4.6328,-4.606,-4.6015,-4.597,-4.597,-4.5925,-4.588,-4.588,-4.588,-4.588,-4.588,-4.588,-4.588,-4.588,-4.588,-4.588,-4.5314,-4.4037,-4.3993,-4.3398,-4.2121,-4.2092,-4.2092,-4.2092,-4.2092,-4.2092,-4.2092,-4.2092,-4.2092,0.0,0.0,0.0,-3.6163,0.0,0.0,0.0,0.0,-3.56,0.0,0.0,0.0,0.0,0.0,0.0,0.0,0.0,0.0,0.0,0.0,0.0,0.0,0.0,0.0,0.0,0.0,0.0,-4.2286,-4.3064,-4.4046,-4.5341,-4.6804,-4.744,-4.7112,-4.7812,-4.8147,-4.8001,-4.8001,-4.8001,-4.8001,-4.8001,-4.8001,-4.8001,-4.8001,-4.8001,-4.7935,-4.7152,-4.6777,-4.6673,-4.5985,-4.5184,-4.458,-4.5202,-4.5023,-4.4541,-4.5873,-4.6756,-4.7309,-4.7309,-4.7309,-4.7309,-4.7309,-4.7309,-4.7309,-4.7309,-4.7309,-4.7309,-4.7309,-4.7309,-4.7309,-4.7309,-4.7309,-4.7309,-4.7309,-4.7309,-4.7309,-4.7309,-4.7309,-4.7207,-4.6975,-4.6873,-4.6844,-4.6639,-4.6594,-4.6506,-4.621,-4.621,-4.6135,-4.5925,-4.588,-4.588,-4.588,-4.588,-4.588,-4.588,-4.588,-4.588,-4.588,-4.588,-4.5314,-4.4037,-4.3993,-4.3398,-4.2121,-4.2092,-4.2092,-4.2092,-4.2092,-4.2092,-4.2092,-4.2092,-4.2092,0.0,0.0,-4.0223,-3.7801,0.0,0.0,0.0,0.0,0.0,0.0,0.0,0.0,0.0,0.0,0.0,0.0,0.0,0.0,0.0,0.0,0.0,0.0,0.0,0.0,0.0,0.0,0.0,-4.2252,-4.347,-4.4373,0.0,-4.5669,-4.6294,-4.6553,-4.716,-4.7648,-4.8001,-4.8001,-4.8001,-4.8001,-4.8001,-4.8001,-4.8001,-4.8001,-4.8001,-4.7968,-4.7704,-4.7287,-4.6777,-4.6534,-4.5969,-4.5311,-4.5546,-4.5432,-4.52,-4.598,-4.6456,-4.6711,-4.716,-4.7309,-4.7309,-4.7309,-4.7309,-4.7309,-4.7309,-4.7309,-4.7309,-4.7309,-4.7309,-4.7309,-4.7309,-4.7309,-4.7309,-4.7309,-4.7309,-4.7309,-4.7309,-4.7164,-4.7062,-4.7164,-4.7019,-4.6931,-4.7033,-4.7077,-4.6946,-4.655,-4.6314,-4.6165,-4.609,-4.597,-4.588,-4.588,-4.588,-4.588,-4.588,-4.588,-4.588,-4.588,-4.5474,-4.485,-4.4023,-4.3558,-4.2948,-4.2107,-4.2092,-4.2092,-4.2092,-4.2092,-4.2092,-4.2092,-4.2092,-4.2092,-4.1086,-4.1602,0.0,-3.9342,-3.9419,0.0,-3.7102,0.0,0.0,0.0,0.0,0.0,0.0,0.0,0.0,0.0,0.0,0.0,0.0,-3.5728,0.0,0.0,0.0,0.0,0.0,0.0,-4.117,-4.2219,-4.3227,-4.4022,0.0,0.0,-4.5656,-4.5965,-4.6784,-4.7361,-4.7684,-4.7901,-4.8001,-4.8001,-4.8001,-4.8001,-4.8001,-4.8001,-4.8001,-4.8001,-4.8001,-4.7704,-4.722,-4.722,-4.6793,-4.6076,-4.6076,-4.5892,-4.5602,-4.5905,-4.6154,-4.6339,-4.6815,-4.7115,-4.7309,-4.7309,-4.7309,-4.7309,-4.7309,-4.7309,-4.7309,-4.7309,-4.7309,-4.7309,-4.7309,-4.7309,-4.7309,-4.7309,-4.7309,-4.7309,-4.7309,-4.7164,-4.7062,-4.7266,-4.7164,-4.7121,-4.7266,-4.7207,-4.7033,-4.6639,-4.6447,-4.6269,-4.609,-4.597,-4.588,-4.588,-4.5677,-4.5532,-4.5532,-4.575,-4.588,-4.588,-4.5474,-4.4864,-4.4023,-4.3587,-4.305,-4.2426,-4.2208,-4.2208,-4.2411,-4.2194,-4.2092,-4.2092,-4.2092,-4.2092]},{"header":{"parameterUnit":"m.s-1","parameterCategory":1,"la1":30.6,"la2":29.2853,"lo1":-89.7004,"lo2":-87.6739,"dy":0.0162,"dx":0.0183,"nx":112,"ny":82,"refTime":"2023-07-05T06:00:00:Z","depth":0,"parameterNumber":3,"parameterNumberName":"V-component_of_WINDS"},"data":[0.0,0.0,0.0,0.0,0.0,0.0,0.0,0.0,0.0,0.0,0.0,0.0,0.0,0.0,0.0,0.0,0.0,0.0,0.0,0.0,0.0,0.0,0.0,0.0,0.0,0.0,0.0,0.0,0.0,0.0,0.0,0.0,0.0,0.0,0.0,0.0,0.0,0.0,0.0,0.0,0.0,0.0,0.0,0.0,0.0,0.0,0.0,0.0,0.0,0.0,0.0,0.0,0.0,0.0,0.0,0.0,0.0,0.0,0.0,0.0,0.0,0.0,0.0,0.0,0.0,0.0,0.0,0.0,0.0,0.0,0.0,0.0,0.0,0.0,0.0,0.0,0.0,0.0,0.0,0.0,0.0,0.0,0.0,0.0,0.0,0.0,0.0,0.0,0.0,0.0,-2.8214,-2.8966,-2.9549,-2.9879,-2.9879,-2.9879,-2.9337,-2.7989,0.0,0.0,0.0,0.0,0.0,0.0,0.0,0.0,0.0,0.0,0.0,0.0,0.0,0.0,0.0,0.0,0.0,0.0,0.0,0.0,0.0,0.0,0.0,0.0,0.0,0.0,0.0,0.0,0.0,0.0,0.0,0.0,0.0,0.0,0.0,0.0,0.0,0.0,0.0,0.0,0.0,0.0,0.0,0.0,0.0,0.0,0.0,0.0,0.0,0.0,0.0,0.0,0.0,0.0,0.0,0.0,0.0,0.0,0.0,0.0,0.0,0.0,0.0,0.0,0.0,0.0,0.0,0.0,0.0,0.0,0.0,0.0,0.0,0.0,0.0,0.0,0.0,0.0,0.0,0.0,0.0,0.0,0.0,0.0,0.0,0.0,0.0,0.0,0.0,0.0,0.0,0.0,0.0,0.0,0.0,0.0,0.0,0.0,0.0,0.0,0.0,0.0,0.0,0.0,-2.9744,-3.0928,-3.1152,-3.1212,-3.1212,-3.1212,-3.0644,-2.9382,0.0,0.0,0.0,0.0,0.0,0.0,0.0,0.0,0.0,0.0,0.0,0.0,0.0,0.0,0.0,0.0,0.0,0.0,0.0,0.0,0.0,0.0,0.0,0.0,0.0,0.0,0.0,0.0,0.0,0.0,0.0,0.0,0.0,0.0,0.0,0.0,0.0,0.0,0.0,0.0,0.0,0.0,0.0,0.0,0.0,0.0,0.0,0.0,0.0,0.0,0.0,0.0,0.0,0.0,0.0,0.0,0.0,0.0,0.0,0.0,0.0,0.0,0.0,0.0,0.0,0.0,0.0,0.0,0.0,0.0,0.0,0.0,0.0,0.0,0.0,0.0,0.0,0.0,0.0,0.0,0.0,0.0,0.0,0.0,0.0,0.0,0.0,0.0,0.0,0.0,0.0,0.0,0.0,0.0,0.0,0.0,0.0,0.0,0.0,0.0,0.0,0.0,0.0,-2.9232,-3.0088,-3.1361,-3.1511,-3.1511,-3.1511,-3.1511,-3.0943,-2.9696,-2.9022,0.0,0.0,0.0,0.0,0.0,0.0,0.0,0.0,0.0,0.0,0.0,0.0,0.0,0.0,0.0,0.0,0.0,0.0,0.0,0.0,0.0,0.0,0.0,0.0,0.0,0.0,0.0,0.0,0.0,0.0,0.0,0.0,0.0,0.0,0.0,0.0,0.0,0.0,0.0,0.0,0.0,0.0,0.0,0.0,0.0,0.0,0.0,0.0,0.0,0.0,0.0,0.0,0.0,0.0,0.0,0.0,0.0,0.0,0.0,0.0,0.0,0.0,0.0,0.0,0.0,0.0,0.0,0.0,0.0,0.0,0.0,0.0,0.0,0.0,0.0,0.0,0.0,0.0,0.0,0.0,0.0,0.0,0.0,0.0,0.0,0.0,0.0,0.0,0.0,0.0,0.0,0.0,0.0,0.0,0.0,0.0,0.0,0.0,0.0,0.0,0.0,0.0,-2.9834,-3.0417,-3.1406,-3.1511,-3.1511,-3.1511,-3.1511,-3.0943,-2.9696,-2.9606,0.0,0.0,0.0,0.0,0.0,0.0,0.0,0.0,0.0,0.0,0.0,0.0,0.0,0.0,0.0,0.0,0.0,0.0,0.0,0.0,0.0,0.0,0.0,0.0,0.0,0.0,0.0,0.0,0.0,0.0,0.0,0.0,0.0,0.0,0.0,0.0,0.0,0.0,0.0,0.0,0.0,0.0,0.0,0.0,0.0,0.0,0.0,0.0,0.0,0.0,0.0,0.0,0.0,0.0,0.0,0.0,0.0,0.0,0.0,0.0,0.0,0.0,0.0,0.0,0.0,0.0,0.0,0.0,0.0,0.0,0.0,0.0,0.0,0.0,0.0,0.0,0.0,0.0,0.0,0.0,0.0,0.0,0.0,0.0,0.0,0.0,0.0,0.0,0.0,0.0,0.0,0.0,0.0,0.0,0.0,0.0,0.0,0.0,0.0,0.0,0.0,0.0,-3.0528,-3.1406,-3.1496,-3.1511,-3.1511,-3.1511,-3.1511,-3.0943,-2.9696,-2.9606,0.0,0.0,0.0,0.0,0.0,0.0,0.0,0.0,0.0,0.0,0.0,0.0,0.0,0.0,0.0,0.0,0.0,0.0,0.0,0.0,0.0,0.0,0.0,0.0,0.0,0.0,0.0,0.0,0.0,0.0,0.0,0.0,0.0,0.0,0.0,0.0,0.0,0.0,0.0,0.0,0.0,0.0,0.0,0.0,0.0,0.0,0.0,0.0,0.0,0.0,0.0,0.0,0.0,0.0,0.0,0.0,0.0,0.0,0.0,0.0,0.0,0.0,0.0,0.0,0.0,0.0,0.0,0.0,0.0,0.0,0.0,0.0,0.0,0.0,0.0,0.0,0.0,0.0,0.0,0.0,0.0,0.0,0.0,0.0,0.0,0.0,0.0,0.0,0.0,0.0,0.0,0.0,0.0,0.0,0.0,0.0,0.0,0.0,0.0,0.0,0.0,0.0,-3.0315,-3.1032,0.0,-3.1511,-3.1511,-3.1511,-3.1511,-3.0943,-2.9696,0.0,0.0,0.0,0.0,0.0,0.0,0.0,0.0,0.0,0.0,0.0,0.0,0.0,0.0,0.0,0.0,0.0,0.0,0.0,0.0,0.0,0.0,0.0,0.0,0.0,0.0,0.0,0.0,0.0,0.0,0.0,0.0,0.0,0.0,0.0,0.0,0.0,0.0,0.0,0.0,0.0,0.0,0.0,0.0,0.0,0.0,0.0,0.0,0.0,0.0,0.0,0.0,0.0,0.0,0.0,0.0,0.0,0.0,0.0,0.0,0.0,0.0,0.0,0.0,0.0,0.0,0.0,0.0,0.0,0.0,0.0,0.0,0.0,0.0,0.0,0.0,0.0,0.0,0.0,0.0,0.0,0.0,0.0,0.0,0.0,0.0,0.0,0.0,0.0,0.0,0.0,0.0,0.0,0.0,0.0,0.0,0.0,0.0,0.0,0.0,0.0,0.0,-3.0063,-3.0898,-3.1629,0.0,-3.2123,-3.2123,-3.2123,-3.2123,-3.157,-3.0283,0.0,0.0,0.0,0.0,0.0,0.0,0.0,0.0,0.0,0.0,0.0,0.0,0.0,0.0,0.0,0.0,0.0,0.0,0.0,0.0,0.0,0.0,0.0,0.0,0.0,0.0,0.0,0.0,0.0,0.0,0.0,0.0,0.0,0.0,0.0,0.0,0.0,0.0,0.0,0.0,0.0,0.0,0.0,0.0,0.0,0.0,0.0,0.0,0.0,0.0,0.0,0.0,0.0,0.0,0.0,0.0,0.0,0.0,0.0,0.0,0.0,0.0,0.0,0.0,0.0,0.0,0.0,0.0,0.0,0.0,0.0,0.0,0.0,0.0,0.0,0.0,0.0,0.0,0.0,0.0,0.0,0.0,0.0,0.0,0.0,0.0,0.0,0.0,0.0,0.0,0.0,0.0,0.0,0.0,0.0,0.0,0.0,0.0,0.0,0.0,0.0,0.0,-3.1217,-3.2587,-3.3499,-3.3499,-3.3499,-3.3499,-3.3499,-3.3499,-3.2931,0.0,0.0,0.0,0.0,0.0,0.0,0.0,0.0,0.0,0.0,0.0,0.0,0.0,0.0,0.0,0.0,0.0,0.0,0.0,0.0,0.0,0.0,0.0,0.0,0.0,0.0,0.0,0.0,0.0,0.0,0.0,0.0,0.0,0.0,0.0,0.0,0.0,0.0,0.0,0.0,0.0,0.0,0.0,0.0,0.0,0.0,0.0,0.0,0.0,0.0,0.0,0.0,0.0,0.0,0.0,0.0,0.0,0.0,0.0,0.0,0.0,0.0,0.0,0.0,0.0,0.0,0.0,0.0,0.0,0.0,0.0,0.0,0.0,0.0,0.0,0.0,0.0,0.0,0.0,0.0,0.0,0.0,0.0,0.0,0.0,0.0,0.0,0.0,0.0,0.0,0.0,0.0,0.0,0.0,0.0,0.0,0.0,0.0,0.0,0.0,0.0,0.0,0.0,-3.1408,-3.2647,-3.3499,-3.3499,-3.3499,-3.3499,-3.3499,-3.3499,-3.2721,-3.0926,0.0,0.0,0.0,0.0,0.0,0.0,0.0,0.0,0.0,0.0,0.0,0.0,0.0,0.0,0.0,0.0,0.0,0.0,0.0,0.0,0.0,0.0,0.0,0.0,0.0,0.0,0.0,0.0,0.0,0.0,0.0,0.0,0.0,0.0,0.0,0.0,0.0,0.0,0.0,0.0,0.0,0.0,0.0,0.0,0.0,0.0,0.0,0.0,0.0,0.0,0.0,0.0,0.0,0.0,0.0,0.0,0.0,0.0,0.0,0.0,0.0,0.0,0.0,0.0,0.0,0.0,0.0,0.0,0.0,0.0,0.0,0.0,0.0,0.0,0.0,0.0,0.0,0.0,0.0,0.0,0.0,0.0,0.0,0.0,0.0,0.0,0.0,0.0,0.0,0.0,0.0,0.0,0.0,0.0,0.0,0.0,0.0,0.0,0.0,0.0,0.0,0.0,-3.1854,-3.332,-3.4292,-3.4292,-3.4292,-3.4292,-3.4292,-3.4292,-3.3664,-3.2183,0.0,0.0,0.0,0.0,0.0,0.0,0.0,0.0,0.0,0.0,0.0,0.0,0.0,0.0,0.0,0.0,0.0,0.0,0.0,0.0,0.0,0.0,0.0,0.0,0.0,0.0,0.0,0.0,0.0,0.0,0.0,0.0,0.0,0.0,0.0,0.0,0.0,0.0,0.0,0.0,0.0,0.0,0.0,0.0,0.0,0.0,0.0,0.0,0.0,0.0,0.0,0.0,0.0,0.0,0.0,0.0,0.0,0.0,0.0,0.0,0.0,0.0,0.0,0.0,0.0,0.0,0.0,0.0,0.0,0.0,0.0,0.0,0.0,0.0,0.0,0.0,0.0,0.0,0.0,0.0,0.0,0.0,0.0,0.0,0.0,0.0,0.0,0.0,0.0,0.0,0.0,0.0,0.0,0.0,0.0,0.0,0.0,0.0,0.0,0.0,0.0,0.0,-3.2407,-3.4262,-3.5504,-3.5504,-3.5504,-3.5504,-3.5504,-3.5504,-3.519,-3.4459,0.0,0.0,0.0,0.0,0.0,0.0,0.0,0.0,0.0,0.0,0.0,0.0,0.0,0.0,0.0,0.0,0.0,0.0,0.0,0.0,0.0,0.0,0.0,0.0,0.0,0.0,0.0,0.0,0.0,0.0,0.0,0.0,0.0,0.0,0.0,0.0,0.0,0.0,0.0,0.0,0.0,0.0,0.0,0.0,0.0,0.0,0.0,0.0,0.0,0.0,0.0,0.0,0.0,0.0,0.0,0.0,0.0,0.0,0.0,0.0,-2.5869,0.0,0.0,0.0,0.0,0.0,0.0,0.0,0.0,0.0,0.0,0.0,0.0,0.0,0.0,0.0,0.0,0.0,0.0,0.0,0.0,0.0,0.0,0.0,0.0,0.0,0.0,0.0,0.0,0.0,0.0,0.0,0.0,0.0,0.0,0.0,0.0,0.0,0.0,0.0,0.0,0.0,-3.2467,-3.4262,-3.5504,-3.5504,-3.5504,-3.5504,-3.5504,-3.5504,-3.4996,-3.3784,-3.3799,0.0,0.0,0.0,0.0,0.0,0.0,0.0,0.0,0.0,0.0,0.0,0.0,0.0,0.0,0.0,0.0,0.0,0.0,0.0,0.0,0.0,0.0,0.0,0.0,0.0,0.0,0.0,0.0,0.0,0.0,0.0,0.0,0.0,0.0,0.0,0.0,0.0,0.0,0.0,0.0,0.0,0.0,0.0,0.0,0.0,0.0,0.0,0.0,0.0,0.0,0.0,0.0,0.0,0.0,0.0,0.0,0.0,0.0,0.0,0.0,-2.6557,0.0,0.0,0.0,0.0,0.0,0.0,0.0,0.0,0.0,0.0,0.0,0.0,0.0,0.0,0.0,0.0,0.0,0.0,0.0,0.0,0.0,0.0,0.0,0.0,0.0,0.0,0.0,0.0,0.0,0.0,0.0,0.0,0.0,0.0,0.0,0.0,0.0,0.0,0.0,0.0,-3.2019,-3.4068,-3.5504,-3.5504,-3.5504,-3.5504,-3.5504,-3.5504,-3.5205,-3.4502,-3.4173,0.0,0.0,0.0,0.0,0.0,0.0,0.0,0.0,0.0,0.0,0.0,0.0,0.0,0.0,0.0,0.0,0.0,0.0,0.0,0.0,0.0,0.0,0.0,0.0,0.0,0.0,0.0,0.0,0.0,0.0,0.0,0.0,0.0,0.0,0.0,0.0,0.0,0.0,0.0,0.0,0.0,0.0,0.0,0.0,0.0,0.0,0.0,0.0,0.0,0.0,0.0,0.0,0.0,-3.038,-3.0393,-2.9377,-2.9897,-3.0417,-3.0865,-2.9662,-2.9345,-2.9621,0.0,0.0,0.0,0.0,0.0,0.0,0.0,0.0,0.0,0.0,0.0,0.0,0.0,0.0,0.0,0.0,0.0,0.0,0.0,0.0,0.0,0.0,0.0,0.0,0.0,-3.2452,-3.2886,0.0,0.0,0.0,0.0,0.0,0.0,0.0,0.0,0.0,0.0,0.0,0.0,-3.1809,-3.4008,-3.5504,-3.5504,-3.5504,-3.5504,-3.5504,-3.5504,-3.5504,-3.5522,-3.4488,-3.377,0.0,0.0,0.0,0.0,0.0,0.0,0.0,0.0,0.0,0.0,0.0,0.0,0.0,0.0,0.0,0.0,0.0,0.0,0.0,0.0,0.0,0.0,0.0,0.0,0.0,0.0,0.0,0.0,0.0,0.0,0.0,0.0,-2.8033,-2.7881,0.0,0.0,0.0,0.0,0.0,0.0,0.0,0.0,0.0,0.0,0.0,0.0,0.0,-2.9653,-3.0351,-3.0438,-3.0684,-3.1132,-3.1903,-3.2469,-3.2832,-3.2919,-3.3006,-3.3079,-3.2872,0.0,-3.0991,-3.027,0.0,0.0,0.0,0.0,0.0,0.0,0.0,0.0,0.0,0.0,0.0,0.0,0.0,0.0,0.0,0.0,0.0,0.0,0.0,0.0,0.0,0.0,-3.3978,-3.4068,-3.4607,-3.5085,0.0,-3.314,-3.1615,-3.2048,-3.1705,0.0,0.0,0.0,0.0,0.0,0.0,0.0,-3.3095,-3.4562,-3.5504,-3.5504,-3.5504,-3.5504,-3.5504,-3.5504,-3.5554,-3.5671,-3.5407,-3.479,-3.3819,-3.3366,0.0,0.0,0.0,0.0,0.0,0.0,0.0,0.0,0.0,0.0,0.0,0.0,0.0,0.0,0.0,0.0,0.0,0.0,0.0,0.0,0.0,0.0,0.0,0.0,0.0,0.0,0.0,0.0,0.0,-2.7489,-2.8049,-2.7387,-2.7633,-2.7618,0.0,0.0,0.0,0.0,0.0,0.0,0.0,0.0,0.0,-3.1503,-3.1271,-3.1826,-3.3285,-3.33,-3.362,-3.4211,-3.4501,-3.4791,-3.5067,-3.5067,-3.5067,-3.5067,-3.5067,-3.4699,-3.3936,-3.1789,-3.0713,-3.0317,0.0,0.0,0.0,0.0,-2.8639,-2.8741,-3.0472,-3.1221,0.0,-3.1313,0.0,0.0,0.0,0.0,0.0,0.0,0.0,0.0,0.0,0.0,-3.4113,-3.4876,-3.5295,-3.5504,-3.5504,-3.4592,-3.3619,0.0,-3.2512,-3.1615,-3.0223,0.0,0.0,0.0,0.0,-3.2841,-3.3425,-3.4681,-3.5504,-3.5504,-3.5504,-3.5504,-3.5504,-3.5504,-3.5537,-3.5572,-3.5522,-3.5299,-3.4874,-3.4212,-3.3319,0.0,0.0,0.0,0.0,0.0,0.0,0.0,0.0,0.0,0.0,0.0,0.0,0.0,0.0,0.0,0.0,0.0,0.0,0.0,0.0,0.0,0.0,0.0,0.0,0.0,0.0,0.0,0.0,-2.7682,-2.8484,-2.7588,-2.861,-2.9068,0.0,0.0,0.0,0.0,0.0,0.0,-3.1428,-3.1587,-3.2179,-3.3277,-3.332,-3.4066,-3.5625,-3.5639,-3.5851,-3.6301,-3.6301,-3.6402,-3.6562,-3.6562,-3.6562,-3.6562,-3.6562,-3.646,-3.6127,-3.3618,-3.2739,-3.2908,-3.1875,-3.1461,-3.1511,-3.153,-3.1483,-3.1637,-3.3232,-3.3959,-3.414,-3.364,0.0,-3.3364,-3.2674,0.0,0.0,0.0,0.0,-3.332,-3.4668,-3.4741,-3.4756,-3.5759,-3.5998,-3.5998,-3.5998,-3.5863,-3.5415,0.0,-3.3619,-3.2706,-3.0896,0.0,0.0,0.0,0.0,-3.3933,-3.4427,-3.537,-3.5998,-3.5998,-3.5998,-3.5998,-3.5998,-3.5998,-3.5923,-3.5824,-3.5791,-3.5752,-3.5703,-3.4925,-3.4364,-3.4045,0.0,0.0,0.0,0.0,0.0,0.0,0.0,0.0,0.0,0.0,0.0,0.0,0.0,0.0,0.0,0.0,0.0,0.0,0.0,0.0,0.0,0.0,0.0,0.0,0.0,0.0,0.0,0.0,0.0,-2.996,-3.0771,0.0,0.0,0.0,0.0,-3.1193,-3.2535,-3.3587,-3.4163,-3.4791,-3.543,-3.6098,-3.6112,-3.617,-3.6257,-3.6257,-3.6272,-3.6301,-3.6301,-3.6635,-3.7259,-3.7259,-3.7259,-3.7259,-3.7259,-3.6896,-3.6301,-3.6127,-3.5629,-3.4955,-3.4883,-3.4162,-3.3334,-3.4656,-3.499,-3.499,-3.6456,-3.7054,-3.6982,-3.5771,-3.45,-3.3484,-3.3455,-3.3036,0.0,0.0,-3.3918,-3.4713,-3.6028,-3.6791,-3.7225,-3.73,-3.7315,-3.7315,-3.7315,-3.6851,-3.6237,0.0,-3.537,-3.4921,-3.3544,0.0,-3.3589,-3.4174,-3.4384,-3.5132,-3.6971,-3.727,-3.7315,-3.7315,-3.7315,-3.7315,-3.7315,-3.7315,-3.7113,-3.6679,-3.6532,-3.6232,-3.5718,-3.5659,-3.5151,-3.4119,-3.3969,0.0,0.0,0.0,0.0,0.0,0.0,0.0,0.0,0.0,0.0,0.0,0.0,0.0,0.0,0.0,0.0,0.0,0.0,0.0,0.0,0.0,0.0,0.0,0.0,0.0,0.0,0.0,0.0,-3.0348,-3.1771,0.0,-3.194,-3.3186,-3.396,-3.3744,-3.4723,-3.5401,-3.5619,-3.5851,-3.6272,-3.6925,-3.7317,-3.7738,-3.8159,-3.8551,-3.8754,-3.8754,-3.8754,-3.887,-3.9102,-3.9102,-3.9102,-3.9102,-3.9102,-3.8971,-3.8754,-3.8754,-3.7614,-3.5861,-3.5861,-3.5621,-3.5308,-3.6067,-3.629,-3.633,-3.7049,-3.7351,-3.7345,-3.6881,-3.6402,-3.6013,-3.6013,-3.5848,-3.5714,-3.5953,-3.6178,-3.6477,-3.6956,-3.724,-3.7404,-3.7404,-3.7404,-3.7404,-3.7404,-3.724,-3.7015,-3.6776,-3.6402,-3.5848,-3.4936,-3.5474,-3.5804,-3.522,-3.5833,-3.6611,-3.7315,-3.7404,-3.7404,-3.7404,-3.7404,-3.7404,-3.7404,-3.7404,-3.7315,-3.7143,-3.7109,-3.7106,-3.718,-3.6642,-3.6319,-3.629,-3.5644,-3.4393,0.0,0.0,0.0,0.0,0.0,0.0,0.0,0.0,0.0,0.0,0.0,0.0,0.0,0.0,0.0,0.0,0.0,0.0,0.0,0.0,0.0,0.0,0.0,0.0,0.0,0.0,-3.1799,-3.1405,-3.3183,-3.424,-3.367,-3.488,-3.5642,-3.5522,-3.6389,-3.6939,-3.6939,-3.736,-3.7796,-3.8231,-3.8638,-3.9059,-3.9509,-3.99,-4.0104,-4.0104,-4.0104,-4.0104,-4.0104,-4.0104,-4.0104,-4.0104,-4.0104,-4.0104,-4.0104,-4.0104,-3.9102,-3.7564,-3.736,-3.7361,-3.7478,-3.751,-3.7615,-3.7771,-3.7988,-3.7943,-3.7749,-3.7749,-3.7584,-3.7404,-3.7404,-3.7404,-3.7404,-3.7404,-3.7569,-3.7749,-3.7749,-3.7913,-3.8078,-3.8078,-3.8078,-3.8078,-3.8078,-3.8078,-3.8078,-3.8078,-3.7389,-3.6656,-3.6222,-3.6851,-3.7011,-3.5884,-3.6892,-3.7624,-3.7381,-3.7774,-3.8078,-3.8078,-3.8078,-3.8078,-3.8078,-3.7674,-3.7509,-3.7719,-3.733,-3.7312,-3.7775,-3.6929,-3.6609,-3.6947,-3.621,-3.4987,-3.3274,0.0,0.0,0.0,0.0,0.0,0.0,0.0,0.0,0.0,0.0,0.0,0.0,0.0,0.0,0.0,0.0,0.0,0.0,0.0,0.0,0.0,0.0,0.0,-3.0973,-3.2434,-3.3605,-3.335,-3.5094,-3.6112,-3.5552,-3.6025,-3.6402,-3.6417,-3.7564,-3.826,-3.826,-3.9421,-4.0104,-4.0104,-4.0118,-4.0133,-4.0162,-4.0176,-4.0191,-4.022,-4.022,-4.022,-4.022,-4.022,-4.0205,-4.0191,-4.0191,-4.0176,-4.0162,-4.0162,-4.0162,-4.0104,-3.9479,-3.9501,-3.974,-3.9129,-3.9127,-3.9448,-3.9454,-3.902,-3.8452,-3.8422,-3.7988,-3.7464,-3.7464,-3.7464,-3.7464,-3.7464,-3.7928,-3.8422,-3.8422,-3.8916,-3.9388,-3.9388,-3.9388,-3.9388,-3.9388,-3.9388,-3.9388,-3.9388,-3.8362,-3.7464,-3.7464,-3.7464,-3.7187,-3.6406,-3.7525,0.0,-3.7377,-3.8525,-3.9373,-3.9328,-3.9328,-3.9328,-3.9328,-3.8153,-3.7704,-3.8377,-3.7255,-3.6851,-3.7449,-3.6519,-3.5985,-3.597,-3.5676,-3.5243,-3.4682,0.0,0.0,0.0,0.0,0.0,0.0,0.0,0.0,0.0,0.0,0.0,0.0,0.0,0.0,0.0,0.0,0.0,0.0,0.0,0.0,0.0,0.0,-3.3605,-3.3058,-3.4456,-3.553,-3.5476,-3.6381,-3.7128,-3.7389,-3.8014,-3.858,-3.903,-3.9378,-3.9581,-3.9581,-3.99,-4.0104,-4.0104,-4.0568,-4.1062,-4.1541,-4.1976,-4.244,-4.2919,-4.2919,-4.2919,-4.2919,-4.2919,-4.2658,-4.2194,-4.2194,-4.1947,-4.1555,-4.1555,-4.1555,-4.1439,-4.0494,-4.0212,-4.0299,-4.0429,-4.062,-4.0771,-4.0292,-4.0008,-3.9768,-3.929,-3.9005,-3.8871,-3.8871,-3.8871,-3.8871,-3.8871,-3.899,-3.914,-3.914,-3.9239,-3.9388,-3.9388,-3.9388,-3.9388,-3.9388,-3.9388,-3.9388,-3.9388,-3.9089,-3.8871,-3.8871,-3.8871,-3.8775,-3.856,-3.888,0.0,-3.8829,-3.9164,-3.905,-3.8063,-3.7958,-3.7958,-3.7958,-3.7614,-3.7898,-3.9065,-3.8811,-3.8797,-3.9259,-3.8394,-3.7849,-3.7643,-3.672,-3.6184,0.0,0.0,0.0,0.0,0.0,0.0,0.0,0.0,0.0,0.0,0.0,0.0,0.0,0.0,0.0,0.0,0.0,0.0,0.0,0.0,0.0,0.0,-3.4404,-3.5409,-3.5669,-3.6309,-3.6823,-3.707,-3.7694,-3.8333,-3.8942,-3.9349,-3.9712,-4.0075,-4.035,-4.0641,-4.0916,-4.1178,-4.1439,-4.1715,-4.2107,-4.2498,-4.289,-4.3239,-4.3602,-4.3993,-4.3993,-4.3993,-4.3993,-4.3993,-4.3776,0.0,-4.3413,-4.321,-4.289,-4.289,-4.2932,0.0,0.0,0.0,0.0,0.0,-4.1308,-4.1324,-4.0935,-4.0816,-4.0741,-4.0367,-4.0247,-4.0247,-4.0247,-4.0247,-4.0247,-4.0247,-4.0247,-4.0247,-4.0247,-4.0247,-4.0247,-4.0247,-4.0023,-3.9828,-3.9828,-3.9619,-3.9388,-3.9388,-3.9388,0.0,-3.9388,-3.9388,-3.9194,-3.857,-3.8994,-3.9179,-3.8555,-3.9009,-3.9089,-3.8332,-3.8257,-3.8257,-3.8257,-3.7734,0.0,0.0,0.0,-3.8712,-3.9111,-3.8614,0.0,0.0,0.0,-3.7093,-3.7449,0.0,0.0,0.0,-3.4234,-3.3623,0.0,0.0,0.0,0.0,0.0,0.0,0.0,0.0,0.0,0.0,0.0,0.0,0.0,0.0,0.0,0.0,-3.6223,-3.7622,-3.8231,-3.7912,-3.7825,-3.8362,-3.8942,-3.9538,-4.0147,-4.0205,-4.0263,-4.0408,-4.0974,-4.1613,-4.2281,0.0,0.0,0.0,0.0,-4.4023,-4.4095,-4.4095,-4.4124,-4.4197,-4.4197,-4.4197,-4.4197,-4.4197,-4.4153,-4.4095,-4.4095,-4.4052,-4.3993,-4.3993,-4.4151,-4.4161,-4.2386,-4.1773,-4.1839,-4.1703,-4.1594,-4.1594,-4.1557,0.0,0.0,-4.1399,-4.1422,-4.1422,-4.1422,-4.1422,-4.1422,-4.1422,-4.1422,-4.1422,-4.1422,-4.1422,-4.1422,-4.1422,-4.0935,-4.0502,-4.0502,-4.0053,-3.9649,-3.9649,-3.9649,-3.9619,-3.9544,-3.9433,-3.8949,-3.763,-3.8555,-3.8919,-3.7615,-3.8585,-3.9328,-3.9215,0.0,0.0,-3.9149,-3.8093,-3.7988,-3.9298,-3.8287,-3.7801,-3.8073,-3.8107,-3.805,-3.7829,-3.7814,-3.8106,-3.8739,-3.8739,-3.8708,-3.8554,-3.543,-3.4263,0.0,0.0,0.0,0.0,0.0,0.0,0.0,0.0,0.0,0.0,0.0,0.0,0.0,0.0,0.0,-3.5209,-3.687,-3.826,-3.8913,-3.9334,-3.9596,-3.9712,-3.9842,-4.0176,-4.0844,-4.0902,-4.1323,-4.2353,-4.2557,-4.2919,-4.3587,-4.3732,0.0,-4.3993,-4.3993,-4.4226,-4.4705,-4.4719,-4.498,-4.5518,0.0,0.0,-4.5518,-4.5518,-4.5227,-4.4719,-4.4719,-4.4443,-4.3993,-4.3993,-4.4223,-4.4488,-4.377,-4.3293,-4.2976,-4.2961,-4.2916,-4.288,-4.2396,-4.2216,-4.2126,-4.1587,-4.1422,-4.1422,-4.1422,-4.1422,0.0,-4.1422,-4.1422,-4.1422,-4.1422,-4.1422,-4.1422,-4.1422,-4.128,-4.119,-4.119,-4.1085,-4.0995,-4.0995,-4.0995,-4.0831,-4.0307,-3.9768,-3.9298,-3.9009,-3.9224,-3.9284,-3.8994,-3.9224,-3.9005,-3.7913,-3.7793,-3.7793,-3.7793,-3.7554,-3.7988,-3.9298,-3.9313,-3.9289,-3.934,-3.9496,-3.966,-3.9765,-3.9765,-3.9879,-4.0105,-4.0105,-3.9828,-3.9293,-3.8077,-3.7568,0.0,0.0,0.0,0.0,0.0,0.0,0.0,0.0,0.0,0.0,0.0,-3.1943,0.0,0.0,-3.544,-3.7135,-3.8138,-3.9044,-4.0017,-4.0408,-4.0597,-4.0597,-4.0597,-4.0858,-4.1541,-4.186,-4.231,-4.2948,-4.3297,-4.3776,-4.44,-4.4443,-4.4589,-4.4922,-4.4937,-4.5082,-4.5387,-4.5387,-4.5561,-4.588,-4.588,-4.588,-4.588,-4.588,-4.5706,-4.5387,-4.5387,-4.5213,-4.4981,-4.5201,-4.5214,-4.5091,-4.5161,-4.4598,-4.3783,-4.3783,-4.3574,-4.3245,-4.2955,-4.2851,-4.2806,-4.2462,-4.2357,-4.2357,-4.2357,-4.2357,-4.2357,-4.2357,-4.2357,-4.2357,-4.2357,-4.2357,-4.2357,-4.2357,-4.2102,-4.1916,-4.1916,-4.1647,-4.1422,-4.1422,-4.1422,-4.1265,-4.095,-4.0621,-4.0172,-3.9514,-3.9388,-3.9388,-3.9388,-3.9388,-3.9119,-3.8482,-3.8407,-3.8407,-3.8407,-3.8407,-3.8706,-3.9379,-3.9481,-3.9589,-3.9696,-3.9803,-3.9945,-4.0137,-4.0242,-4.0331,-4.0401,-4.047,-4.032,-3.9982,-3.9644,-3.9154,0.0,0.0,0.0,0.0,0.0,0.0,0.0,0.0,-2.9748,-3.204,-3.303,-3.4084,-3.5971,-3.6519,-3.7257,-3.8919,-3.9407,-3.9929,-4.096,-4.1207,-4.1279,-4.1279,-4.1279,-4.1512,-4.2049,-4.2644,-4.305,-4.3181,-4.379,-4.4429,-4.5053,-4.5082,-4.5329,-4.5866,-4.588,-4.588,-4.588,-4.588,-4.588,-4.588,-4.588,-4.588,-4.588,-4.588,-4.588,-4.588,-4.5925,-4.597,-4.6015,-4.6417,-4.6285,-4.59,-4.6288,-4.5726,-4.4691,-4.4556,-4.4092,-4.3484,-4.3484,-4.3409,-4.329,-4.329,-4.329,-4.329,-4.329,-4.329,-4.329,-4.329,-4.329,-4.329,-4.329,-4.329,-4.329,-4.329,-4.294,-4.259,-4.259,-4.2132,-4.1758,-4.1758,-4.1758,-4.1713,-4.1594,-4.1564,-4.1175,-3.9978,-3.9798,-3.9798,-3.9798,-3.9798,-3.9798,-3.9798,-3.9694,-3.9559,-3.9388,-3.9388,-3.9388,-3.9388,-3.9388,-3.9481,-3.9625,-3.9661,-3.9732,-3.9925,-4.0101,-4.0207,-4.0242,-4.0331,-4.0436,-4.047,-4.047,-3.992,-2.4885,-2.5085,0.0,-2.7124,-2.7527,-2.8568,0.0,0.0,-3.2756,-3.5275,-3.6324,-3.683,-3.7135,-3.8078,-3.8919,-3.916,-4.0147,-4.0931,-4.1076,-4.1613,-4.199,-4.199,-4.199,-4.202,-4.2092,-4.2644,-4.3239,-4.3834,-4.4443,-4.5082,-4.5735,-4.5779,-4.5808,-4.588,-4.588,-4.588,-4.588,-4.588,-4.588,-4.588,-4.588,-4.588,-4.588,-4.588,-4.588,-4.5925,-4.609,-4.6165,-4.6165,-4.6491,-4.6668,-4.6769,-4.6812,-4.6511,-4.6022,-4.5409,-4.4766,-4.4212,-4.4212,-4.3783,-4.329,-4.329,-4.329,-4.329,-4.329,-4.329,-4.329,-4.329,-4.329,-4.329,-4.329,-4.329,-4.329,-4.329,-4.3245,-4.3185,-4.3185,-4.3125,-4.308,-4.308,-4.308,-4.2925,-4.2396,-4.2291,-4.2051,-4.1265,-4.116,-4.116,-4.116,-4.116,-4.116,-4.116,-4.0636,-4.0053,-3.9433,-3.9388,-3.9388,-3.9388,-3.9388,-3.9424,-3.9424,-3.9424,-3.9517,-3.9732,-3.9768,-3.9874,-4.0031,-4.0031,-4.0137,-4.0312,-4.0312,-4.0324,-2.6707,0.0,0.0,0.0,-2.8863,-2.965,-3.185,-3.2292,-3.284,-3.4962,-3.625,-3.7196,-3.7591,-3.8505,-3.945,0.0,-4.0742,-4.1236,-4.1628,-4.1918,-4.2092,-4.2092,-4.2092,-4.2237,-4.2586,-4.3195,-4.3834,-4.4458,-4.5111,-4.559,-4.588,-4.588,-4.588,-4.588,-4.588,-4.588,-4.588,-4.588,-4.588,-4.588,-4.588,-4.588,-4.588,-4.588,-4.588,-4.5925,-4.609,-4.621,-4.621,-4.6624,-4.6844,-4.6916,-4.7062,-4.7043,-4.6815,-4.6142,-4.5469,-4.4885,-4.4885,-4.4451,-4.3858,-4.3858,-4.3604,-4.329,-4.329,-4.329,-4.329,-4.329,-4.329,-4.329,-4.329,-4.329,-4.329,-4.329,-4.329,-4.329,-4.329,-4.329,-4.329,-4.329,-4.329,-4.32,-4.297,-4.2925,-4.2836,-4.2551,-4.1863,-4.1422,-4.1422,-4.1422,-4.1422,-4.1422,-4.113,-4.0861,-4.0591,-4.0561,-4.0561,-4.0561,-4.0202,-3.9993,-3.9993,-3.9634,-3.946,-3.9517,-3.9661,-3.9803,-4.0011,-4.0101,-4.0277,-4.0401,-4.0401,-4.047,-2.7422,0.0,0.0,-2.9352,-3.014,-3.0845,-3.1869,-3.2444,-3.3155,-3.4632,-3.5794,-3.683,-3.7737,-3.8589,-3.9538,-4.0876,-4.125,-4.1541,-4.2034,-4.2092,-4.2092,-4.2092,-4.2237,-4.2586,-4.321,-4.3703,-4.424,-4.4835,-4.5503,-4.588,-4.588,-4.588,-4.588,-4.588,-4.588,-4.588,-4.588,-4.588,-4.588,-4.588,-4.588,-4.588,-4.588,-4.588,-4.588,-4.5925,-4.618,-4.6314,-4.6358,-4.68,-4.7019,-4.7019,-4.7207,-4.7309,-4.7249,-4.677,-4.6157,-4.5589,-4.5589,-4.514,-4.4556,-4.4377,-4.3947,-4.3529,-4.3349,-4.329,-4.329,-4.329,-4.329,-4.329,-4.329,-4.329,-4.329,-4.329,-4.329,-4.329,-4.329,-4.329,-4.329,-4.329,-4.329,-4.329,-4.329,-4.329,-4.329,-4.329,-4.2521,-4.1923,-4.1923,-4.1923,-4.1848,-4.1707,-4.1692,-4.1617,-4.1437,-4.1422,-4.1422,-4.1422,-4.0935,-4.0666,-4.0666,-4.0217,-3.9963,-3.9963,-4.0094,-4.0164,-4.009,-4.0269,-4.0304,-4.0281,-4.0331,-4.0401,0.0,0.0,-2.8778,-3.0367,-3.146,-3.2512,-3.3981,-3.4332,-3.4581,-3.54,-3.5601,-3.6087,-3.7604,-3.845,-3.9369,-4.0868,-4.1642,-4.2078,-4.2092,-4.2092,-4.2092,-4.2092,-4.2615,-4.3224,0.0,-4.3979,-4.424,-4.4835,-4.5503,-4.588,-4.588,-4.588,-4.588,-4.588,-4.588,-4.588,-4.588,-4.588,-4.588,-4.588,-4.588,-4.588,-4.588,-4.588,-4.588,-4.5925,-4.6373,-4.6594,-4.6639,-4.7077,-4.7309,-4.7309,-4.7309,-4.7309,-4.7309,-4.7279,-4.686,-4.6249,-4.6249,-4.5843,-4.5155,-4.4526,-4.4302,-4.4167,-4.3484,-4.329,-4.329,-4.329,-4.329,-4.329,-4.329,-4.329,-4.329,-4.329,-4.329,-4.329,-4.329,-4.329,-4.329,-4.329,-4.329,-4.329,-4.329,-4.329,-4.329,-4.329,-4.326,-4.323,-4.323,-4.323,-4.303,-4.244,-4.2366,-4.2111,-4.1467,-4.1422,-4.1422,-4.1422,-4.1392,-4.1354,-4.1354,-4.1324,-4.1324,-4.1324,-4.1362,-4.1048,-4.0404,-4.0404,-4.0184,-3.9717,-3.9925,-4.0101,-2.7291,-2.8841,-3.026,-3.1464,-3.2281,-3.2915,-3.3403,-3.3539,-3.3611,-3.3882,-3.4086,-3.4512,-3.5466,-3.7095,-3.8625,-3.956,-4.104,-4.2092,-4.2092,-4.2092,-4.2092,-4.2092,-4.2629,0.0,0.0,0.0,0.0,-4.5503,-4.5764,-4.588,-4.588,-4.588,-4.588,-4.588,-4.588,-4.588,-4.588,-4.588,-4.588,-4.588,-4.588,-4.588,-4.588,-4.588,-4.597,-4.6135,-4.6462,-4.6683,-4.6844,-4.7164,-4.7309,-4.7309,-4.7309,-4.7309,-4.7309,-4.7309,-4.7174,-4.698,-4.698,-4.6531,-4.5948,-4.5681,-4.5334,-4.493,-4.4706,-4.4332,-4.3947,-4.3947,-4.3618,-4.329,-4.329,-4.329,-4.329,-4.329,-4.329,-4.329,-4.329,-4.329,-4.329,-4.329,-4.329,-4.329,-4.329,-4.329,-4.329,-4.329,-4.329,-4.329,-4.329,-4.329,-4.32,-4.303,-4.3015,-4.291,-4.2686,-4.2671,-4.2671,-4.2671,-4.2267,-4.2066,-4.2066,-4.1647,-4.1422,-4.1422,-4.1422,-4.1355,-4.1257,-4.1257,-4.1234,-4.1161,-4.1249,-4.141,-2.8735,-3.0103,-3.1245,-3.2286,-3.2805,-3.3124,-3.3124,-3.3124,-3.3124,-3.3124,-3.3068,-3.3351,-3.4323,-3.5995,-3.7524,-3.849,-4.0187,-4.1468,-4.17,-4.1744,-4.1903,-4.2368,-4.2977,-4.3602,0.0,0.0,0.0,-4.5851,-4.588,-4.588,-4.588,-4.588,-4.588,-4.588,-4.588,-4.588,-4.588,-4.588,-4.588,-4.588,-4.588,-4.588,-4.588,-4.588,-4.597,-4.609,-4.6462,-4.6668,-4.68,-4.7164,-4.7309,-4.7309,-4.7309,-4.7309,-4.7309,-4.7309,-4.7309,-4.7309,-4.7309,-4.7025,-4.6636,-4.6396,-4.6022,-4.5618,-4.5364,-4.5005,-4.4661,-4.4661,-4.4362,-4.3992,-4.3992,-4.3992,-4.3932,-4.3693,-4.3648,-4.3574,-4.3349,-4.329,-4.329,-4.329,-4.329,-4.329,-4.329,-4.329,-4.329,-4.329,-4.329,-4.329,-4.329,-4.329,-4.329,-4.329,-4.329,-4.329,-4.329,-4.329,-4.329,-4.329,-4.294,-4.2701,-4.2701,-4.2297,-4.2087,-4.2087,-4.2087,-4.2044,-4.1934,-4.1934,-4.1874,-4.173,-4.182,-4.1932,-3.0244,-3.1137,-3.1738,-3.2847,-3.3124,-3.3124,-3.3124,-3.3124,-3.3056,-3.3048,-3.2541,-3.2558,0.0,0.0,-3.6166,-3.7613,-3.9129,-4.0379,-4.1062,-4.1149,-4.1613,0.0,0.0,0.0,0.0,0.0,0.0,-4.588,0.0,-4.588,-4.588,-4.588,-4.588,-4.588,-4.588,-4.588,-4.588,-4.588,-4.588,-4.588,-4.588,-4.588,-4.588,-4.588,-4.5925,-4.597,-4.6417,-4.6594,-4.6683,-4.7135,-4.7309,-4.7309,-4.7309,-4.7309,-4.7309,-4.7309,-4.7309,-4.7309,-4.7309,-4.7309,-4.7204,-4.6576,-4.6324,-4.6247,-4.5603,-4.5379,-4.5349,-4.5349,-4.5319,-4.5289,-4.5289,-4.5289,-4.514,-4.4511,-4.4362,-4.4197,-4.3529,-4.3394,-4.3394,-4.3394,-4.3394,-4.3379,-4.3349,-4.3349,-4.3334,-4.3305,-4.329,-4.329,-4.329,-4.329,-4.329,-4.329,-4.329,-4.329,-4.329,-4.329,-4.329,-4.329,-4.329,-4.329,-4.329,-4.329,-4.329,-4.329,-4.329,-4.303,-4.2455,-4.2455,-4.2126,-4.1512,-4.1693,-4.1784,-3.095,-3.196,-3.2759,-3.3048,-3.3124,-3.3124,-3.3124,-3.3124,-3.2842,-3.2001,-3.1399,-3.0889,0.0,0.0,0.0,-3.5678,-3.8666,0.0,-4.1744,-4.1845,0.0,-4.2905,0.0,-4.4226,-4.4821,-4.5503,0.0,0.0,-4.588,-4.588,-4.588,-4.588,-4.588,-4.588,-4.588,-4.588,-4.588,-4.588,-4.588,-4.588,-4.588,-4.588,-4.588,-4.588,-4.6105,-4.6417,-4.655,-4.6815,-4.7121,-4.7266,-4.7309,-4.7309,-4.7309,-4.7309,-4.7309,-4.7309,-4.7309,-4.7309,-4.7309,-4.7309,-4.7279,-4.7115,-4.7055,-4.7025,-4.6845,-4.6456,-4.6067,-4.6067,-4.5693,-4.5289,-4.5289,-4.5289,-4.5259,-4.5095,-4.505,-4.5005,-4.4825,-4.4796,-4.4796,-4.4796,-4.4796,-4.4646,-4.4152,-4.4062,-4.3898,-4.3364,-4.329,-4.329,-4.329,-4.329,-4.329,-4.329,-4.329,-4.329,-4.329,-4.329,-4.329,-4.329,-4.329,-4.329,-4.329,-4.329,-4.329,-4.329,-4.329,-4.32,-4.309,-4.309,-4.3,-4.2836,-4.2875,-4.3007,-3.1876,-3.2549,-3.2939,-3.3068,-3.3124,-3.2955,-3.2453,-3.2328,-3.2026,-3.0922,-3.0256,0.0,0.0,0.0,0.0,0.0,0.0,0.0,-4.0998,-4.1126,-4.1662,0.0,-4.3761,0.0,-4.5242,-4.5663,-4.588,0.0,-4.588,-4.588,-4.588,-4.588,-4.588,-4.588,-4.588,-4.588,-4.588,-4.588,-4.588,-4.588,-4.588,-4.588,-4.588,-4.588,-4.6105,-4.6447,0.0,-4.6815,-4.7121,-4.7251,-4.7309,-4.7309,-4.7309,-4.7309,-4.7309,-4.7309,-4.7309,-4.7309,-4.7309,-4.7309,-4.7309,-4.7309,-4.7309,-4.7309,-4.7309,-4.7055,-4.6756,-4.6756,-4.6471,-4.6187,-4.6187,-4.6187,-4.6097,-4.5813,-4.5738,-4.5663,-4.5364,-4.5289,-4.5289,-4.5289,-4.5289,-4.517,-4.4811,-4.4751,-4.4616,-4.4242,-4.4197,-4.4197,-4.4197,-4.3648,-4.329,-4.329,-4.329,-4.329,-4.329,-4.329,-4.329,-4.329,-4.329,-4.329,-4.329,-4.329,-4.329,-4.329,-4.329,-4.329,-4.329,-4.329,-4.329,-4.329,-4.329,-4.3384,-3.2646,-3.2853,-3.2766,-3.2982,-3.3068,-3.278,-3.165,-3.1386,-3.1047,-2.9817,0.0,-2.8737,-2.8624,0.0,-3.1902,-3.2895,0.0,-3.7262,-3.9707,-3.9905,-4.0859,-4.3675,-4.3993,-4.4487,-4.5764,-4.588,-4.588,-4.588,-4.588,-4.588,-4.588,-4.588,-4.588,-4.588,-4.588,-4.588,-4.588,-4.588,-4.588,-4.588,-4.588,-4.588,-4.588,-4.588,-4.6015,-4.6269,0.0,0.0,-4.6975,-4.7207,-4.7309,-4.7309,-4.7309,-4.7309,-4.7309,-4.7309,-4.7309,-4.7309,-4.7309,-4.7309,-4.7309,-4.7309,-4.7309,-4.7309,-4.7309,-4.7309,-4.7309,-4.7309,-4.7309,-4.7309,-4.7309,-4.7309,-4.716,-4.6591,-4.6414,-4.6292,-4.5693,-4.5559,-4.5559,-4.5559,-4.5559,-4.5529,-4.5454,-4.5424,-4.5394,-4.5304,-4.5289,-4.5289,-4.5289,-4.4302,-4.3559,-4.3559,-4.3559,-4.3514,-4.3424,-4.3424,-4.3379,-4.3305,-4.329,-4.329,-4.329,-4.329,-4.329,-4.329,-4.329,-4.329,-4.329,-4.329,-4.329,-4.329,-4.329,-4.329,-3.2426,-3.2593,-3.2711,-3.2766,-3.2939,-3.278,-3.165,-3.1386,0.0,0.0,-2.831,-2.7971,-2.709,-2.8521,0.0,-3.1929,0.0,0.0,0.0,0.0,-4.1326,0.0,0.0,0.0,0.0,0.0,0.0,0.0,0.0,0.0,-4.588,-4.588,-4.588,-4.588,-4.588,-4.588,-4.588,-4.588,-4.588,-4.588,-4.588,-4.588,-4.588,-4.588,-4.615,-4.655,-4.6594,0.0,-4.7207,-4.7266,-4.7309,-4.7309,-4.7309,-4.7309,-4.7309,-4.7309,-4.7309,-4.7309,-4.7309,-4.7309,-4.7309,-4.7309,-4.7309,-4.7309,-4.7309,-4.7309,-4.7309,-4.7309,-4.7309,-4.7309,-4.7309,-4.7309,-4.7279,-4.716,-4.713,-4.71,-4.698,-4.695,-4.695,-4.695,-4.695,-4.6785,-4.6232,-4.6142,-4.5948,-4.5379,-4.5289,-4.5289,-4.5289,-4.5095,-4.4945,-4.4945,-4.4945,-4.4736,-4.4182,-4.4152,-4.3873,-4.3334,-4.329,-4.329,-4.329,-4.329,-4.329,-4.329,-4.329,-4.329,-4.329,-4.329,-4.329,-4.329,-4.329,-4.329,-3.2344,-3.2388,-3.2376,-3.2624,-3.281,-3.2502,-3.0894,0.0,0.0,0.0,-2.7291,-2.7115,-2.6587,0.0,0.0,0.0,0.0,0.0,0.0,0.0,0.0,0.0,0.0,0.0,0.0,0.0,0.0,0.0,0.0,0.0,-4.588,-4.588,-4.588,-4.588,-4.588,-4.588,-4.588,-4.588,-4.588,-4.588,-4.588,-4.588,-4.588,-4.588,-4.615,-4.6594,-4.6594,0.0,-4.7309,-4.7309,-4.7309,-4.7309,-4.7309,-4.7309,-4.7309,-4.7309,-4.7309,-4.7309,-4.7309,-4.7309,-4.7309,-4.7309,-4.7309,-4.7309,-4.7309,-4.7309,-4.7309,-4.7309,-4.7309,-4.7309,-4.7309,-4.7309,-4.7309,-4.7309,-4.7309,-4.7309,-4.7309,-4.7309,-4.7309,-4.7309,-4.7309,-4.7204,-4.689,-4.683,-4.6726,-4.6396,-4.6337,-4.6337,-4.6337,-4.6337,-4.6067,-4.5364,-4.5289,-4.517,-4.4855,-4.4825,-4.4691,-4.4377,-4.3992,-4.3798,-4.3798,-4.3484,-4.329,-4.329,-4.329,-4.329,-4.329,-4.329,-4.329,-4.329,-4.329,-4.329,-3.2133,-3.2125,-3.2113,-3.255,-3.268,-3.2194,-3.0254,-2.9792,0.0,0.0,-2.6499,-2.6499,-2.6499,0.0,0.0,0.0,0.0,0.0,0.0,0.0,0.0,0.0,0.0,0.0,0.0,0.0,0.0,0.0,0.0,0.0,-4.588,-4.588,-4.5953,-4.6084,-4.6084,-4.6156,-4.6287,-4.6287,-4.6287,-4.6287,-4.6287,-4.6123,-4.5751,-4.5751,-4.5846,-4.5957,-4.6151,0.0,0.0,-4.6975,-4.6975,-4.6975,-4.6975,-4.6975,-4.7019,-4.7207,-4.7309,-4.7309,-4.7309,-4.7309,-4.7309,-4.7309,-4.7309,-4.7309,-4.7309,-4.7309,-4.7309,-4.7309,-4.7309,-4.7309,-4.7309,-4.7309,-4.7309,-4.7309,-4.7309,-4.7309,-4.7309,-4.7309,-4.7309,-4.7309,-4.7309,-4.7309,-4.7309,-4.7309,-4.7309,-4.7309,-4.7309,-4.7309,-4.7309,-4.7309,-4.6905,-4.5843,-4.5723,-4.5663,-4.5529,-4.5514,-4.5454,-4.5304,-4.4811,-4.4526,-4.4526,-4.3858,-4.3499,-4.3499,-4.3364,-4.329,-4.329,-4.329,-4.329,-4.329,-4.329,-4.329,-3.1629,-3.1893,-3.2081,-3.2344,-3.255,-3.2194,-3.0254,0.0,0.0,-2.6952,-2.6499,-2.6499,-2.6499,-2.6575,0.0,0.0,0.0,0.0,0.0,0.0,0.0,0.0,0.0,0.0,0.0,0.0,0.0,0.0,0.0,0.0,0.0,-4.588,-4.6142,-4.6676,-4.6705,-4.7027,-4.7608,-4.7608,-4.7608,-4.7608,-4.7608,-4.6821,-4.534,-4.534,-4.4752,-4.3834,-4.4734,0.0,0.0,-4.5928,-4.5928,-4.5928,-4.5928,-4.5928,-4.6062,-4.6975,-4.7309,-4.7309,-4.7309,-4.7309,-4.7309,-4.7309,-4.7309,-4.7309,-4.7309,-4.7309,-4.7309,-4.7309,-4.7309,-4.7309,-4.7309,-4.7309,-4.7309,-4.7309,-4.7309,-4.7309,-4.7309,-4.7309,-4.7309,-4.7309,-4.7309,-4.7309,-4.7309,-4.7309,-4.7309,-4.7309,-4.7309,-4.7309,-4.7309,-4.7309,-4.7249,-4.713,-4.7115,-4.6875,-4.6234,-4.619,-4.5963,-4.5334,-4.5229,-4.5214,-4.5214,-4.4571,-4.4227,-4.4227,-4.3604,-4.329,-4.329,-4.329,-4.329,-4.329,-4.329,-4.329,-3.1529,-3.1761,-3.1893,-3.2081,-3.1669,-3.0915,-2.9816,0.0,0.0,-2.6779,-2.6499,-2.6499,-2.6499,-2.6499,-2.6637,0.0,0.0,0.0,0.0,0.0,0.0,0.0,0.0,0.0,0.0,0.0,0.0,0.0,0.0,0.0,0.0,-4.5559,-4.6287,-4.585,-4.6206,-4.6519,-4.6775,-4.6118,-4.6118,-4.6761,-4.607,-4.5246,-4.4276,-4.4276,-4.3967,-4.3504,-4.3929,0.0,0.0,-4.49,-4.49,-4.49,-4.49,-4.49,-4.4961,-4.5341,-4.5477,-4.5477,-4.5477,-4.5898,-4.6314,-4.5703,-4.5898,-4.6491,-4.7121,-4.7309,-4.7309,-4.7309,-4.7309,-4.7309,-4.7309,-4.7309,-4.7309,-4.7309,-4.7309,-4.7309,-4.7309,-4.7309,-4.7309,-4.7309,-4.7309,-4.7309,-4.7309,-4.7309,-4.7309,-4.7309,-4.7309,-4.7309,-4.7309,-4.7309,-4.7309,-4.7309,-4.7309,-4.7189,-4.6935,-4.692,-4.68,-4.6516,-4.6142,-4.5918,-4.5918,-4.5259,-4.4721,-4.4332,-4.4062,-4.3678,-4.329,-4.329,-4.329,-4.329,-4.329,-4.329,-3.1133,-3.1541,-3.1761,-3.1937,-3.1082,-3.0046,0.0,0.0,0.0,-2.6469,-2.643,-2.6499,-2.643,-2.6465,-2.6452,0.0,0.0,-2.8236,0.0,0.0,0.0,0.0,0.0,0.0,0.0,0.0,0.0,0.0,0.0,0.0,0.0,-4.457,-4.5638,-4.5038,-4.5608,-4.5962,-4.617,-4.5339,-4.5294,-4.5914,-4.5116,-4.4169,-4.3191,-4.3191,-4.3004,-4.2606,0.0,0.0,0.0,-4.3876,-4.3876,-4.3876,-4.3876,-4.3876,-4.3876,-4.4172,-4.4312,-4.4312,-4.4312,-4.4776,-4.5235,-4.4531,-4.4776,-4.5508,-4.6181,-4.6417,-4.655,-4.7121,-4.7062,-4.6785,-4.6506,-4.6417,-4.6506,-4.6785,-4.6653,-4.6506,-4.6785,-4.6638,-4.6506,-4.6785,-4.6873,-4.6975,-4.7251,-4.7309,-4.7309,-4.7309,-4.7309,-4.7309,-4.7309,-4.7309,-4.7309,-4.7309,-4.7309,-4.7309,-4.7309,-4.7309,-4.7309,-4.7309,-4.6875,-4.6621,-4.6621,-4.5963,-4.5379,-4.4915,-4.4706,-4.4287,-4.3589,-4.3589,-4.3484,-4.329,-4.329,-4.329,-3.0283,-3.1157,-3.1761,-3.1937,-3.1082,-2.9963,0.0,0.0,0.0,-2.6131,-2.6211,-2.643,-2.6236,-2.6361,-2.6361,-2.598,-2.653,-2.7519,-2.9014,0.0,0.0,0.0,0.0,0.0,0.0,0.0,0.0,0.0,0.0,0.0,0.0,-4.2806,-4.3995,-4.4579,-4.5126,-4.5709,-4.6306,-4.6306,-4.6007,-4.5489,-4.5489,-4.4318,-4.2223,-4.2223,-4.1618,0.0,0.0,0.0,0.0,-4.284,-4.284,-4.284,-4.284,-4.284,-4.2937,-4.3923,-4.4312,-4.4312,-4.4312,-4.4312,-4.4312,-4.4312,-4.4312,-4.4312,-4.4312,-4.4312,-4.473,-4.6741,-4.6594,-4.5598,-4.4591,-4.4312,-4.4591,-4.5598,-4.5052,-4.4591,-4.5598,-4.5038,-4.4638,-4.5644,-4.5824,-4.6107,-4.7121,-4.7309,-4.7309,-4.7309,-4.7309,-4.7309,-4.7309,-4.7309,-4.7309,-4.7309,-4.7309,-4.7309,-4.7309,-4.7309,-4.7309,-4.7309,-4.7294,-4.7294,-4.7294,-4.6666,-4.6264,-4.6264,-4.5633,-4.496,-4.4302,-4.4302,-4.3932,-4.329,-4.329,-4.329,-2.8521,-2.8911,-2.9112,-2.9166,-2.83,-2.7368,-2.7296,0.0,0.0,-2.5902,-2.6211,-2.6499,-2.643,-2.6465,-2.6452,-2.6327,-2.629,-2.667,0.0,0.0,0.0,0.0,0.0,0.0,0.0,0.0,0.0,0.0,0.0,0.0,0.0,-4.1055,-4.1943,-4.2867,-4.3474,-4.3845,-4.403,-4.3282,-4.3191,-4.3752,-4.3009,-4.2081,-4.1012,-4.1012,0.0,0.0,0.0,0.0,0.0,-4.1769,-4.1769,-4.1769,-4.1769,-4.1769,-4.1819,-4.2115,-4.2248,-4.2248,-4.2248,-4.2709,-4.3177,-4.2479,-4.2709,-4.3259,-4.3259,-4.3735,-4.4452,-4.5052,-4.5007,-4.4716,-4.4406,-4.4312,-4.4406,-4.4716,-4.4531,-4.4406,-4.473,-4.4531,-4.4406,-4.4716,-4.4762,-4.4869,-4.519,-4.5838,-4.6255,-4.6255,-4.6873,-4.7309,-4.7309,-4.7309,-4.7309,-4.7309,-4.7309,-4.7309,-4.7309,-4.7309,-4.7309,-4.7309,-4.7309,-4.7309,-4.7309,-4.7115,-4.6785,-4.6294,-4.6112,-4.5663,-4.499,-4.4526,-4.3973,-4.329,-4.329,-4.329,0.0,-2.7693,-2.7886,-2.7886,-2.6991,0.0,0.0,0.0,0.0,-2.5606,-2.6107,-2.6499,-2.6396,-2.6396,-2.6327,-2.6176,-2.5933,-2.6246,-2.7531,0.0,0.0,0.0,0.0,0.0,0.0,0.0,0.0,0.0,0.0,0.0,0.0,-4.0023,-4.0499,-4.1145,-4.193,-4.2382,-4.2382,-4.1638,-4.1524,-4.206,-4.1322,-4.0739,-4.0212,-4.0212,0.0,0.0,0.0,0.0,0.0,-4.1261,-4.1311,-4.1311,-4.1311,-4.1311,-4.1311,-4.1311,-4.1311,-4.1311,-4.1311,-4.1733,-4.215,-4.1498,-4.1733,-4.2235,-4.2235,-4.3177,-4.4125,-4.3368,-4.3416,-4.3654,-4.3286,-4.3191,-4.3286,-4.364,-4.3416,-4.3286,-4.364,-4.3416,-4.3286,-4.364,-4.3735,-4.3829,-4.4219,-4.513,-4.5779,-4.5779,-4.6638,-4.7309,-4.7309,-4.7309,-4.7309,-4.7309,-4.7309,-4.7309,-4.7309,-4.7309,-4.7309,-4.7309,-4.7309,-4.7309,-4.7309,-4.7309,-4.7115,-4.6711,-4.6696,-4.6367,-4.5678,-4.4766,-4.3973,-4.329,-4.329,-4.329,0.0,0.0,0.0,0.0,0.0,0.0,0.0,0.0,0.0,0.0,0.0,-2.643,-2.6236,-2.6213,-2.6062,-2.5676,-2.5642,-2.6238,0.0,0.0,0.0,0.0,0.0,0.0,0.0,0.0,0.0,0.0,0.0,0.0,0.0,-3.9697,-3.9697,-3.9697,-4.0689,-4.1175,-4.1175,-4.1175,-4.0912,-4.0463,-4.0463,-4.0187,-3.9697,-3.9697,0.0,0.0,0.0,0.0,0.0,-4.1211,-4.1311,-4.1311,-4.1311,-4.1311,-4.1311,-4.1311,-4.1311,-4.1311,-4.1311,-4.1311,-4.1311,-4.1311,-4.1311,-4.1311,-4.1311,-4.2577,-4.3701,-4.1832,-4.1954,-4.2466,-4.1547,-4.1311,-4.1547,-4.2466,-4.1954,-4.1547,-4.2466,-4.1967,-4.1597,-4.2514,-4.2695,-4.2985,-4.3937,-4.49,-4.5598,-4.5689,-4.6535,-4.7207,-4.7309,-4.7309,-4.7309,-4.7309,-4.7309,-4.7309,-4.7309,-4.7309,-4.7309,-4.7309,-4.7309,-4.7309,-4.7309,-4.7309,-4.7309,-4.7309,-4.7309,-4.695,-4.6247,-4.499,-4.4018,-4.329,-4.329,-4.329,-2.4699,0.0,-2.5087,-2.5087,-2.4877,-2.4667,0.0,0.0,0.0,0.0,0.0,0.0,0.0,0.0,-2.6131,-2.5875,-2.6029,-2.6858,-2.8662,0.0,0.0,0.0,0.0,0.0,0.0,0.0,0.0,0.0,0.0,0.0,0.0,-3.9697,-3.9697,-3.9697,-3.9948,-4.0086,-4.0086,-4.0086,-4.0011,-3.9885,-3.9885,-3.9823,-3.9697,-3.9697,0.0,0.0,0.0,0.0,-4.0933,-4.1211,-4.1311,-4.1311,-4.1311,-4.1311,-4.1311,-4.1311,-4.1311,-4.1311,-4.1311,-4.1311,-4.1311,-4.1311,-4.1311,-4.1311,-4.1311,-4.1647,-4.1931,-4.1461,-4.1448,-4.1597,-4.1361,-4.1311,-4.1361,-4.1597,-4.1448,-4.1361,-4.1597,-4.1448,-4.1361,-4.1597,-4.1634,-4.1733,-4.1967,-4.2854,-4.3782,-4.4531,-4.5508,-4.6447,-4.7207,-4.7309,-4.7309,-4.7309,-4.7309,-4.7309,-4.7309,-4.7309,-4.7309,-4.7309,-4.7309,-4.7309,-4.7309,-4.7309,-4.7309,-4.7309,-4.7309,-4.6726,-4.5529,-4.5214,-4.4466,-4.329,-4.329,-4.329,-2.4091,-2.42,-2.42,-2.42,-2.42,-2.42,0.0,0.0,0.0,0.0,0.0,0.0,0.0,0.0,0.0,-2.5879,-2.6822,0.0,0.0,0.0,0.0,0.0,0.0,0.0,0.0,0.0,0.0,0.0,0.0,0.0,0.0,-3.9697,-3.9697,-3.9697,-3.9697,-3.9697,-3.9697,-3.9697,-3.9697,-3.9697,-3.9697,-3.9697,-3.9697,-3.9697,-3.9788,0.0,0.0,0.0,-4.0744,-4.0997,-4.1211,-4.1311,-4.1311,-4.1311,-4.1311,-4.1311,-4.1311,-4.1311,-4.1311,-4.1311,-4.1311,-4.1311,-4.1311,-4.1311,-4.1311,-4.1311,-4.1311,-4.1311,-4.1311,-4.1311,-4.1311,-4.1311,-4.1311,-4.1311,-4.1311,-4.1311,-4.1311,-4.1311,-4.1311,-4.1311,-4.1311,-4.1311,-4.1311,-4.215,-4.2985,-4.3545,-4.4854,-4.6018,-4.6535,-4.7019,-4.7309,-4.7309,-4.7309,-4.7309,-4.7309,-4.7309,-4.7309,-4.7309,-4.7309,-4.7309,-4.7309,-4.7309,-4.7309,-4.7309,-4.7309,-4.6636,-4.5289,-4.5289,-4.4616,-4.329,-4.329,-4.329,-2.397,-2.434,-2.442,-2.4235,-2.42,-2.4236,-2.4273,0.0,0.0,0.0,0.0,0.0,0.0,0.0,0.0,0.0,0.0,0.0,0.0,0.0,0.0,0.0,0.0,0.0,0.0,0.0,0.0,0.0,0.0,0.0,0.0,-3.9697,-3.9697,-3.9697,-3.9697,-3.9697,-3.9697,-3.9697,-3.9697,-3.9697,-3.9697,-3.9697,-3.9697,-3.9697,-3.9697,0.0,0.0,0.0,-4.0504,-4.0795,-4.1047,-4.1311,-4.1311,-4.1311,-4.1311,-4.1311,-4.1311,-4.1311,-4.1311,-4.1311,-4.1311,-4.1311,-4.1311,-4.1311,-4.1311,-4.1311,-4.1311,-4.1311,-4.1311,-4.1311,-4.1311,-4.1311,-4.1311,-4.1311,-4.1311,-4.1311,-4.1311,-4.1311,-4.1311,-4.1311,-4.1311,-4.1311,-4.1311,-4.2016,-4.2598,-4.2792,-4.4377,-4.5553,-4.5553,-4.6594,-4.7251,-4.7062,-4.7207,-4.7309,-4.7309,-4.7309,-4.7309,-4.7309,-4.7309,-4.7309,-4.7309,-4.7309,-4.7309,-4.7309,-4.7204,-4.6546,-4.5289,-4.52,-4.4526,-4.329,-4.329,-4.329,-2.397,-2.4969,-2.5533,-2.4492,-2.42,-2.4309,-2.4646,0.0,0.0,0.0,0.0,0.0,0.0,0.0,0.0,0.0,0.0,0.0,0.0,0.0,0.0,0.0,0.0,0.0,0.0,0.0,0.0,0.0,0.0,0.0,0.0,0.0,-3.9697,-3.9697,-3.9697,-3.9697,-3.9697,-3.9697,-3.9697,-3.9697,-3.9697,-3.9697,-3.9697,-3.9697,-3.9697,0.0,0.0,-4.0236,-4.0504,-4.0795,-4.1047,-4.1311,-4.1311,-4.1311,-4.1311,-4.1311,-4.1311,-4.1311,-4.1311,-4.1311,-4.1311,-4.1311,-4.1311,-4.1311,-4.1311,-4.1311,-4.1311,-4.1311,-4.1311,-4.1311,-4.1311,-4.1311,-4.1311,-4.1311,-4.1311,-4.1311,-4.1311,-4.1311,-4.1311,-4.1311,-4.1311,-4.1311,-4.1311,-4.1461,-4.1819,-4.2647,-4.3782,-4.4531,-4.4531,-4.6136,-4.6975,-4.6107,-4.6785,-4.7309,-4.7309,-4.7309,-4.7309,-4.7309,-4.7309,-4.7309,-4.7309,-4.7309,-4.7309,-4.7309,-4.6756,-4.6082,-4.5289,-4.4736,-4.4077,-4.329,-4.329,-4.329,-2.3849,-2.4643,-2.5099,-2.5217,-2.5721,-2.632,-2.6752,0.0,0.0,0.0,0.0,0.0,0.0,0.0,0.0,0.0,0.0,0.0,0.0,0.0,0.0,0.0,0.0,0.0,0.0,0.0,0.0,0.0,0.0,0.0,0.0,0.0,-3.9697,-3.9697,-3.9697,-3.9697,-3.9697,-3.9697,-3.9697,-3.9697,-3.9697,-3.9697,-3.9697,-3.9697,-3.9697,-3.9697,0.0,-4.0032,-4.0287,-4.044,-4.0643,-4.0858,-4.106,-4.1097,-4.1097,-4.1261,-4.1311,-4.1311,-4.1311,-4.1311,-4.1311,-4.1311,-4.1311,-4.1311,-4.1311,-4.1311,-4.1311,-4.1311,-4.1311,-4.1311,-4.1311,-4.1311,-4.1311,-4.1311,-4.1311,-4.1311,-4.1311,-4.1311,-4.1311,-4.1311,-4.1311,-4.1311,-4.1311,-4.1311,-4.1448,-4.1918,-4.2854,-4.3497,-4.3497,-4.5235,-4.6299,-4.5824,-4.6682,-4.7309,-4.7309,-4.7309,-4.7309,-4.7309,-4.7309,-4.7309,-4.7309,-4.7309,-4.7309,-4.7309,-4.6651,-4.5978,-4.5289,-4.4631,-4.3973,-4.329,-4.329,-4.329,-2.3776,-2.4409,-2.4888,-2.5928,0.0,-2.7325,-2.8378,0.0,0.0,0.0,0.0,0.0,0.0,0.0,0.0,0.0,0.0,0.0,0.0,0.0,0.0,0.0,0.0,0.0,0.0,0.0,0.0,0.0,0.0,0.0,0.0,0.0,-3.9697,-3.9697,-3.9697,-3.9697,-3.9697,-3.9697,-3.9697,-3.9697,-3.9697,-3.9697,-3.9697,-3.9697,-3.9697,-3.9697,-3.9697,-3.9839,-4.007,-4.007,-4.0236,-4.0504,-4.0744,-4.0833,-4.0933,-4.1211,-4.1311,-4.1311,-4.1311,-4.1311,-4.1311,-4.1311,-4.1311,-4.1311,-4.1311,-4.1311,-4.1311,-4.1311,-4.1311,-4.1311,-4.1311,-4.1311,-4.1311,-4.1311,-4.1311,-4.1311,-4.1311,-4.1311,-4.1311,-4.1311,-4.1311,-4.1311,-4.1311,-4.1311,-4.1311,-4.1311,-4.215,-4.2695,-4.2466,-4.4191,-4.5358,-4.513,-4.6211,-4.7019,-4.7266,-4.7309,-4.7309,-4.7309,-4.7309,-4.7309,-4.7309,-4.7309,-4.7309,-4.7309,-4.6501,-4.5813,-4.5289,-4.4481,-4.3783,-4.329,-4.329,-4.329,-2.3776,-2.5075,-2.6033,-2.632,-2.5413,0.0,-2.812,-2.7639,0.0,-2.9196,0.0,0.0,0.0,0.0,0.0,0.0,0.0,0.0,0.0,0.0,0.0,0.0,0.0,0.0,0.0,0.0,0.0,0.0,0.0,0.0,0.0,0.0,0.0,-3.9697,-3.9697,-3.9697,-3.9697,-3.9697,-3.9697,-3.9697,-3.9697,-3.9697,-3.9697,-3.9697,-3.9697,-3.9697,-3.9697,-3.9839,-4.007,-4.007,-4.0236,-4.0504,-4.0504,-4.0694,-4.0933,-4.1211,-4.1311,-4.1311,-4.1311,-4.1311,-4.1311,-4.1311,-4.1311,-4.1311,-4.1311,-4.1311,-4.1311,-4.1311,-4.1311,-4.1311,-4.1311,-4.1311,-4.1311,-4.1311,-4.1311,-4.1311,-4.1311,-4.1311,-4.1311,-4.1311,-4.1311,-4.1311,-4.1311,-4.1311,-4.1311,-4.1311,-4.215,-4.2466,-4.1547,-4.3143,-4.4064,-4.3129,-4.4748,-4.6299,-4.7207,-4.7309,-4.7309,-4.7309,-4.7309,-4.7309,-4.7309,-4.7309,-4.7309,-4.7309,-4.6022,-4.5349,-4.5289,-4.4018,-4.3349,-4.329,-4.329,-4.329,-2.3027,-2.4348,-2.5438,-2.6077,-2.5797,0.0,0.0,-2.9484,-2.9149,-2.9782,-3.0266,0.0,0.0,0.0,0.0,0.0,0.0,0.0,0.0,0.0,0.0,0.0,0.0,0.0,0.0,0.0,0.0,0.0,0.0,0.0,0.0,0.0,0.0,-3.9697,-3.9697,-3.9697,-3.9697,-3.9697,-3.9697,-3.9697,-3.9697,-3.9697,-3.9697,-3.9697,-3.9697,-3.9697,-3.9697,-3.9736,-3.9839,-3.9839,-3.989,-4.0057,-4.0351,-4.0643,-4.0933,-4.1211,-4.1311,-4.1311,-4.1311,-4.1311,-4.1311,-4.1311,-4.1311,-4.1311,-4.1311,-4.1311,-4.1311,-4.1311,-4.1311,-4.1311,-4.1311,-4.1311,-4.1311,-4.1311,-4.1311,-4.1311,-4.1311,-4.1311,-4.1311,-4.1311,-4.1311,-4.1311,-4.1311,-4.1311,-4.1311,-4.1311,-4.1634,-4.1733,-4.1361,-4.2528,-4.3211,-4.284,-4.461,-4.6211,-4.7207,-4.7309,-4.7309,-4.7309,-4.7309,-4.7309,-4.7309,-4.7309,-4.7115,-4.6711,-4.5768,-4.5095,-4.4691,-4.3738,-4.329,-4.329,-4.329,-4.329,-2.3324,-2.443,-2.544,0.0,0.0,0.0,-3.0004,-3.0277,-3.013,-3.0848,-3.1456,0.0,0.0,0.0,0.0,0.0,0.0,0.0,0.0,0.0,0.0,0.0,0.0,0.0,0.0,0.0,0.0,0.0,0.0,0.0,0.0,0.0,0.0,0.0,-3.9697,-3.9697,-3.9697,-3.9697,-3.9697,-3.9697,-3.9697,-3.9697,-3.9697,-3.9697,-3.9697,-3.9697,-3.9697,-3.9697,-3.9697,-3.9697,-3.9697,-3.9736,-4.0198,-4.0491,-4.0681,-4.0959,-4.106,-4.106,-4.106,-4.106,-4.106,-4.106,-4.106,-4.106,-4.1161,-4.1147,-4.1211,-4.1261,-4.1311,-4.1311,-4.1311,-4.1311,-4.1311,-4.1311,-4.1311,-4.1311,-4.1311,-4.1311,-4.1311,-4.1311,-4.1311,-4.1311,-4.1311,-4.1311,-4.1311,-4.1311,-4.1311,-4.1311,-4.1311,-4.1918,-4.2466,-4.2744,-4.405,-4.5403,-4.6726,-4.6829,-4.6975,-4.7266,-4.7309,-4.7309,-4.7309,-4.7309,-4.6995,-4.6294,-4.5648,-4.4975,-4.4317,-4.3618,-4.329,-4.329,-4.329,-4.329,-2.4921,-2.5615,-2.6383,0.0,0.0,0.0,0.0,-2.9525,-2.9476,0.0,0.0,0.0,0.0,0.0,0.0,0.0,0.0,0.0,0.0,0.0,0.0,0.0,0.0,0.0,0.0,0.0,0.0,0.0,0.0,0.0,0.0,0.0,0.0,0.0,-3.9697,-3.9697,-3.9697,-3.9697,-3.9697,-3.9697,-3.9697,-3.9697,-3.9697,-3.9697,-3.9697,-3.9697,-3.9697,-3.9697,-3.9697,-3.9697,-3.9697,-3.9749,-3.9981,-4.007,-4.0134,-4.0389,-4.0504,-4.0504,-4.0504,-4.0504,-4.0504,-4.0504,-4.0504,-4.0555,-4.0846,-4.0883,-4.0946,-4.1211,-4.1311,-4.1311,-4.1311,-4.1311,-4.1311,-4.1311,-4.1311,-4.1311,-4.1311,-4.1311,-4.1311,-4.1311,-4.1311,-4.1311,-4.1311,-4.1311,-4.1311,-4.1311,-4.1311,-4.1311,-4.1311,-4.1311,-4.1683,-4.2695,-4.2792,-4.3626,-4.5644,-4.5779,-4.6211,-4.7207,-4.7266,-4.7266,-4.7309,-4.7309,-4.6995,-4.6279,-4.5648,-4.4975,-4.4302,-4.3604,-4.329,-4.329,-4.329,-4.329,-2.267,-2.4417,0.0,0.0,0.0,0.0,0.0,0.0,0.0,0.0,0.0,0.0,0.0,0.0,0.0,0.0,0.0,0.0,0.0,0.0,0.0,0.0,0.0,0.0,0.0,0.0,0.0,0.0,0.0,0.0,0.0,0.0,0.0,0.0,-3.9697,-3.9697,-3.9697,-3.9697,-3.9697,-3.9697,-3.9697,-3.9697,-3.9697,-3.9697,-3.9697,-3.9697,-3.9697,-3.9697,-3.9697,-3.9697,-3.9697,-3.9749,-3.9981,-4.007,-4.0134,-4.0389,-4.0504,-4.0504,-4.0504,-4.0504,-4.0504,-4.0504,-4.0504,-4.0555,-4.0846,-4.0883,-4.0946,-4.1211,-4.1311,-4.1311,-4.1311,-4.1311,-4.1311,-4.1311,-4.1311,-4.1311,-4.1311,-4.1311,-4.1311,-4.1311,-4.1311,-4.1311,-4.1311,-4.1311,-4.1311,-4.1311,-4.1311,-4.1311,-4.1311,-4.1311,-4.1683,-4.2695,-4.2792,-4.3307,-4.4624,-4.4716,-4.4869,-4.5144,-4.5204,-4.5808,-4.7251,-4.7309,-4.677,-4.5618,-4.5394,-4.4751,-4.3589,-4.3394,-4.329,-4.329,-4.329,-4.329,-2.3737,0.0,0.0,0.0,0.0,0.0,0.0,0.0,0.0,0.0,0.0,0.0,0.0,0.0,0.0,0.0,0.0,0.0,0.0,0.0,0.0,0.0,0.0,0.0,0.0,0.0,0.0,0.0,0.0,0.0,0.0,0.0,0.0,0.0,-3.9697,-3.9697,-3.9697,-3.9697,-3.9697,-3.9697,-3.9697,-3.9697,-3.9697,-3.9697,-3.9697,-3.9697,-3.9697,-3.9697,-3.9697,-3.9697,-3.9697,-3.9749,-3.989,-3.9929,-3.9981,-4.0147,-4.0198,-4.0198,-4.0198,-4.0198,-4.0198,-4.0198,-4.0198,-4.0249,-4.0491,-4.0643,-4.0795,-4.0959,-4.1161,-4.1261,-4.1161,-4.1211,-4.1311,-4.1311,-4.1311,-4.1311,-4.1311,-4.1311,-4.1311,-4.1311,-4.1311,-4.1311,-4.1311,-4.1311,-4.1311,-4.1311,-4.1311,-4.1311,-4.1311,-4.1311,-4.1547,-4.215,-4.2186,-4.2612,-4.3592,-4.3687,-4.3876,-4.4266,-4.4312,-4.4823,-4.6047,-4.6256,-4.5982,-4.5319,-4.5035,-4.4392,-4.329,-4.329,-4.329,-4.329,-4.329,-4.329,-2.6572,0.0,0.0,0.0,0.0,0.0,0.0,0.0,0.0,0.0,0.0,0.0,0.0,0.0,0.0,0.0,0.0,0.0,0.0,0.0,0.0,0.0,0.0,0.0,0.0,0.0,0.0,0.0,0.0,0.0,0.0,0.0,0.0,-3.9697,-3.9697,-3.9697,-3.9697,-3.9697,-3.9697,0.0,-3.9697,-3.9697,-3.9697,-3.9697,-3.9697,-3.9697,-3.9697,-3.9697,-3.9697,-3.9697,-3.9697,-3.9697,-3.9697,-3.9697,-3.9697,-3.9697,-3.9697,-3.9697,-3.9697,-3.9697,-3.9697,-3.9697,-3.9697,-3.9736,-4.0032,-4.0287,-4.0453,-4.0504,-4.0858,-4.1161,-4.0946,-4.1097,-4.1261,-4.1311,-4.1311,-4.1311,-4.1311,-4.1311,-4.1311,-4.1311,-4.1311,-4.1311,-4.1311,-4.1311,-4.1311,-4.1311,-4.1311,-4.1311,-4.1311,-4.1311,-4.1311,-4.1311,-4.1311,-4.1683,-4.2612,-4.2647,-4.3033,-4.3984,-4.4031,-4.4078,-4.4172,-4.4574,-4.4893,-4.518,-4.4605,-4.3947,-4.329,-4.329,-4.329,-4.329,-4.329,-4.329,0.0,-2.6223,0.0,0.0,0.0,0.0,0.0,0.0,0.0,0.0,0.0,0.0,0.0,0.0,0.0,0.0,0.0,0.0,0.0,0.0,0.0,0.0,0.0,0.0,0.0,0.0,0.0,0.0,0.0,0.0,0.0,0.0,0.0,-3.9697,-3.9697,-3.9697,-3.9697,-3.9697,-3.9697,0.0,-3.9697,-3.9697,-3.9697,-3.9697,-3.9697,-3.9697,-3.9697,-3.9697,-3.9697,-3.9697,-3.9697,-3.9697,-3.9697,-3.9697,-3.9697,-3.9697,-3.9697,-3.9697,-3.9697,-3.9697,-3.9697,-3.9697,-3.9697,-3.9736,-4.0032,-4.0134,-4.0236,-4.0453,-4.0555,-4.0707,-4.0833,-4.0933,-4.1047,-4.1261,-4.1311,-4.1311,-4.1311,-4.1311,-4.1311,-4.1311,-4.1311,-4.1311,-4.1311,-4.1311,-4.1311,-4.1311,-4.1311,-4.1311,-4.1311,-4.1311,-4.1311,-4.1311,-4.1311,-4.1411,-4.1597,-4.1634,-4.1733,-4.1931,-4.1967,-4.2297,-4.3081,-4.4197,-4.4574,-4.4121,-4.4261,-4.3947,-4.329,-4.329,-4.329,-4.329,-4.329,-4.329,0.0,0.0,0.0,0.0,0.0,0.0,0.0,0.0,0.0,0.0,0.0,0.0,0.0,0.0,0.0,0.0,0.0,0.0,0.0,0.0,0.0,0.0,0.0,0.0,0.0,0.0,0.0,0.0,0.0,0.0,0.0,-3.8994,-3.9295,-3.9295,-3.9559,-3.9697,-3.9697,-3.9697,-3.9697,-3.9697,-3.9697,-3.9697,-3.9697,-3.9697,-3.9697,-3.9697,-3.9697,-3.9697,-3.9697,-3.9697,-3.9697,-3.9697,-3.9697,-3.9697,-3.9697,-3.9697,-3.9697,-3.9697,-3.9697,-3.9697,-3.9697,-3.9697,-3.9697,-3.9749,-3.989,-3.9981,-4.007,-4.0096,-4.03,-4.0504,-4.0529,-4.0681,-4.0933,-4.1097,-4.1211,-4.1311,-4.1311,-4.1311,-4.1311,-4.1311,-4.1311,-4.1311,-4.1311,-4.1311,-4.1311,-4.1311,-4.1311,-4.1311,-4.1311,-4.1311,-4.1311,-4.1311,-4.1311,-4.1311,-4.1311,-4.1311,-4.1311,-4.1311,-4.1311,-4.1547,-4.2052,-4.2642,-4.3229,-4.3806,-4.3826,-4.3633,-4.329,-4.329,-4.329,-4.329,-4.329,-4.329,0.0,0.0,0.0,0.0,0.0,0.0,0.0,0.0,0.0,0.0,0.0,0.0,0.0,0.0,0.0,0.0,0.0,0.0,0.0,0.0,0.0,0.0,0.0,0.0,0.0,0.0,0.0,0.0,0.0,0.0,-3.7864,-3.8404,-3.8718,-3.8718,-3.927,-3.9546,-3.9546,-3.9647,-3.9697,-3.9697,-3.9697,-3.9697,-3.9697,-3.9697,-3.9697,-3.9697,-3.9697,-3.9697,-3.9697,-3.9697,-3.9697,-3.9697,-3.9697,-3.9697,-3.9697,-3.9697,-3.9697,-3.9697,-3.9697,-3.9697,-3.9697,-3.9697,-3.9697,-3.9697,-3.9697,-3.9839,-3.9981,-3.9736,-3.9993,-4.03,-4.0134,-4.0478,-4.0833,-4.0883,-4.1097,-4.1311,-4.1311,-4.1311,-4.1311,-4.1311,-4.1311,-4.1311,-4.1311,-4.1311,-4.1311,-4.1311,-4.1311,-4.1311,-4.1311,-4.1311,-4.1311,-4.1311,-4.1311,-4.1311,-4.1311,-4.1311,-4.1311,-4.1311,-4.1311,-4.1311,-4.1311,-4.1111,-4.1781,-4.3517,-4.3225,-4.317,-4.329,-4.329,-4.329,-4.329,-4.329,-4.329,0.0,0.0,0.0,0.0,0.0,0.0,0.0,0.0,0.0,0.0,0.0,0.0,0.0,0.0,0.0,0.0,0.0,0.0,0.0,0.0,0.0,0.0,0.0,0.0,0.0,0.0,0.0,0.0,0.0,0.0,-3.7299,-3.7814,-3.8115,-3.8115,-3.868,-3.9032,-3.9032,-3.9459,-3.9697,-3.9697,-3.9697,-3.9697,-3.9697,-3.9697,-3.9697,-3.9697,-3.9697,-3.9697,-3.9697,-3.9697,-3.9697,-3.9697,-3.9697,-3.9697,-3.9697,-3.9697,-3.9697,-3.9697,-3.9697,-3.9697,-3.9697,-3.9697,-3.9697,-3.9697,-3.9697,-3.9749,-3.9736,-3.9697,-3.9736,-3.9839,-4.0032,-4.0338,-4.0605,-4.0833,-4.1097,-4.1311,-4.1311,-4.1311,-4.1311,-4.1311,-4.1311,-4.1311,-4.1311,-4.1311,-4.1311,-4.1311,-4.1311,-4.1311,-4.1311,-4.1311,-4.1311,-4.1311,-4.1311,-4.1311,-4.1311,-4.1311,-4.1311,-4.1311,-4.1311,-4.1311,-4.1311,-4.1111,-4.1462,-4.2474,-4.2278,-4.2537,-4.329,-4.329,-4.329,-4.329,-4.329,-4.329,0.0,0.0,0.0,0.0,0.0,0.0,0.0,0.0,0.0,0.0,0.0,0.0,0.0,0.0,0.0,0.0,0.0,0.0,0.0,0.0,0.0,0.0,0.0,0.0,0.0,0.0,0.0,0.0,0.0,-3.6769,-3.6769,-3.7249,-3.755,-3.755,-3.809,-3.8391,-3.8391,-3.8944,-3.9383,-3.9697,-3.9697,-3.9697,-3.9697,-3.9697,-3.9697,-3.9697,-3.9697,-3.9697,-3.9697,-3.9697,-3.9697,-3.9697,-3.9697,-3.9697,-3.9697,-3.9697,-3.9697,-3.9697,-3.9697,-3.9697,-3.9697,-3.9697,-3.9697,-3.9697,-3.9697,-3.9697,-3.9697,-3.9697,-3.9697,-3.9749,-3.9839,-4.0198,-4.0555,-4.0643,-4.101,-4.1311,-4.1311,-4.1311,-4.1311,-4.1311,-4.1311,-4.1311,-4.1311,-4.1311,-4.1311,-4.1311,-4.1311,-4.1311,-4.1311,-4.1311,-4.1311,-4.1311,-4.1311,-4.1311,-4.1311,-4.1311,-4.1311,-4.1311,-4.1311,-4.1311,-4.1311,-4.0865,-4.1167,-4.2295,-4.2109,-4.2415,-4.329,-4.329,-4.329,-4.329,-4.329,-4.329,0.0,0.0,0.0,0.0,0.0,0.0,0.0,0.0,0.0,0.0,0.0,0.0,0.0,0.0,0.0,0.0,0.0,0.0,0.0,0.0,0.0,0.0,0.0,0.0,0.0,0.0,0.0,0.0,0.0,-3.6405,-3.6405,-3.6795,-3.6973,-3.6973,-3.7513,-3.7801,-3.7801,-3.8366,-3.8856,-3.927,-3.9408,-3.9484,-3.9484,-3.9634,-3.9697,-3.9697,-3.9697,-3.9697,-3.9697,-3.9697,-3.9697,-3.9697,-3.9697,-3.9697,-3.9697,-3.9697,-3.9697,-3.9697,-3.9697,-3.9697,-3.9697,-3.9697,-3.9697,-3.9697,-3.9697,-3.9697,-3.9697,-3.9697,-3.9697,-3.9697,-3.9697,-4.0044,-4.0402,-4.0504,-4.0858,-4.1211,-4.1261,-4.1311,-4.1311,-4.1311,-4.1311,-4.1311,-4.1311,-4.1311,-4.1311,-4.1311,-4.1311,-4.1311,-4.1311,-4.1311,-4.1311,-4.1311,-4.1311,-4.1311,-4.1311,-4.1311,-4.1311,-4.1311,-4.1311,-4.1311,-4.1311,-4.0736,-4.0867,-4.1949,-4.1924,-4.2315,-4.329,-4.329,-4.329,-4.329,-4.329,-4.329,0.0,0.0,0.0,0.0,0.0,0.0,0.0,0.0,0.0,0.0,0.0,0.0,0.0,0.0,0.0,0.0,0.0,0.0,0.0,0.0,0.0,0.0,0.0,0.0,0.0,0.0,0.0,0.0,0.0,-3.6405,-3.6405,-3.643,-3.6455,-3.6455,-3.6935,-3.7224,-3.7224,-3.7776,-3.8065,-3.8103,-3.8655,-3.8957,-3.8982,-3.9459,-3.9697,-3.9697,-3.9697,-3.9697,-3.9697,-3.9697,-3.9697,-3.9697,-3.9697,-3.9697,-3.9697,-3.9697,-3.9697,-3.9697,-3.9697,-3.9697,-3.9697,-3.9697,-3.9697,-3.9697,-3.9697,-3.9697,-3.9697,-3.9697,-3.9697,-3.9697,-3.9697,-3.9929,-4.0185,-4.0453,-4.0694,-4.0997,-4.1261,-4.1311,-4.1311,-4.1311,-4.1311,-4.1311,-4.1311,-4.1311,-4.1311,-4.1311,-4.1311,-4.1311,-4.1311,-4.1311,-4.1311,-4.1311,-4.1311,-4.1311,-4.1311,-4.1311,-4.1311,-4.1311,-4.1311,-4.1311,-4.1311,-4.0736,-4.0605,-4.1074,-4.1352,-4.2122,-4.329,-4.329,-4.329,-4.329,-4.329,-4.329,0.0,0.0,0.0,0.0,0.0,0.0,0.0,0.0,0.0,0.0,0.0,0.0,0.0,0.0,0.0,0.0,0.0,0.0,0.0,0.0,0.0,0.0,0.0,0.0,0.0,0.0,0.0,0.0,0.0,0.0,-3.6405,-3.6405,-3.6405,-3.6405,-3.6606,-3.687,-3.7186,-3.7374,-3.7651,-3.8002,-3.8216,-3.8316,-3.8329,-3.8906,-3.917,-3.9182,-3.9534,-3.9697,-3.9697,-3.9697,-3.9697,-3.9697,-3.9697,-3.9697,-3.9697,-3.9697,-3.9697,-3.9697,-3.9697,-3.9697,-3.9697,-3.9697,-3.9697,-3.9697,-3.9697,-3.9697,-3.9697,-3.9697,-3.9697,-3.9697,-3.9697,-3.989,-4.0236,-4.0643,-4.0946,-4.1161,-4.1261,-4.1311,-4.1311,-4.1311,-4.1311,-4.1311,-4.1311,-4.1311,-4.1311,-4.1311,-4.1311,-4.1311,-4.1311,-4.1311,-4.1311,-4.1311,-4.1311,-4.1311,-4.1311,-4.1311,-4.1311,-4.1311,-4.1311,-4.1311,-4.1311,-4.1102,-4.0953,-4.0995,-4.1133,-4.1585,-4.2456,-4.3036,-4.329,-4.329,-4.2754,-4.2456,-2.1319,0.0,0.0,0.0,0.0,0.0,0.0,0.0,0.0,0.0,0.0,0.0,0.0,0.0,0.0,0.0,0.0,0.0,0.0,0.0,0.0,0.0,0.0,0.0,0.0,0.0,0.0,0.0,0.0,0.0,-3.6405,-3.6405,-3.6405,-3.6405,-3.6405,-3.6581,-3.6958,-3.6958,-3.7098,-3.7462,-3.7651,-3.7726,-3.7751,-3.8316,-3.858,-3.8605,-3.8969,-3.9346,-3.9697,-3.9697,-3.9697,-3.9697,-3.9697,-3.9697,-3.9697,-3.9697,-3.9697,-3.9697,-3.9697,-3.9697,-3.9697,-3.9697,-3.9697,-3.9697,-3.9697,-3.9697,-3.9697,-3.9697,-3.9697,-3.9697,-3.9697,-3.989,-4.0173,-4.0529,-4.0896,-4.1161,-4.1161,-4.1261,-4.1311,-4.1311,-4.1311,-4.1311,-4.1311,-4.1311,-4.1311,-4.1311,-4.1311,-4.1311,-4.1311,-4.1311,-4.1311,-4.1311,-4.1311,-4.1311,-4.1311,-4.1311,-4.1311,-4.1311,-4.1311,-4.1311,-4.1311,-4.1311,-4.1057,-4.0556,-4.0842,-4.1007,-4.1071,-4.1976,-4.2386,-4.2386,-4.1811,-4.1686,0.0,0.0,0.0,0.0,0.0,0.0,0.0,0.0,0.0,0.0,0.0,0.0,0.0,0.0,0.0,0.0,0.0,0.0,0.0,0.0,0.0,0.0,0.0,0.0,0.0,0.0,0.0,0.0,0.0,-3.6358,-3.6405,-3.6358,-3.6358,-3.6405,-3.6358,-3.6358,-3.6405,-3.6405,-3.6405,-3.6417,-3.6958,-3.7161,-3.7174,-3.7726,-3.799,-3.799,-3.8002,-3.863,-3.9647,-3.9659,-3.9685,-3.9697,-3.9697,-3.9697,-3.9697,-3.9697,-3.9697,-3.9697,-3.9697,-3.9697,-3.9697,-3.9697,-3.9697,-3.9697,-3.9697,-3.9697,-3.9697,-3.9697,-3.9697,-3.9697,-3.9697,-3.989,-4.007,-4.007,-4.0478,-4.0883,-4.0883,-4.1097,-4.1261,-4.1311,-4.1311,-4.1311,-4.1311,-4.1311,-4.1311,-4.1311,-4.1311,-4.1311,-4.1311,-4.1311,-4.1311,-4.1311,-4.1311,-4.1311,-4.1311,-4.1311,-4.1311,-4.1311,-4.1311,-4.1311,-4.1311,-4.1311,-4.0775,-3.9625,-4.0495,-4.0385,-3.9166,-4.0116,-4.0603,-4.0603,-4.0603,-4.1071,-2.0605,0.0,0.0,0.0,0.0,0.0,0.0,0.0,0.0,0.0,0.0,0.0,0.0,0.0,0.0,0.0,0.0,0.0,0.0,0.0,0.0,0.0,0.0,0.0,0.0,0.0,0.0,0.0,-3.5667,-3.5571,-3.6358,-3.5667,-3.5619,-3.6358,-3.5667,-3.5619,-3.6405,-3.6405,-3.6405,-3.6405,-3.6568,-3.6631,-3.6656,-3.7161,-3.7412,-3.7425,-3.7839,-3.8191,-3.8504,-3.8931,-3.9333,-3.9697,-3.9697,-3.9697,-3.9697,-3.9697,-3.9697,-3.9697,-3.9697,-3.9697,-3.9697,-3.9697,-3.9697,-3.9697,-3.9697,-3.9697,-3.9697,-3.9697,-3.9697,-3.9697,-3.9697,-3.989,-4.007,-4.007,-4.0338,-4.0605,-4.0605,-4.0656,-4.0858,-4.1211,-4.1311,-4.1311,-4.1311,-4.1311,-4.1311,-4.1311,-4.1311,-4.1311,-4.1311,-4.1311,-4.1311,-4.1311,-4.1311,-4.1311,-4.1311,-4.1311,-4.1311,-4.1311,-4.1311,-4.1311,-4.1311,-4.1311,-4.0775,-3.9625,-3.9886,-3.9434,-3.8272,-3.9839,-4.0603,-4.0603,-4.0603,-4.0731,0.0,0.0,0.0,0.0,0.0,0.0,-2.2246,-2.3174,0.0,0.0,0.0,0.0,0.0,0.0,0.0,0.0,0.0,0.0,0.0,0.0,0.0,0.0,0.0,0.0,0.0,0.0,0.0,-3.4763,-3.4313,-3.4471,-3.5667,-3.4727,-3.4629,-3.5715,-3.4678,-3.4629,-3.5715,-3.5715,-3.5715,-3.5715,-3.6216,-3.6168,-3.5775,-3.6541,-3.6883,-3.6908,-3.7186,-3.745,-3.7688,-3.8027,-3.8642,-3.9371,-3.9597,-3.9697,-3.9697,-3.9697,-3.9697,-3.9697,-3.9697,-3.9697,-3.9697,-3.9697,-3.9697,-3.9697,-3.9697,-3.9697,-3.9697,-3.9697,-3.9697,-3.9697,-3.9697,-3.9839,-3.9929,-3.9929,-4.0134,-4.0338,-4.0338,-4.0402,-4.0605,-4.1047,-4.1161,-4.1161,-4.1261,-4.1311,-4.1311,-4.1311,-4.1311,-4.1311,-4.1311,-4.1311,-4.1311,-4.1311,-4.1311,-4.1311,-4.1311,-4.1311,-4.1311,-4.1311,-4.1311,-4.1311,-4.1311,-4.1076,-4.0527,-3.9625,-3.9364,-3.8789,-3.79,-3.8953,-3.9458,-3.9502,-4.026,-4.0603,0.0,0.0,0.0,0.0,0.0,0.0,-2.2457,-2.2886,-2.3393,0.0,0.0,0.0,0.0,0.0,0.0,0.0,0.0,0.0,0.0,0.0,0.0,0.0,0.0,0.0,0.0,-3.1867,-3.2051,-3.2626,-3.2733,-3.3315,-3.4581,-3.3598,-3.3499,-3.4581,-3.3598,-3.3549,-3.4629,-3.4727,-3.4775,-3.4824,-3.5775,-3.5715,-3.4836,-3.5763,-3.6203,-3.6216,-3.6358,-3.6681,-3.7098,-3.7161,-3.7852,-3.8969,-3.9408,-3.9634,-3.9697,-3.9697,-3.9697,-3.9697,-3.9697,-3.9697,-3.9697,-3.9697,-3.9697,-3.9697,-3.9697,-3.9697,-3.9697,-3.9697,-3.9697,-3.9697,-3.9697,-3.9697,-3.9697,-3.9697,-3.989,-4.0083,-4.0083,-4.0236,-4.0504,-4.0795,-4.0883,-4.0997,-4.1261,-4.1311,-4.1311,-4.1311,-4.1311,-4.1311,-4.1311,-4.1311,-4.1311,-4.1311,-4.1311,-4.1311,-4.1311,-4.1311,-4.1311,-4.1311,-4.1311,-4.1311,-4.1311,-4.0736,-4.0161,-3.9625,-3.8958,-3.8383,-3.79,-3.79,-3.79,-3.7946,-3.9766,-4.0603,0.0,0.0,0.0,0.0,0.0,0.0,-2.1026,-2.1621,-2.2227,0.0,0.0,0.0,0.0,0.0,0.0,0.0,0.0,0.0,0.0,0.0,0.0,0.0,0.0,0.0,0.0,-2.9207,-2.9772,-3.1759,-3.2479,-3.3017,-3.3499,-3.2488,-3.2387,-3.3499,-3.2488,-3.2437,-3.3499,-3.4385,-3.4775,-3.4775,-3.503,-3.4981,-3.4824,-3.503,-3.5126,-3.5174,-3.6013,-3.6468,-3.6606,-3.6998,-3.7852,-3.8932,-3.9045,-3.9295,-3.9697,-3.9697,-3.9697,-3.9697,-3.9697,-3.9697,-3.9697,-3.9697,-3.9697,-3.9697,-3.9697,-3.9697,-3.9697,-3.9697,-3.9697,-3.9697,-3.9697,-3.9697,-3.9697,-3.9697,-3.9736,-3.9788,-3.9788,-3.9839,-3.9993,-4.0504,-4.0744,-4.0997,-4.1261,-4.1311,-4.1311,-4.1311,-4.1311,-4.1311,-4.1311,-4.1311,-4.1311,-4.1311,-4.1311,-4.1311,-4.1311,-4.1311,-4.1311,-4.1311,-4.1311,-4.1311,-4.1311,-4.0736,-4.0161,-3.9625,-3.8593,-3.8004,-3.79,-3.79,-3.79,-3.7946,-3.9766,-4.0603,0.0,0.0,0.0,-2.0605,0.0,0.0,0.0,-2.1572,-2.2012,0.0,0.0,0.0,0.0,0.0,0.0,0.0,0.0,0.0,0.0,0.0,0.0,0.0,0.0,0.0,0.0,-2.7751,-2.8216,-2.9777,-3.0507,-3.1262,-3.2123,-3.1289,-3.1289,-3.2387,-3.1341,-3.1341,-3.2387,-3.2939,-3.3178,-3.3227,-3.3735,-3.3735,-3.3227,-3.3735,-3.4288,-3.4836,-3.5367,-3.5918,-3.643,-3.6707,-3.7425,-3.8467,-3.8755,-3.9207,-3.9697,-3.9697,-3.9697,-3.9697,-3.9697,-3.9697,-3.9697,-3.9697,-3.9697,-3.9697,-3.9697,-3.9697,-3.9697,-3.9697,-3.9697,-3.9697,-3.9697,-3.9697,-3.9697,-3.9697,-3.9697,-3.9697,-3.9697,-3.9697,-3.9852,-4.0402,-4.0605,-4.0846,-4.1211,-4.1311,-4.1311,-4.1311,-4.1311,-4.1311,-4.1311,-4.1311,-4.1311,-4.1311,-4.1311,-4.1311,-4.1311,-4.1311,-4.1311,-4.1311,-4.1311,-4.1311,-4.1311,-4.0474,-3.9625,-3.8776,-3.82,-3.79,-3.79,-3.79,-3.79,-3.7946,-3.9282,-3.9899,0.0,0.0,0.0,0.0,0.0,-2.0791,0.0,0.0,0.0,0.0,0.0,0.0,0.0,0.0,0.0,0.0,0.0,0.0,0.0,0.0,0.0,0.0,0.0,0.0,0.0,-2.6592,-2.6986,-2.7885,-2.8308,-2.9147,-3.0666,-3.0235,-3.0339,-3.1278,-3.0443,-3.0443,-3.1278,-3.1483,-3.1575,-3.1626,-3.2499,-3.2437,-3.1626,-3.2488,-3.3338,-3.4227,-3.4629,-3.5271,-3.6108,-3.631,-3.6996,-3.7902,-3.8479,-3.912,-3.9697,-3.9697,-3.9697,-3.9697,-3.9697,-3.9697,-3.9697,-3.9697,-3.9697,-3.9697,-3.9697,-3.9697,-3.9697,-3.9697,-3.9697,-3.9697,-3.9697,-3.9697,-3.9697,-3.9697,-3.9697,-3.9697,-3.9697,-3.9697,-3.9852,-4.0402,-4.0504,-4.0656,-4.1211,-4.1311,-4.1311,-4.1311,-4.1311,-4.1311,-4.1311,-4.1311,-4.1311,-4.1311,-4.1311,-4.1311,-4.1311,-4.1311,-4.1311,-4.1311,-4.1311,-4.1311,-4.1311,-4.0226,-3.9076,-3.7926,-3.79,-3.79,-3.79,-3.79,-3.79,-3.79,-3.8792,-3.921,0.0,0.0,0.0,0.0,-2.0605,0.0,0.0,0.0,0.0,0.0,0.0,0.0,0.0,0.0,0.0,0.0,0.0,0.0,0.0,0.0,0.0,0.0,0.0,0.0,0.0,0.0,-2.5927,-2.7379,-2.7222,-2.7663,-2.9106,-2.9486,-2.9816,-3.0193,-3.0047,-3.0047,-3.0193,-3.1135,-3.1575,-3.1575,-3.1728,-3.1728,-3.1575,-3.1728,-3.183,-3.2072,-3.397,-3.4884,-3.5078,-3.6013,-3.6769,-3.7324,-3.7889,-3.8755,-3.9697,-3.9697,-3.9697,-3.9697,-3.9697,-3.9697,-3.9697,-3.9697,-3.9697,-3.9697,-3.9697,-3.9697,-3.9697,-3.9697,-3.9697,-3.9697,-3.9697,-3.9697,-3.9697,-3.9697,-3.9697,-3.9697,-3.9697,-3.9697,-3.9852,-4.0402,-4.0504,-4.0656,-4.1211,-4.1311,-4.1311,-4.1311,-4.1311,-4.1311,-4.1311,-4.1311,-4.1311,-4.1311,-4.1311,-4.1311,-4.1311,-4.1311,-4.1311,-4.1311,-4.1311,-4.1311,-4.1311,-4.0226,-3.9076,-3.7926,-3.79,-3.79,-3.79,-3.79,-3.79,-3.79,-3.8792,-3.921,0.0,0.0,0.0,0.0,0.0,0.0,-2.0723,0.0,-2.0605,0.0,0.0,0.0,0.0,0.0,0.0,0.0,0.0,0.0,0.0,0.0,0.0,0.0,0.0,0.0,0.0,0.0,0.0,0.0,0.0,-2.7172,-2.7994,-2.8756,-2.927,-2.9373,-2.9797,-2.9994,-2.9994,-3.0443,-3.0692,-3.0692,-3.0692,-3.0692,-3.0692,-3.0692,-3.1032,-3.1626,-3.2527,-3.3624,-3.4824,-3.5271,-3.6132,-3.7211,-3.7437,-3.8216,-3.9258,-3.9584,-3.9697,-3.9697,-3.9697,-3.9697,-3.9697,-3.9697,-3.9697,-3.9697,-3.9697,-3.9697,-3.9697,-3.9697,-3.9697,-3.9697,-3.9697,-3.9697,-3.9697,-3.9697,-3.9697,-3.9697,-3.9697,-3.9839,-3.9981,-4.0236,-4.0389,-4.0555,-4.0808,-4.111,-4.1311,-4.1311,-4.1311,-4.1311,-4.1311,-4.1311,-4.1311,-4.1311,-4.1311,-4.1311,-4.1311,-4.1311,-4.1311,-4.1311,-4.1311,-4.1023,-4.0357,-3.986,-3.9076,-3.7926,-3.79,-3.79,-3.79,-3.79,-3.79,-3.79,-3.8272,-3.8427,-2.1181,0.0,0.0,0.0,0.0,0.0,0.0,0.0,0.0,0.0,0.0,0.0,0.0,0.0,0.0,0.0,0.0,0.0,0.0,0.0,0.0,0.0,0.0,0.0,0.0,0.0,0.0,-2.581,-2.6143,-2.6586,-2.7191,-2.8156,-2.8767,-2.8921,-2.9538,-2.9942,-2.9994,-2.9994,-2.9994,-2.9994,-2.9994,-2.9994,-2.9994,-2.9994,-3.0443,-3.1187,-3.1483,-3.2476,-3.3932,-3.4227,-3.5199,-3.6574,-3.6723,-3.743,-3.8492,-3.9207,-3.9559,-3.9697,-3.9697,-3.9697,-3.9697,-3.9697,-3.9697,-3.9697,-3.9697,-3.9697,-3.9697,-3.9697,-3.9697,-3.9697,-3.9697,-3.9697,-3.9697,-3.9697,-3.9697,-3.9697,-3.9697,-3.9839,-4.0032,-4.007,-4.0236,-4.0389,-4.0504,-4.0808,-4.111,-4.1161,-4.1211,-4.1211,-4.1261,-4.1311,-4.1311,-4.1311,-4.1311,-4.1311,-4.1311,-4.1311,-4.1311,-4.1311,-4.1311,-4.0801,-3.9651,-3.9612,-3.9076,-3.7926,-3.79,-3.79,-3.79,-3.79,-3.79,-3.79,-3.79,-3.79,0.0,0.0,0.0,-2.0564,0.0,0.0,0.0,0.0,-2.0605,0.0,0.0,0.0,0.0,0.0,0.0,0.0,0.0,0.0,0.0,0.0,0.0,0.0,0.0,0.0,0.0,0.0,0.0,-2.4414,-2.4863,-2.5623,-2.6774,-2.7638,-2.8364,-2.887,-2.9371,-2.9722,-2.9994,-2.9994,-2.9994,-2.9994,-2.9994,-2.9994,-2.9994,-2.9994,-2.9994,-3.0099,-3.1135,-3.1626,-3.1779,-3.2801,-3.3895,-3.4908,-3.5475,-3.6297,-3.7374,-3.8492,-3.9233,-3.9697,-3.9697,-3.9697,-3.9697,-3.9697,-3.9697,-3.9697,-3.9697,-3.9697,-3.9697,-3.9697,-3.9697,-3.9697,-3.9697,-3.9697,-3.9697,-3.9697,-3.9697,-3.9697,-3.9697,-3.9697,-3.9788,-4.0032,-4.0121,-4.0185,-4.0453,-4.0504,-4.0605,-4.0883,-4.0883,-4.0997,-4.1261,-4.1311,-4.1311,-4.1311,-4.1311,-4.1311,-4.1311,-4.1311,-4.1311,-4.1311,-4.1311,-4.0801,-3.9651,-3.9612,-3.9076,-3.7926,-3.79,-3.79,-3.79,-3.79,-3.79,-3.79,-3.79,-3.79,0.0,0.0,-2.3223,-2.1714,0.0,0.0,0.0,0.0,0.0,0.0,0.0,0.0,0.0,0.0,0.0,0.0,0.0,0.0,0.0,0.0,0.0,0.0,0.0,0.0,0.0,0.0,0.0,-2.4394,-2.5098,-2.5683,0.0,-2.6834,-2.7542,-2.8249,-2.8829,-2.9414,-2.9994,-2.9994,-2.9994,-2.9994,-2.9994,-2.9994,-2.9994,-2.9994,-2.9994,-3.0047,-3.0391,-3.0929,-3.1626,-3.1982,-3.2789,-3.3758,-3.3933,-3.4861,-3.6358,-3.8241,-3.8981,-3.9195,-3.9572,-3.9697,-3.9697,-3.9697,-3.9697,-3.9697,-3.9697,-3.9697,-3.9697,-3.9697,-3.9697,-3.9697,-3.9697,-3.9697,-3.9697,-3.9697,-3.9697,-3.9697,-3.9697,-3.9839,-3.9929,-3.9839,-3.9981,-4.0083,-3.9993,-3.9942,-4.0096,-4.0555,-4.0795,-4.0933,-4.1047,-4.1211,-4.1311,-4.1311,-4.1311,-4.1311,-4.1311,-4.1311,-4.1311,-4.1311,-4.0945,-4.0383,-3.9638,-3.922,-3.8671,-3.7913,-3.79,-3.79,-3.79,-3.79,-3.79,-3.79,-3.79,-3.79,-2.3602,-2.3958,0.0,-2.26,-2.2701,0.0,-2.1205,0.0,0.0,0.0,0.0,0.0,0.0,0.0,0.0,0.0,0.0,0.0,0.0,-2.042,0.0,0.0,0.0,0.0,0.0,0.0,-2.3769,-2.4375,-2.4894,-2.5352,0.0,0.0,-2.6894,-2.7482,-2.8319,-2.9023,-2.958,-2.9859,-2.9994,-2.9994,-2.9994,-2.9994,-2.9994,-2.9994,-2.9994,-2.9994,-2.9994,-3.0391,-3.1032,-3.1032,-3.1637,-3.2639,-3.2639,-3.3496,-3.4992,-3.7008,-3.8216,-3.8969,-3.9283,-3.9534,-3.9697,-3.9697,-3.9697,-3.9697,-3.9697,-3.9697,-3.9697,-3.9697,-3.9697,-3.9697,-3.9697,-3.9697,-3.9697,-3.9697,-3.9697,-3.9697,-3.9697,-3.9839,-3.9929,-3.9749,-3.9839,-3.989,-3.9749,-3.9788,-3.9993,-4.0453,-4.0643,-4.0846,-4.1047,-4.1211,-4.1311,-4.1311,-4.1128,-4.0997,-4.0997,-4.1193,-4.1311,-4.1311,-4.0945,-4.0396,-3.9638,-3.9246,-3.8762,-3.82,-3.8004,-3.8004,-3.8187,-3.7991,-3.79,-3.79,-3.79,-3.79]}]]